Darstellungsparameter: Aktuell verwendete Einstellungen:
Skalierung der Graphiken ... ?
xyx+y,   Skalierungsfaktor:      Skalierung: Modus: x, Faktor: 1
Darstellungszeitraum ... ?
Vom - - bis: - -   Zeitraum: 18.10.2019 - 17.04.2020
Min/Max/Avg-Anzeige ... ?
Zeige MMA aktuell
Zeige MMA Monat
Zeige MMA alles
Zeige --A aktuell
Zeige --A Monat
Zeige --A alles
Keine MMA-Anzeige
MMA:
Average (ber die Originaldaten)
MMA-Basis: 18.10.2019 - 17.04.2020
Quicknavigation für Darstellung... ?
Tage:      1T, 2T, 3T, 5T -1T -2T -3T -5T +1T +2T +3T +5T
Wochen: 1W, 2W, 3W -1W -2W -3W +1W +2W +3W
Monate: 1M, 3M, 6M -1M -3M -6M +1M +3M +6M
Jahre:    1J, 3J, 5J, 10J -1J -3J -5J -10J +1J +3J +5J +10J
Nutze für die Darstellung ... ?
Originaldaten oder Mittelwerte auf ...
Stundenbasis Tagesbasis Wochenbasis
Monatsbasis Jahresbasis      Datenbasis: Original-Daten
Darstellen als:
Statistik (Auto) Statistik J:M      Darstellung:
Zur Graphik,    zurück zur Übersicht aller Sensoren.
 
Tabellarische Datenbersicht: ?
 
<
Sensor: Nr:Datum:Temp:Feuchte:
Aussen-T/F 1 18-10-2019 00:07:17 13.4 C 35 %
2 18-10-2019 00:17:17 13.4 C 35 %
3 18-10-2019 00:27:17 13.4 C 34 %
4 18-10-2019 00:37:17 13.4 C 34 %
5 18-10-2019 00:47:17 13.3 C 34 %
6 18-10-2019 00:57:17 12.8 C 34 %
7 18-10-2019 01:07:17 12.6 C 35 %
8 18-10-2019 01:17:17 12.4 C 35 %
9 18-10-2019 01:27:17 12.1 C 35 %
10 18-10-2019 01:37:18 12.2 C 35 %
11 18-10-2019 01:47:17 12.1 C 35 %
12 18-10-2019 01:57:17 11.8 C 35 %
13 18-10-2019 02:07:18 11.8 C 36 %
14 18-10-2019 02:17:18 11.5 C 36 %
15 18-10-2019 02:27:18 11.4 C 36 %
16 18-10-2019 02:37:17 11.5 C 36 %
17 18-10-2019 02:47:17 11.3 C 36 %
18 18-10-2019 02:57:17 11.5 C 37 %
19 18-10-2019 03:07:17 11.4 C 36 %
20 18-10-2019 03:17:17 11.1 C 36 %
21 18-10-2019 03:27:17 10.9 C 37 %
22 18-10-2019 03:37:17 10.7 C 37 %
23 18-10-2019 03:47:17 10.7 C 37 %
24 18-10-2019 03:57:17 10.7 C 37 %
25 18-10-2019 04:07:17 10.7 C 37 %
Sensor: Nr:Datum:Temp:Feuchte:
Aussen-T/F 26 18-10-2019 04:17:17 10.8 C 37 %
27 18-10-2019 04:27:17 11.1 C 36 %
28 18-10-2019 04:37:18 10.9 C 37 %
29 18-10-2019 04:47:17 10.9 C 37 %
30 18-10-2019 04:57:17 10.9 C 37 %
31 18-10-2019 05:07:18 10.9 C 37 %
32 18-10-2019 05:17:17 10.8 C 37 %
33 18-10-2019 05:27:17 11.1 C 36 %
34 18-10-2019 05:37:17 11.5 C 36 %
35 18-10-2019 05:47:17 11.8 C 36 %
36 18-10-2019 05:57:17 11.9 C 36 %
37 18-10-2019 06:07:18 12.2 C 36 %
38 18-10-2019 06:17:17 11.9 C 36 %
39 18-10-2019 06:27:17 12 C 35 %
40 18-10-2019 06:37:18 12.1 C 35 %
41 18-10-2019 06:47:17 12.1 C 35 %
42 18-10-2019 06:57:17 12 C 35 %
43 18-10-2019 07:07:18 12.1 C 35 %
44 18-10-2019 07:17:17 12.1 C 35 %
45 18-10-2019 07:27:17 11.9 C 36 %
46 18-10-2019 07:37:17 11.7 C 36 %
47 18-10-2019 07:47:17 11.9 C 36 %
48 18-10-2019 07:57:17 12 C 35 %
49 18-10-2019 08:07:17 12.1 C 35 %
50 18-10-2019 08:17:18 12.3 C 35 %
Sensor: Nr:Datum:Temp:Feuchte:
Aussen-T/F 51 18-10-2019 08:27:18 12.4 C 35 %
52 18-10-2019 08:37:17 12.4 C 35 %
53 18-10-2019 08:47:18 12.4 C 35 %
54 18-10-2019 08:57:18 12.6 C 35 %
55 18-10-2019 09:07:17 12.7 C 35 %
56 18-10-2019 09:17:17 12.8 C 35 %
57 18-10-2019 09:27:17 12.9 C 35 %
58 18-10-2019 09:37:18 13.3 C 35 %
59 18-10-2019 09:47:17 13.4 C 35 %
60 18-10-2019 09:57:17 13.4 C 35 %
61 18-10-2019 10:07:18 13.7 C 34 %
62 18-10-2019 10:17:17 13.9 C 33 %
63 18-10-2019 10:27:17 14.3 C 33 %
64 18-10-2019 10:37:17 14.4 C 32 %
65 18-10-2019 10:47:17 14.7 C 32 %
66 18-10-2019 10:57:17 15 C 30 %
67 18-10-2019 11:07:17 15.1 C 27 %
68 18-10-2019 11:17:17 15.2 C 27 %
69 18-10-2019 11:27:17 15.7 C 20 %
70 18-10-2019 11:37:17 16.1 C 20 %
71 18-10-2019 11:47:18 15.7 C 20 %
72 18-10-2019 11:57:18 15.7 C 20 %
73 18-10-2019 12:07:17 15.6 C 20 %
74 18-10-2019 12:17:17 16.4 C 20 %
75 18-10-2019 12:27:17 16.8 C 20 %
Sensor: Nr:Datum:Temp:Feuchte:
Aussen-T/F 76 18-10-2019 12:37:17 16.9 C 20 %
77 18-10-2019 12:47:18 16.8 C 20 %
78 18-10-2019 12:57:18 17 C 20 %
79 18-10-2019 13:07:17 17 C 20 %
80 18-10-2019 13:17:17 17 C 20 %
81 18-10-2019 13:27:17 13.8 C 20 %
82 18-10-2019 13:37:17 12.4 C 20 %
83 18-10-2019 13:47:17 12.1 C 22 %
84 18-10-2019 13:57:17 11.9 C 23 %
85 18-10-2019 14:07:17 12.4 C 20 %
86 18-10-2019 14:17:17 13.4 C 20 %
87 18-10-2019 14:27:17 13.7 C 20 %
88 18-10-2019 14:37:18 13.4 C 20 %
89 18-10-2019 14:47:17 13.3 C 20 %
90 18-10-2019 14:57:17 13.8 C 20 %
91 18-10-2019 15:07:17 13.7 C 20 %
92 18-10-2019 15:17:17 14.4 C 20 %
93 18-10-2019 15:27:17 14.4 C 20 %
94 18-10-2019 15:37:17 14.4 C 20 %
95 18-10-2019 15:47:17 14.2 C 20 %
96 18-10-2019 15:57:18 14.4 C 20 %
97 18-10-2019 16:07:17 14.3 C 20 %
98 18-10-2019 16:17:17 14.6 C 20 %
99 18-10-2019 16:27:17 14.9 C 20 %
100 18-10-2019 16:37:18 16.1 C 20 %
Sensor: Nr:Datum:Temp:Feuchte:
Aussen-T/F 101 18-10-2019 16:47:17 17.5 C 20 %
102 18-10-2019 16:57:17 16.8 C 20 %
103 18-10-2019 17:07:17 16.9 C 20 %
104 18-10-2019 17:17:17 16.6 C 20 %
105 18-10-2019 17:27:17 16.5 C 20 %
106 18-10-2019 17:37:18 16.6 C 20 %
107 18-10-2019 17:47:17 15.2 C 20 %
108 18-10-2019 17:57:17 14.5 C 20 %
109 18-10-2019 18:07:17 12.8 C 20 %
110 18-10-2019 18:17:17 12.3 C 20 %
111 18-10-2019 18:27:17 11.5 C 20 %
112 18-10-2019 18:37:18 11.2 C 20 %
113 18-10-2019 18:47:17 10.8 C 21 %
114 18-10-2019 18:57:17 10.6 C 22 %
115 18-10-2019 19:07:17 10.4 C 25 %
116 18-10-2019 19:17:17 10.4 C 23 %
117 18-10-2019 19:27:17 10 C 25 %
118 18-10-2019 19:37:18 9.7 C 26 %
119 18-10-2019 19:47:17 9.5 C 28 %
120 18-10-2019 19:57:17 9 C 30 %
121 18-10-2019 20:07:18 9.1 C 30 %
122 18-10-2019 20:17:17 9 C 30 %
123 18-10-2019 20:27:17 9 C 31 %
124 18-10-2019 20:37:17 9 C 31 %
125 18-10-2019 20:47:17 9 C 31 %
Sensor: Nr:Datum:Temp:Feuchte:
Aussen-T/F 126 18-10-2019 20:57:17 8.7 C 32 %
127 18-10-2019 21:07:17 8.5 C 32 %
128 18-10-2019 21:17:17 8.5 C 33 %
129 18-10-2019 21:27:17 8.3 C 33 %
130 18-10-2019 21:37:17 8.4 C 35 %
131 18-10-2019 21:47:17 8.5 C 35 %
132 18-10-2019 21:57:17 8.6 C 36 %
133 18-10-2019 22:07:17 8.6 C 35 %
134 18-10-2019 22:17:17 8.7 C 36 %
135 18-10-2019 22:27:17 8.7 C 36 %
136 18-10-2019 22:37:17 8.6 C 35 %
137 18-10-2019 22:47:17 8.7 C 35 %
138 18-10-2019 22:57:17 8.6 C 35 %
139 18-10-2019 23:07:17 8.7 C 36 %
140 18-10-2019 23:17:17 8.6 C 35 %
141 18-10-2019 23:27:17 8.6 C 35 %
142 18-10-2019 23:37:17 8.7 C 35 %
143 18-10-2019 23:47:17 8.6 C 35 %
144 18-10-2019 23:57:17 8.5 C 34 %
145 19-10-2019 00:07:17 8.5 C 35 %
146 19-10-2019 00:17:17 8.5 C 35 %
147 19-10-2019 00:27:17 8.9 C 35 %
148 19-10-2019 00:37:17 9.1 C 31 %
149 19-10-2019 00:47:17 9.1 C 30 %
150 19-10-2019 00:57:17 9 C 30 %
Sensor: Nr:Datum:Temp:Feuchte:
Aussen-T/F 151 19-10-2019 01:07:17 9.3 C 30 %
152 19-10-2019 01:17:17 9.1 C 30 %
153 19-10-2019 01:27:17 9.5 C 28 %
154 19-10-2019 01:37:17 9.3 C 29 %
155 19-10-2019 01:47:17 9 C 30 %
156 19-10-2019 01:57:17 8.8 C 31 %
157 19-10-2019 02:07:17 9 C 32 %
158 19-10-2019 02:17:17 9 C 32 %
159 19-10-2019 02:27:17 9.1 C 32 %
160 19-10-2019 02:37:17 9.2 C 32 %
161 19-10-2019 02:47:17 9.2 C 32 %
162 19-10-2019 02:57:18 9.3 C 32 %
163 19-10-2019 03:07:17 9.3 C 32 %
164 19-10-2019 03:17:18 9.3 C 32 %
165 19-10-2019 03:27:18 9.3 C 32 %
166 19-10-2019 03:37:17 9.3 C 31 %
167 19-10-2019 03:47:17 9.4 C 31 %
168 19-10-2019 03:57:17 9.4 C 31 %
169 19-10-2019 04:07:17 9.4 C 31 %
170 19-10-2019 04:17:18 9.4 C 31 %
171 19-10-2019 04:27:18 9.5 C 32 %
172 19-10-2019 04:37:17 9.7 C 31 %
173 19-10-2019 04:47:18 9.8 C 31 %
174 19-10-2019 04:57:18 10 C 30 %
175 19-10-2019 05:07:17 10.2 C 30 %
Sensor: Nr:Datum:Temp:Feuchte:
Aussen-T/F 176 19-10-2019 05:17:18 10.2 C 30 %
177 19-10-2019 05:27:18 10.5 C 28 %
178 19-10-2019 05:37:17 10.5 C 28 %
179 19-10-2019 05:47:17 10.2 C 28 %
180 19-10-2019 05:57:17 10.2 C 29 %
181 19-10-2019 06:07:17 10.2 C 29 %
182 19-10-2019 06:17:18 10.2 C 30 %
183 19-10-2019 06:27:18 10 C 30 %
184 19-10-2019 06:37:17 9.9 C 32 %
185 19-10-2019 06:47:17 9.8 C 32 %
186 19-10-2019 06:57:17 10 C 31 %
187 19-10-2019 07:07:17 10 C 31 %
188 19-10-2019 07:17:17 10.1 C 31 %
189 19-10-2019 07:27:17 10.1 C 31 %
190 19-10-2019 07:37:17 10.3 C 30 %
191 19-10-2019 07:47:17 10.3 C 30 %
192 19-10-2019 07:57:17 10.3 C 31 %
193 19-10-2019 08:07:18 10.4 C 31 %
194 19-10-2019 08:17:17 10.6 C 31 %
195 19-10-2019 08:27:17 10.8 C 30 %
196 19-10-2019 08:37:17 10.9 C 30 %
197 19-10-2019 08:47:17 11 C 30 %
198 19-10-2019 08:57:17 11.1 C 29 %
199 19-10-2019 09:07:17 11.4 C 28 %
200 19-10-2019 09:17:17 11.7 C 27 %
Sensor: Nr:Datum:Temp:Feuchte:
Aussen-T/F 201 19-10-2019 09:27:17 12 C 26 %
202 19-10-2019 09:37:18 12.1 C 25 %
203 19-10-2019 09:47:17 12.4 C 22 %
204 19-10-2019 09:57:17 12.9 C 23 %
205 19-10-2019 10:07:18 13 C 20 %
206 19-10-2019 10:17:17 13.3 C 20 %
207 19-10-2019 10:27:17 13.3 C 20 %
208 19-10-2019 10:37:18 13.2 C 20 %
209 19-10-2019 10:47:17 12.9 C 23 %
210 19-10-2019 10:57:17 13.1 C 25 %
211 19-10-2019 11:07:18 13.2 C 24 %
212 19-10-2019 11:17:17 13.3 C 25 %
213 19-10-2019 11:27:17 13.4 C 25 %
214 19-10-2019 11:37:17 13.8 C 24 %
215 19-10-2019 11:47:17 14.5 C 20 %
216 19-10-2019 11:57:17 14.9 C 20 %
217 19-10-2019 12:07:17 15.7 C 20 %
218 19-10-2019 12:17:17 15.6 C 20 %
219 19-10-2019 12:27:17 15.8 C 20 %
220 19-10-2019 12:37:17 16.1 C 20 %
221 19-10-2019 12:47:18 16 C 20 %
222 19-10-2019 12:57:18 16.4 C 20 %
223 19-10-2019 13:07:17 16.7 C 20 %
224 19-10-2019 13:17:17 17 C 20 %
225 19-10-2019 13:27:17 16.4 C 20 %
Sensor: Nr:Datum:Temp:Feuchte:
Aussen-T/F 226 19-10-2019 13:37:18 17.1 C 20 %
227 19-10-2019 13:47:17 17.3 C 20 %
228 19-10-2019 13:57:17 17.7 C 20 %
229 19-10-2019 14:07:17 17.7 C 20 %
230 19-10-2019 14:17:17 17.7 C 20 %
231 19-10-2019 14:27:18 17.6 C 20 %
232 19-10-2019 14:37:18 17.8 C 20 %
233 19-10-2019 14:47:18 17.8 C 20 %
234 19-10-2019 14:57:18 17.5 C 20 %
235 19-10-2019 15:07:18 17.5 C 20 %
236 19-10-2019 15:17:17 18.3 C 20 %
237 19-10-2019 15:27:17 17.9 C 20 %
238 19-10-2019 15:37:17 17.7 C 20 %
239 19-10-2019 15:47:17 17.3 C 20 %
240 19-10-2019 15:57:17 17.2 C 20 %
241 19-10-2019 16:07:17 17.3 C 20 %
242 19-10-2019 16:17:17 17.9 C 20 %
243 19-10-2019 16:27:17 17.2 C 20 %
244 19-10-2019 16:37:17 17.4 C 20 %
245 19-10-2019 16:47:17 18.9 C 20 %
246 19-10-2019 16:57:17 18.3 C 20 %
247 19-10-2019 17:07:17 17.3 C 20 %
248 19-10-2019 17:17:17 16.9 C 20 %
249 19-10-2019 17:27:17 16.5 C 20 %
250 19-10-2019 17:37:17 16 C 20 %
Sensor: Nr:Datum:Temp:Feuchte:
Aussen-T/F 251 19-10-2019 17:47:17 15.5 C 20 %
252 19-10-2019 17:57:17 15.1 C 20 %
253 19-10-2019 18:07:17 14.4 C 27 %
254 19-10-2019 18:17:17 14.1 C 30 %
255 19-10-2019 18:27:17 14 C 30 %
256 19-10-2019 18:37:17 13.5 C 32 %
257 19-10-2019 18:47:17 13.4 C 35 %
258 19-10-2019 18:57:17 13.4 C 36 %
259 19-10-2019 19:07:17 13.3 C 36 %
260 19-10-2019 19:17:17 13.3 C 36 %
261 19-10-2019 19:27:17 13.2 C 36 %
262 19-10-2019 19:37:18 13.2 C 36 %
263 19-10-2019 19:47:17 13.2 C 36 %
264 19-10-2019 19:57:17 13.1 C 36 %
265 19-10-2019 20:07:17 13.1 C 36 %
266 19-10-2019 20:17:17 13 C 36 %
267 19-10-2019 20:27:17 12.9 C 36 %
268 19-10-2019 20:37:18 12.9 C 36 %
269 19-10-2019 20:47:17 12.9 C 36 %
270 19-10-2019 20:57:17 13 C 35 %
271 19-10-2019 21:07:18 13 C 35 %
272 19-10-2019 21:17:18 13 C 35 %
273 19-10-2019 21:27:18 13 C 35 %
274 19-10-2019 21:37:18 13 C 34 %
275 19-10-2019 21:47:17 12.9 C 35 %
Sensor: Nr:Datum:Temp:Feuchte:
Aussen-T/F 276 19-10-2019 21:57:17 12.8 C 35 %
277 19-10-2019 22:07:17 12.8 C 36 %
278 19-10-2019 22:17:17 12.7 C 36 %
279 19-10-2019 22:27:17 12.6 C 36 %
280 19-10-2019 22:37:17 12.6 C 36 %
281 19-10-2019 22:47:17 12.5 C 36 %
282 19-10-2019 22:57:17 12.5 C 36 %
283 19-10-2019 23:07:17 12.4 C 36 %
284 19-10-2019 23:17:17 12.4 C 36 %
285 19-10-2019 23:27:17 12.4 C 36 %
286 19-10-2019 23:37:17 12.4 C 36 %
287 19-10-2019 23:47:17 12.3 C 36 %
288 19-10-2019 23:57:17 12.4 C 36 %
289 20-10-2019 00:07:17 12.4 C 36 %
290 20-10-2019 00:17:17 12.4 C 36 %
291 20-10-2019 00:27:17 12.5 C 36 %
292 20-10-2019 00:37:17 12.5 C 36 %
293 20-10-2019 00:47:17 12.5 C 36 %
294 20-10-2019 00:57:17 12.5 C 36 %
295 20-10-2019 01:07:18 12.6 C 36 %
296 20-10-2019 01:17:17 12.6 C 36 %
297 20-10-2019 01:27:17 12.6 C 36 %
298 20-10-2019 01:37:17 12.6 C 36 %
299 20-10-2019 01:47:17 12.6 C 36 %
300 20-10-2019 01:57:17 12.6 C 36 %
Sensor: Nr:Datum:Temp:Feuchte:
Aussen-T/F 301 20-10-2019 02:07:17 12.6 C 36 %
302 20-10-2019 02:17:17 12.6 C 35 %
303 20-10-2019 02:27:17 12.5 C 35 %
304 20-10-2019 02:37:17 12.5 C 35 %
305 20-10-2019 02:47:17 12.5 C 35 %
306 20-10-2019 02:57:17 12.5 C 35 %
307 20-10-2019 03:07:18 12.5 C 35 %
308 20-10-2019 03:17:18 12.5 C 35 %
309 20-10-2019 03:27:18 12.5 C 35 %
310 20-10-2019 03:37:18 12.6 C 35 %
311 20-10-2019 03:47:17 12.6 C 35 %
312 20-10-2019 03:57:17 12.6 C 35 %
313 20-10-2019 04:07:17 12.6 C 35 %
314 20-10-2019 04:17:17 12.6 C 35 %
315 20-10-2019 04:27:17 12.6 C 35 %
316 20-10-2019 04:37:17 12.6 C 35 %
317 20-10-2019 04:47:17 12.5 C 35 %
318 20-10-2019 04:57:17 12.5 C 35 %
319 20-10-2019 05:07:18 12.5 C 35 %
320 20-10-2019 05:17:17 12.4 C 35 %
321 20-10-2019 05:27:17 12.3 C 35 %
322 20-10-2019 05:37:17 12.3 C 35 %
323 20-10-2019 05:47:17 12.3 C 35 %
324 20-10-2019 05:57:17 12.2 C 35 %
325 20-10-2019 06:07:17 12.2 C 35 %
Sensor: Nr:Datum:Temp:Feuchte:
Aussen-T/F 326 20-10-2019 06:17:17 12.1 C 35 %
327 20-10-2019 06:27:17 12 C 35 %
328 20-10-2019 06:37:18 12 C 35 %
329 20-10-2019 06:47:17 12 C 35 %
330 20-10-2019 06:57:17 12 C 35 %
331 20-10-2019 07:07:17 12 C 35 %
332 20-10-2019 07:17:17 12 C 35 %
333 20-10-2019 07:27:17 12.1 C 35 %
334 20-10-2019 07:37:17 12.1 C 35 %
335 20-10-2019 07:47:17 12.1 C 35 %
336 20-10-2019 07:57:17 12 C 35 %
337 20-10-2019 08:07:17 12 C 35 %
338 20-10-2019 08:17:17 12 C 35 %
339 20-10-2019 08:27:17 12.1 C 35 %
340 20-10-2019 08:37:18 12.2 C 35 %
341 20-10-2019 08:47:17 12.2 C 35 %
342 20-10-2019 08:57:17 12.3 C 35 %
343 20-10-2019 09:07:17 12.5 C 35 %
344 20-10-2019 09:17:17 12.4 C 35 %
345 20-10-2019 09:27:17 12.4 C 35 %
346 20-10-2019 09:37:17 12.5 C 35 %
347 20-10-2019 09:47:17 12.4 C 35 %
348 20-10-2019 09:57:17 12.4 C 35 %
349 20-10-2019 10:07:17 12.5 C 35 %
350 20-10-2019 10:17:17 12.7 C 35 %
Sensor: Nr:Datum:Temp:Feuchte:
Aussen-T/F 351 20-10-2019 10:27:17 12.6 C 35 %
352 20-10-2019 10:37:17 12.7 C 35 %
353 20-10-2019 10:47:17 12.7 C 35 %
354 20-10-2019 10:57:17 12.6 C 34 %
355 20-10-2019 11:07:18 12.8 C 35 %
356 20-10-2019 11:17:17 12.8 C 35 %
357 20-10-2019 11:27:17 12.8 C 34 %
358 20-10-2019 11:37:17 12.9 C 34 %
359 20-10-2019 11:47:17 13 C 33 %
360 20-10-2019 11:57:17 13.1 C 33 %
361 20-10-2019 12:07:18 13.2 C 33 %
362 20-10-2019 12:17:17 13.2 C 33 %
363 20-10-2019 12:27:17 13.4 C 34 %
364 20-10-2019 12:37:17 13.4 C 34 %
365 20-10-2019 12:47:17 13.6 C 33 %
366 20-10-2019 12:57:17 13.5 C 33 %
367 20-10-2019 13:07:17 13.5 C 33 %
368 20-10-2019 13:17:17 13.5 C 33 %
369 20-10-2019 13:27:17 13.5 C 33 %
370 20-10-2019 13:37:17 13.5 C 34 %
371 20-10-2019 13:47:17 13.6 C 35 %
372 20-10-2019 13:57:17 13.9 C 33 %
373 20-10-2019 14:07:17 13.8 C 33 %
374 20-10-2019 14:17:17 13.7 C 33 %
375 20-10-2019 14:27:17 13.7 C 33 %
Sensor: Nr:Datum:Temp:Feuchte:
Aussen-T/F 376 20-10-2019 14:37:17 13.9 C 34 %
377 20-10-2019 14:47:17 14.1 C 34 %
378 20-10-2019 14:57:17 14.1 C 33 %
379 20-10-2019 15:07:17 14 C 33 %
380 20-10-2019 15:17:17 14 C 35 %
381 20-10-2019 15:27:17 14 C 35 %
382 20-10-2019 15:37:17 14.1 C 35 %
383 20-10-2019 15:47:17 14.1 C 35 %
384 20-10-2019 15:57:17 14.2 C 35 %
385 20-10-2019 16:07:17 14.4 C 35 %
386 20-10-2019 16:17:17 14.5 C 34 %
387 20-10-2019 16:27:17 14.4 C 34 %
388 20-10-2019 16:37:18 14.5 C 34 %
389 20-10-2019 16:47:17 14.5 C 34 %
390 20-10-2019 16:57:17 14.5 C 34 %
391 20-10-2019 17:07:17 14.5 C 34 %
392 20-10-2019 17:17:17 14.4 C 34 %
393 20-10-2019 17:27:17 14.2 C 35 %
394 20-10-2019 17:37:18 14.1 C 35 %
395 20-10-2019 17:47:17 14.1 C 35 %
396 20-10-2019 17:57:17 14 C 35 %
397 20-10-2019 18:07:17 14 C 35 %
398 20-10-2019 18:17:17 13.9 C 35 %
399 20-10-2019 18:27:17 13.8 C 35 %
400 20-10-2019 18:37:17 13.8 C 35 %
Sensor: Nr:Datum:Temp:Feuchte:
Aussen-T/F 401 20-10-2019 18:47:17 13.8 C 35 %
402 20-10-2019 18:57:17 13.7 C 35 %
403 20-10-2019 19:07:17 13.6 C 35 %
404 20-10-2019 19:17:17 13.6 C 35 %
405 20-10-2019 19:27:17 13.6 C 35 %
406 20-10-2019 19:37:17 13.5 C 35 %
407 20-10-2019 19:47:17 13.6 C 35 %
408 20-10-2019 19:57:17 13.7 C 35 %
409 20-10-2019 20:07:18 13.6 C 35 %
410 20-10-2019 20:17:17 13.6 C 35 %
411 20-10-2019 20:27:17 13.4 C 35 %
412 20-10-2019 20:37:17 13 C 35 %
413 20-10-2019 20:47:17 13.4 C 35 %
414 20-10-2019 20:57:17 13.4 C 35 %
415 20-10-2019 21:07:18 13.5 C 35 %
416 20-10-2019 21:17:17 13.6 C 35 %
417 20-10-2019 21:27:17 13.5 C 35 %
418 20-10-2019 21:37:17 13.5 C 35 %
419 20-10-2019 21:47:17 13.5 C 35 %
420 20-10-2019 21:57:17 13.5 C 35 %
421 20-10-2019 22:07:17 13.5 C 35 %
422 20-10-2019 22:17:17 13.5 C 35 %
423 20-10-2019 22:27:17 13.4 C 35 %
424 20-10-2019 22:37:17 13.4 C 35 %
425 20-10-2019 22:47:17 13.4 C 35 %
Sensor: Nr:Datum:Temp:Feuchte:
Aussen-T/F 426 20-10-2019 22:57:17 13.3 C 35 %
427 20-10-2019 23:07:17 13.4 C 35 %
428 20-10-2019 23:17:17 13.4 C 35 %
429 20-10-2019 23:27:17 13.4 C 35 %
430 20-10-2019 23:37:17 13.5 C 35 %
431 20-10-2019 23:47:17 13.6 C 35 %
432 20-10-2019 23:57:17 13.6 C 35 %
433 21-10-2019 00:07:17 13.5 C 35 %
434 21-10-2019 00:17:17 13.4 C 35 %
435 21-10-2019 00:27:17 13.8 C 35 %
436 21-10-2019 00:37:17 13.8 C 35 %
437 21-10-2019 00:47:17 14 C 35 %
438 21-10-2019 00:57:17 14 C 34 %
439 21-10-2019 01:07:17 13.7 C 34 %
440 21-10-2019 01:17:17 13.6 C 34 %
441 21-10-2019 01:27:17 13.5 C 34 %
442 21-10-2019 01:37:17 13.5 C 34 %
443 21-10-2019 01:47:17 13.3 C 34 %
444 21-10-2019 01:57:17 13.3 C 34 %
445 21-10-2019 02:07:18 13.2 C 34 %
446 21-10-2019 02:17:17 13 C 34 %
447 21-10-2019 02:27:17 12.9 C 35 %
448 21-10-2019 02:37:17 13.1 C 34 %
449 21-10-2019 02:47:17 13.1 C 35 %
450 21-10-2019 02:57:17 13 C 34 %
Sensor: Nr:Datum:Temp:Feuchte:
Aussen-T/F 451 21-10-2019 03:07:18 13.2 C 35 %
452 21-10-2019 03:17:17 13.1 C 35 %
453 21-10-2019 03:27:17 13 C 35 %
454 21-10-2019 03:37:17 13 C 34 %
455 21-10-2019 03:47:17 13 C 34 %
456 21-10-2019 03:57:17 12.8 C 35 %
457 21-10-2019 04:07:17 12.8 C 35 %
458 21-10-2019 04:17:17 12.6 C 35 %
459 21-10-2019 04:27:17 12.2 C 34 %
460 21-10-2019 04:37:17 12 C 34 %
461 21-10-2019 04:47:17 12.2 C 35 %
462 21-10-2019 04:57:17 12.3 C 35 %
463 21-10-2019 05:07:18 12.4 C 35 %
464 21-10-2019 05:17:18 12.8 C 35 %
465 21-10-2019 05:27:18 13 C 35 %
466 21-10-2019 05:37:17 13 C 35 %
467 21-10-2019 05:47:17 13 C 35 %
468 21-10-2019 05:57:17 12.8 C 35 %
469 21-10-2019 06:07:17 12.9 C 35 %
470 21-10-2019 06:17:17 12.9 C 35 %
471 21-10-2019 06:27:17 13.1 C 35 %
472 21-10-2019 06:37:17 13.2 C 35 %
473 21-10-2019 06:47:17 13.1 C 35 %
474 21-10-2019 06:57:17 13 C 35 %
475 21-10-2019 07:07:17 12.7 C 35 %
Sensor: Nr:Datum:Temp:Feuchte:
Aussen-T/F 476 21-10-2019 07:17:17 12.5 C 35 %
477 21-10-2019 07:27:17 12.4 C 34 %
478 21-10-2019 07:37:18 12.3 C 35 %
479 21-10-2019 07:47:17 12.2 C 35 %
480 21-10-2019 07:57:17 12.1 C 35 %
481 21-10-2019 08:07:17 12 C 34 %
482 21-10-2019 08:17:17 12 C 34 %
483 21-10-2019 08:27:17 11.7 C 35 %
484 21-10-2019 08:37:17 12 C 35 %
485 21-10-2019 08:47:17 12.1 C 35 %
486 21-10-2019 08:57:17 12.2 C 35 %
487 21-10-2019 09:07:18 12.2 C 35 %
488 21-10-2019 09:17:17 12.2 C 35 %
489 21-10-2019 09:27:17 12.1 C 35 %
490 21-10-2019 09:37:17 12.3 C 35 %
491 21-10-2019 09:47:17 12.1 C 35 %
492 21-10-2019 09:57:17 12.2 C 35 %
493 21-10-2019 10:07:17 12.2 C 35 %
494 21-10-2019 10:17:17 12.5 C 35 %
495 21-10-2019 10:27:17 13.1 C 38 %
496 21-10-2019 10:37:17 13.5 C 39 %
497 21-10-2019 10:47:17 13.8 C 39 %
498 21-10-2019 10:57:17 13.3 C 36 %
499 21-10-2019 11:07:18 13.4 C 35 %
500 21-10-2019 11:17:18 13.3 C 33 %
Sensor: Nr:Datum:Temp:Feuchte:
Aussen-T/F 501 21-10-2019 11:27:18 13.3 C 33 %
502 21-10-2019 11:37:18 13.8 C 32 %
503 21-10-2019 11:47:17 13.7 C 32 %
504 21-10-2019 11:57:17 14.2 C 31 %
505 21-10-2019 12:07:17 14.1 C 30 %
506 21-10-2019 12:17:17 14.6 C 30 %
507 21-10-2019 12:27:17 14.9 C 27 %
508 21-10-2019 12:37:17 15.4 C 24 %
509 21-10-2019 12:47:17 15.9 C 20 %
510 21-10-2019 12:57:17 16.1 C 20 %
511 21-10-2019 13:07:18 16.5 C 20 %
512 21-10-2019 13:17:18 17.2 C 20 %
513 21-10-2019 13:27:18 17.5 C 20 %
514 21-10-2019 13:37:18 18.2 C 20 %
515 21-10-2019 13:47:17 18.1 C 20 %
516 21-10-2019 13:57:17 17.5 C 20 %
517 21-10-2019 14:07:17 17.1 C 20 %
518 21-10-2019 14:17:17 16.8 C 20 %
519 21-10-2019 14:27:17 17.1 C 20 %
520 21-10-2019 14:37:17 17 C 20 %
521 21-10-2019 14:47:17 16.6 C 20 %
522 21-10-2019 14:57:17 16.6 C 20 %
523 21-10-2019 15:07:18 16.6 C 20 %
524 21-10-2019 15:17:17 16.2 C 20 %
525 21-10-2019 15:27:17 16.5 C 20 %
Sensor: Nr:Datum:Temp:Feuchte:
Aussen-T/F 526 21-10-2019 15:37:17 16.6 C 20 %
527 21-10-2019 15:47:17 17.1 C 20 %
528 21-10-2019 15:57:17 17.1 C 20 %
529 21-10-2019 16:07:17 16.4 C 20 %
530 21-10-2019 16:17:17 15.9 C 20 %
531 21-10-2019 16:27:17 15.7 C 20 %
532 21-10-2019 16:37:17 15.4 C 20 %
533 21-10-2019 16:47:17 15.2 C 20 %
534 21-10-2019 16:57:17 15.2 C 20 %
535 21-10-2019 17:07:18 14.7 C 20 %
536 21-10-2019 17:17:17 14.7 C 20 %
537 21-10-2019 17:27:17 14.8 C 20 %
538 21-10-2019 17:37:17 14.1 C 20 %
539 21-10-2019 17:47:17 13.8 C 20 %
540 21-10-2019 17:57:17 13.9 C 20 %
541 21-10-2019 18:07:17 14 C 20 %
542 21-10-2019 18:17:17 13.4 C 20 %
543 21-10-2019 18:27:17 13.1 C 20 %
544 21-10-2019 18:37:17 12.8 C 20 %
545 21-10-2019 18:47:17 12.6 C 20 %
546 21-10-2019 18:57:17 12.4 C 21 %
547 21-10-2019 19:07:18 12.2 C 24 %
548 21-10-2019 19:17:18 11.9 C 25 %
549 21-10-2019 19:27:18 11.8 C 25 %
550 21-10-2019 19:37:18 11.8 C 25 %
Sensor: Nr:Datum:Temp:Feuchte:
Aussen-T/F 551 21-10-2019 19:47:17 11.8 C 25 %
552 21-10-2019 19:57:17 11.5 C 25 %
553 21-10-2019 20:07:17 11.2 C 26 %
554 21-10-2019 20:17:17 11.1 C 28 %
555 21-10-2019 20:27:17 11 C 29 %
556 21-10-2019 20:37:17 10.9 C 29 %
557 21-10-2019 20:47:17 10.9 C 30 %
558 21-10-2019 20:57:17 11 C 28 %
559 21-10-2019 21:07:18 11 C 28 %
560 21-10-2019 21:17:17 10.9 C 29 %
561 21-10-2019 21:27:17 11 C 28 %
562 21-10-2019 21:37:17 11 C 27 %
563 21-10-2019 21:47:17 10.7 C 30 %
564 21-10-2019 21:57:17 10.8 C 30 %
565 21-10-2019 22:07:17 10.9 C 31 %
566 21-10-2019 22:17:17 10.9 C 30 %
567 21-10-2019 22:27:17 11 C 28 %
568 21-10-2019 22:37:17 11 C 28 %
569 21-10-2019 22:47:17 11.1 C 26 %
570 21-10-2019 22:57:17 11.1 C 28 %
571 21-10-2019 23:07:18 11.1 C 27 %
572 21-10-2019 23:17:18 11 C 27 %
573 21-10-2019 23:27:18 10.6 C 28 %
574 21-10-2019 23:37:18 10.2 C 30 %
575 21-10-2019 23:47:17 10.4 C 29 %
Sensor: Nr:Datum:Temp:Feuchte:
Aussen-T/F 576 21-10-2019 23:57:18 10.2 C 30 %
577 22-10-2019 00:07:17 10.2 C 30 %
578 22-10-2019 00:17:17 10.2 C 31 %
579 22-10-2019 00:27:17 10.4 C 31 %
580 22-10-2019 00:37:17 10.3 C 31 %
581 22-10-2019 00:47:17 10.4 C 30 %
582 22-10-2019 00:57:17 10.4 C 31 %
583 22-10-2019 01:07:17 10.5 C 31 %
584 22-10-2019 01:17:17 10.6 C 31 %
585 22-10-2019 01:27:17 10.6 C 30 %
586 22-10-2019 01:37:17 10.5 C 31 %
587 22-10-2019 01:47:17 10.5 C 31 %
588 22-10-2019 01:57:17 10.7 C 30 %
589 22-10-2019 02:07:18 10.5 C 30 %
590 22-10-2019 02:17:17 10.4 C 30 %
591 22-10-2019 02:27:18 10.5 C 29 %
592 22-10-2019 02:37:18 10.5 C 29 %
593 22-10-2019 02:47:17 10.4 C 29 %
594 22-10-2019 02:57:17 10.4 C 29 %
595 22-10-2019 03:07:17 10.5 C 30 %
596 22-10-2019 03:17:17 10.4 C 31 %
597 22-10-2019 03:27:17 10.4 C 30 %
598 22-10-2019 03:37:17 10.5 C 29 %
599 22-10-2019 03:47:17 10.4 C 30 %
600 22-10-2019 03:57:17 10.3 C 31 %
Sensor: Nr:Datum:Temp:Feuchte:
Aussen-T/F 601 22-10-2019 04:07:18 10.3 C 31 %
602 22-10-2019 04:17:17 10.2 C 31 %
603 22-10-2019 04:27:17 9.8 C 31 %
604 22-10-2019 04:37:18 9.7 C 32 %
605 22-10-2019 04:47:17 9.7 C 32 %
606 22-10-2019 04:57:18 9.6 C 32 %
607 22-10-2019 05:07:17 9.3 C 32 %
608 22-10-2019 05:17:17 9.1 C 33 %
609 22-10-2019 05:27:17 9 C 35 %
610 22-10-2019 05:37:17 9.2 C 36 %
611 22-10-2019 05:47:17 9.5 C 36 %
612 22-10-2019 05:57:17 9.6 C 35 %
613 22-10-2019 06:07:18 9.6 C 35 %
614 22-10-2019 06:17:17 9.5 C 34 %
615 22-10-2019 06:27:17 9.5 C 35 %
616 22-10-2019 06:37:17 9.6 C 33 %
617 22-10-2019 06:47:17 9.6 C 32 %
618 22-10-2019 06:57:17 9.6 C 33 %
619 22-10-2019 07:07:17 9.6 C 34 %
620 22-10-2019 07:17:17 9.6 C 34 %
621 22-10-2019 07:27:17 9.2 C 33 %
622 22-10-2019 07:37:17 9 C 34 %
623 22-10-2019 07:47:17 9 C 35 %
624 22-10-2019 07:57:17 9.3 C 34 %
625 22-10-2019 08:07:17 9.4 C 32 %
Sensor: Nr:Datum:Temp:Feuchte:
Aussen-T/F 626 22-10-2019 08:17:17 9.5 C 32 %
627 22-10-2019 08:27:17 9.6 C 33 %
628 22-10-2019 08:37:17 9.6 C 35 %
629 22-10-2019 08:47:17 9.7 C 35 %
630 22-10-2019 08:57:17 9.8 C 34 %
631 22-10-2019 09:07:18 9.9 C 34 %
632 22-10-2019 09:17:17 10.1 C 30 %
633 22-10-2019 09:27:17 10.5 C 25 %
634 22-10-2019 09:37:17 10.6 C 22 %
635 22-10-2019 09:47:17 10.8 C 22 %
636 22-10-2019 09:57:17 11 C 21 %
637 22-10-2019 10:07:17 11.1 C 20 %
638 22-10-2019 10:17:17 11.7 C 20 %
639 22-10-2019 10:27:17 11.9 C 20 %
640 22-10-2019 10:37:18 12 C 20 %
641 22-10-2019 10:47:17 12.5 C 20 %
642 22-10-2019 10:57:17 12.4 C 20 %
643 22-10-2019 11:07:17 13.1 C 20 %
644 22-10-2019 11:17:17 12.9 C 20 %
645 22-10-2019 11:27:17 13.3 C 20 %
646 22-10-2019 11:37:17 13.5 C 20 %
647 22-10-2019 11:47:17 13.4 C 20 %
648 22-10-2019 11:57:17 13.8 C 20 %
649 22-10-2019 12:07:17 13.4 C 20 %
650 22-10-2019 12:17:17 13.6 C 20 %
Sensor: Nr:Datum:Temp:Feuchte:
Aussen-T/F 651 22-10-2019 12:27:17 13.8 C 20 %
652 22-10-2019 12:37:17 14 C 20 %
653 22-10-2019 12:47:17 14.5 C 20 %
654 22-10-2019 12:57:17 14.6 C 20 %
655 22-10-2019 13:07:17 14.5 C 20 %
656 22-10-2019 13:17:17 14.3 C 20 %
657 22-10-2019 13:27:18 15.1 C 20 %
658 22-10-2019 13:37:18 18.5 C 20 %
659 22-10-2019 13:47:18 18.3 C 20 %
660 22-10-2019 13:57:18 20.2 C 20 %
661 22-10-2019 14:07:18 19 C 20 %
662 22-10-2019 14:17:18 18.3 C 20 %
663 22-10-2019 14:27:18 15.6 C 20 %
664 22-10-2019 14:37:17 15.1 C 20 %
665 22-10-2019 14:47:17 14.8 C 20 %
666 22-10-2019 14:57:17 14.5 C 20 %
667 22-10-2019 15:07:17 14.2 C 20 %
668 22-10-2019 15:17:17 14.3 C 20 %
669 22-10-2019 15:27:17 14.7 C 20 %
670 22-10-2019 15:37:17 14 C 20 %
671 22-10-2019 15:47:17 14.1 C 20 %
672 22-10-2019 15:57:17 13.7 C 20 %
673 22-10-2019 16:07:18 14.7 C 20 %
674 22-10-2019 16:17:17 14.1 C 20 %
675 22-10-2019 16:27:17 13.7 C 20 %
Sensor: Nr:Datum:Temp:Feuchte:
Aussen-T/F 676 22-10-2019 16:37:18 15 C 20 %
677 22-10-2019 16:47:17 13.9 C 20 %
678 22-10-2019 16:57:17 13.7 C 20 %
679 22-10-2019 17:07:17 16.4 C 20 %
680 22-10-2019 17:17:17 16.8 C 20 %
681 22-10-2019 17:27:17 16.1 C 20 %
682 22-10-2019 17:37:18 14.4 C 20 %
683 22-10-2019 17:47:17 13.3 C 20 %
684 22-10-2019 17:57:17 12.5 C 20 %
685 22-10-2019 18:07:17 12.1 C 20 %
686 22-10-2019 18:17:17 11.8 C 20 %
687 22-10-2019 18:27:17 11.4 C 20 %
688 22-10-2019 18:37:17 11.4 C 23 %
689 22-10-2019 18:47:17 11.1 C 25 %
690 22-10-2019 18:57:17 11.2 C 26 %
691 22-10-2019 19:07:18 11 C 26 %
692 22-10-2019 19:17:17 10.8 C 28 %
693 22-10-2019 19:27:17 10.6 C 30 %
694 22-10-2019 19:37:18 10.3 C 32 %
695 22-10-2019 19:47:17 10.3 C 33 %
696 22-10-2019 19:57:17 10.4 C 33 %
697 22-10-2019 20:07:17 10 C 32 %
698 22-10-2019 20:17:17 10 C 32 %
699 22-10-2019 20:27:17 9.5 C 35 %
700 22-10-2019 20:37:18 9.6 C 35 %
Sensor: Nr:Datum:Temp:Feuchte:
Aussen-T/F 701 22-10-2019 20:47:17 9.5 C 35 %
702 22-10-2019 20:57:17 9.5 C 36 %
703 22-10-2019 21:07:18 9.4 C 36 %
704 22-10-2019 21:17:17 9 C 35 %
705 22-10-2019 21:27:17 9.1 C 36 %
706 22-10-2019 21:37:18 9.1 C 36 %
707 22-10-2019 21:47:17 9.1 C 36 %
708 22-10-2019 21:57:17 9.4 C 37 %
709 22-10-2019 22:07:17 9.6 C 38 %
710 22-10-2019 22:17:17 9.6 C 38 %
711 22-10-2019 22:27:17 9.5 C 36 %
712 22-10-2019 22:37:17 9.4 C 36 %
713 22-10-2019 22:47:17 9.6 C 37 %
714 22-10-2019 22:57:17 9.4 C 36 %
715 22-10-2019 23:07:17 9.4 C 36 %
716 22-10-2019 23:17:18 9.4 C 36 %
717 22-10-2019 23:27:18 9.1 C 35 %
718 22-10-2019 23:37:17 8.7 C 36 %
719 22-10-2019 23:47:17 8.7 C 36 %
720 22-10-2019 23:57:18 8.4 C 36 %
721 23-10-2019 00:07:17 8.2 C 36 %
722 23-10-2019 00:17:18 8.1 C 36 %
723 23-10-2019 00:27:18 8 C 36 %
724 23-10-2019 00:37:17 7.9 C 37 %
725 23-10-2019 00:47:17 7.8 C 37 %
Sensor: Nr:Datum:Temp:Feuchte:
Aussen-T/F 726 23-10-2019 00:57:17 7.8 C 37 %
727 23-10-2019 01:07:17 7.9 C 37 %
728 23-10-2019 01:17:17 7.8 C 38 %
729 23-10-2019 01:27:17 7.6 C 37 %
730 23-10-2019 01:37:17 7.6 C 37 %
731 23-10-2019 01:47:17 7.6 C 37 %
732 23-10-2019 01:57:18 7.5 C 37 %
733 23-10-2019 02:07:17 7.4 C 37 %
734 23-10-2019 02:17:18 7.3 C 37 %
735 23-10-2019 02:27:18 7.4 C 38 %
736 23-10-2019 02:37:17 7.3 C 37 %
737 23-10-2019 02:47:17 7.1 C 37 %
738 23-10-2019 02:57:17 7.4 C 38 %
739 23-10-2019 03:07:17 7.3 C 37 %
740 23-10-2019 03:17:17 7.1 C 37 %
741 23-10-2019 03:27:17 7.1 C 37 %
742 23-10-2019 03:37:17 7.1 C 37 %
743 23-10-2019 03:47:17 7.3 C 37 %
744 23-10-2019 03:57:17 7.4 C 38 %
745 23-10-2019 04:07:17 7.3 C 37 %
746 23-10-2019 04:17:17 6.9 C 37 %
747 23-10-2019 04:27:17 6.9 C 38 %
748 23-10-2019 04:37:17 6.8 C 38 %
749 23-10-2019 04:47:17 6.7 C 37 %
750 23-10-2019 04:57:17 7.2 C 38 %
Sensor: Nr:Datum:Temp:Feuchte:
Aussen-T/F 751 23-10-2019 05:07:17 7.8 C 38 %
752 23-10-2019 05:17:17 8 C 37 %
753 23-10-2019 05:27:17 7.9 C 37 %
754 23-10-2019 05:37:18 7.9 C 37 %
755 23-10-2019 05:47:17 7.4 C 37 %
756 23-10-2019 05:57:17 7.8 C 37 %
757 23-10-2019 06:07:18 7.7 C 37 %
758 23-10-2019 06:17:17 7.4 C 37 %
759 23-10-2019 06:27:18 7.3 C 37 %
760 23-10-2019 06:37:17 7.3 C 37 %
761 23-10-2019 06:47:17 7.8 C 37 %
762 23-10-2019 06:57:18 7.7 C 37 %
763 23-10-2019 07:07:17 7.5 C 37 %
764 23-10-2019 07:17:17 7.3 C 37 %
765 23-10-2019 07:27:18 7.3 C 37 %
766 23-10-2019 07:37:17 7 C 36 %
767 23-10-2019 07:47:17 7 C 37 %
768 23-10-2019 07:57:17 6.7 C 37 %
769 23-10-2019 08:07:17 6.8 C 37 %
770 23-10-2019 08:17:17 7 C 37 %
771 23-10-2019 08:27:17 7.5 C 37 %
772 23-10-2019 08:37:17 7.6 C 37 %
773 23-10-2019 08:47:17 7.7 C 37 %
774 23-10-2019 08:57:17 7.7 C 37 %
775 23-10-2019 09:07:18 7.7 C 37 %
Sensor: Nr:Datum:Temp:Feuchte:
Aussen-T/F 776 23-10-2019 09:17:17 8.3 C 37 %
777 23-10-2019 09:27:17 8.3 C 37 %
778 23-10-2019 09:37:17 8.6 C 37 %
779 23-10-2019 09:47:17 8.5 C 37 %
780 23-10-2019 09:57:17 8.8 C 37 %
781 23-10-2019 10:07:17 8.9 C 37 %
782 23-10-2019 10:17:17 9.1 C 36 %
783 23-10-2019 10:27:17 9.2 C 36 %
784 23-10-2019 10:37:17 9.5 C 36 %
785 23-10-2019 10:47:17 10.1 C 36 %
786 23-10-2019 10:57:17 10.1 C 36 %
787 23-10-2019 11:07:17 10.5 C 34 %
788 23-10-2019 11:17:17 10.8 C 34 %
789 23-10-2019 11:27:17 11.2 C 32 %
790 23-10-2019 11:37:17 11.4 C 28 %
791 23-10-2019 11:47:17 11.6 C 27 %
792 23-10-2019 11:57:17 11.9 C 26 %
793 23-10-2019 12:07:17 12 C 25 %
794 23-10-2019 12:17:17 12.2 C 25 %
795 23-10-2019 12:27:17 12.2 C 25 %
796 23-10-2019 12:37:17 12.3 C 25 %
797 23-10-2019 12:47:18 12.6 C 24 %
798 23-10-2019 12:57:18 12.7 C 23 %
799 23-10-2019 13:07:17 13 C 21 %
800 23-10-2019 13:17:17 13.1 C 20 %
Sensor: Nr:Datum:Temp:Feuchte:
Aussen-T/F 801 23-10-2019 13:27:17 13.3 C 21 %
802 23-10-2019 13:37:17 13.6 C 20 %
803 23-10-2019 13:47:17 13.9 C 20 %
804 23-10-2019 13:57:18 13.9 C 20 %
805 23-10-2019 14:07:17 14.2 C 20 %
806 23-10-2019 14:17:17 14.3 C 20 %
807 23-10-2019 14:27:17 14.2 C 20 %
808 23-10-2019 14:37:17 14.5 C 20 %
809 23-10-2019 14:47:18 14.2 C 20 %
810 23-10-2019 14:57:18 14.4 C 20 %
811 23-10-2019 15:07:17 14.5 C 20 %
812 23-10-2019 15:17:17 14.4 C 20 %
813 23-10-2019 15:27:17 14.6 C 20 %
814 23-10-2019 15:37:17 14.7 C 20 %
815 23-10-2019 15:47:17 14.7 C 20 %
816 23-10-2019 15:57:17 14.7 C 20 %
817 23-10-2019 16:07:17 14.9 C 20 %
818 23-10-2019 16:17:17 14.9 C 20 %
819 23-10-2019 16:27:17 15.1 C 20 %
820 23-10-2019 16:37:17 15.1 C 20 %
821 23-10-2019 16:47:17 15 C 20 %
822 23-10-2019 16:57:17 15 C 20 %
823 23-10-2019 17:07:18 14.7 C 22 %
824 23-10-2019 17:17:17 14.4 C 23 %
825 23-10-2019 17:27:17 14.4 C 23 %
Sensor: Nr:Datum:Temp:Feuchte:
Aussen-T/F 826 23-10-2019 17:37:17 14.4 C 23 %
827 23-10-2019 17:47:17 14.1 C 24 %
828 23-10-2019 17:57:17 13.9 C 25 %
829 23-10-2019 18:07:17 13.7 C 26 %
830 23-10-2019 18:17:17 13.5 C 27 %
831 23-10-2019 18:27:17 13.3 C 27 %
832 23-10-2019 18:37:18 13.3 C 28 %
833 23-10-2019 18:47:17 13.3 C 28 %
834 23-10-2019 18:57:17 12.8 C 30 %
835 23-10-2019 19:07:17 12.8 C 30 %
836 23-10-2019 19:17:17 12.8 C 30 %
837 23-10-2019 19:27:17 12.8 C 30 %
838 23-10-2019 19:37:17 12.8 C 30 %
839 23-10-2019 19:47:17 12.8 C 30 %
840 23-10-2019 19:57:17 12.8 C 30 %
841 23-10-2019 20:07:17 12.8 C 30 %
842 23-10-2019 20:17:17 12.8 C 30 %
843 23-10-2019 20:27:17 12.8 C 30 %
844 23-10-2019 20:37:17 12.8 C 30 %
845 23-10-2019 20:47:17 12.8 C 30 %
846 23-10-2019 20:57:17 12.8 C 30 %
847 23-10-2019 21:07:17 12.7 C 30 %
848 23-10-2019 21:17:17 12.8 C 30 %
849 23-10-2019 21:27:17 12.8 C 30 %
850 23-10-2019 21:37:17 12.8 C 30 %
Sensor: Nr:Datum:Temp:Feuchte:
Aussen-T/F 851 23-10-2019 21:47:17 12.7 C 30 %
852 23-10-2019 21:57:18 12.7 C 30 %
853 23-10-2019 22:07:17 12.5 C 30 %
854 23-10-2019 22:17:17 12.4 C 32 %
855 23-10-2019 22:27:17 12.5 C 32 %
856 23-10-2019 22:37:17 12.5 C 31 %
857 23-10-2019 22:47:18 12.4 C 32 %
858 23-10-2019 22:57:18 12.4 C 32 %
859 23-10-2019 23:07:17 12.4 C 33 %
860 23-10-2019 23:17:17 12.4 C 32 %
861 23-10-2019 23:27:17 12.3 C 32 %
862 23-10-2019 23:37:17 12.2 C 32 %
863 23-10-2019 23:47:17 12 C 33 %
864 23-10-2019 23:57:17 12 C 33 %
865 24-10-2019 00:07:18 11.9 C 34 %
866 24-10-2019 00:17:17 11.8 C 35 %
867 24-10-2019 00:27:17 11.7 C 35 %
868 24-10-2019 00:37:17 11.7 C 35 %
869 24-10-2019 00:47:17 11.5 C 36 %
870 24-10-2019 00:57:17 11.4 C 36 %
871 24-10-2019 01:07:18 11.4 C 36 %
872 24-10-2019 01:17:17 11.4 C 36 %
873 24-10-2019 01:27:17 11.4 C 36 %
874 24-10-2019 01:37:17 11.7 C 37 %
875 24-10-2019 01:47:17 11.9 C 37 %
Sensor: Nr:Datum:Temp:Feuchte:
Aussen-T/F 876 24-10-2019 01:57:17 11.9 C 37 %
877 24-10-2019 02:07:17 12 C 35 %
878 24-10-2019 02:17:17 12 C 35 %
879 24-10-2019 02:27:17 11.4 C 35 %
880 24-10-2019 02:37:17 11.4 C 36 %
881 24-10-2019 02:47:17 11.4 C 36 %
882 24-10-2019 02:57:17 11.4 C 36 %
883 24-10-2019 03:07:17 11.3 C 36 %
884 24-10-2019 03:17:17 11.1 C 36 %
885 24-10-2019 03:27:17 11 C 36 %
886 24-10-2019 03:37:17 11 C 36 %
887 24-10-2019 03:47:18 10.8 C 37 %
888 24-10-2019 03:57:18 10.8 C 37 %
889 24-10-2019 04:07:17 10.6 C 37 %
890 24-10-2019 04:17:17 10.4 C 37 %
891 24-10-2019 04:27:17 10.8 C 37 %
892 24-10-2019 04:37:17 10.9 C 37 %
893 24-10-2019 04:47:18 11 C 37 %
894 24-10-2019 04:57:18 11 C 37 %
895 24-10-2019 05:07:17 11.2 C 36 %
896 24-10-2019 05:17:17 11.3 C 36 %
897 24-10-2019 05:27:17 11.3 C 36 %
898 24-10-2019 05:37:18 11.4 C 36 %
899 24-10-2019 05:47:17 11.4 C 36 %
900 24-10-2019 05:57:17 11.3 C 36 %
Sensor: Nr:Datum:Temp:Feuchte:
Aussen-T/F 901 24-10-2019 06:07:18 11.3 C 36 %
902 24-10-2019 06:17:17 11 C 36 %
903 24-10-2019 06:27:17 11.2 C 36 %
904 24-10-2019 06:37:17 11.5 C 36 %
905 24-10-2019 06:47:17 11.8 C 36 %
906 24-10-2019 06:57:17 11.8 C 36 %
907 24-10-2019 07:07:17 11.7 C 36 %
908 24-10-2019 07:17:17 11.7 C 35 %
909 24-10-2019 07:27:17 11.9 C 35 %
910 24-10-2019 07:37:17 12 C 34 %
911 24-10-2019 07:47:18 11.8 C 35 %
912 24-10-2019 07:57:18 11.8 C 35 %
913 24-10-2019 08:07:17 12 C 34 %
914 24-10-2019 08:17:17 12.1 C 33 %
915 24-10-2019 08:27:17 12.2 C 33 %
916 24-10-2019 08:37:17 12.2 C 32 %
917 24-10-2019 08:47:18 12.2 C 32 %
918 24-10-2019 08:57:18 12.4 C 33 %
919 24-10-2019 09:07:17 12.5 C 32 %
920 24-10-2019 09:17:17 12.7 C 31 %
921 24-10-2019 09:27:17 12.7 C 30 %
922 24-10-2019 09:37:17 12.7 C 30 %
923 24-10-2019 09:47:17 12.9 C 31 %
924 24-10-2019 09:57:18 13.2 C 28 %
925 24-10-2019 10:07:17 13.4 C 26 %
Sensor: Nr:Datum:Temp:Feuchte:
Aussen-T/F 926 24-10-2019 10:17:17 13.5 C 27 %
927 24-10-2019 10:27:17 13.9 C 27 %
928 24-10-2019 10:37:17 14.1 C 25 %
929 24-10-2019 10:47:17 14.3 C 23 %
930 24-10-2019 10:57:17 14.8 C 24 %
931 24-10-2019 11:07:18 15 C 20 %
932 24-10-2019 11:17:17 15.2 C 20 %
933 24-10-2019 11:27:18 15.2 C 20 %
934 24-10-2019 11:37:17 15.4 C 20 %
935 24-10-2019 11:47:17 15 C 20 %
936 24-10-2019 11:57:17 15.1 C 20 %
937 24-10-2019 12:07:17 14.6 C 23 %
938 24-10-2019 12:17:17 14.4 C 25 %
939 24-10-2019 12:27:17 14.8 C 24 %
940 24-10-2019 12:37:17 14.8 C 24 %
941 24-10-2019 12:47:18 15.8 C 21 %
942 24-10-2019 12:57:18 16.2 C 20 %
943 24-10-2019 13:07:17 16.4 C 20 %
944 24-10-2019 13:17:17 16.1 C 21 %
945 24-10-2019 13:27:17 16.1 C 20 %
946 24-10-2019 13:37:17 18.5 C 20 %
947 24-10-2019 13:47:17 19.8 C 20 %
948 24-10-2019 13:57:17 19.3 C 20 %
949 24-10-2019 14:07:18 17.2 C 20 %
950 24-10-2019 14:17:17 17.3 C 20 %
Sensor: Nr:Datum:Temp:Feuchte:
Aussen-T/F 951 24-10-2019 14:27:18 17.9 C 20 %
952 24-10-2019 14:37:17 18.3 C 20 %
953 24-10-2019 14:47:17 18.3 C 20 %
954 24-10-2019 14:57:17 18.7 C 20 %
955 24-10-2019 15:07:17 18.9 C 20 %
956 24-10-2019 15:17:17 19.6 C 20 %
957 24-10-2019 15:27:17 19.6 C 20 %
958 24-10-2019 15:37:17 18.9 C 20 %
959 24-10-2019 15:47:18 18.5 C 20 %
960 24-10-2019 15:57:18 18.3 C 20 %
961 24-10-2019 16:07:17 18.2 C 20 %
962 24-10-2019 16:17:17 18.6 C 20 %
963 24-10-2019 16:27:17 19.1 C 20 %
964 24-10-2019 16:37:17 20.1 C 20 %
965 24-10-2019 16:47:17 20.9 C 20 %
966 24-10-2019 16:57:17 19.5 C 20 %
967 24-10-2019 17:07:17 19.5 C 20 %
968 24-10-2019 17:17:17 19.8 C 20 %
969 24-10-2019 17:27:17 19.1 C 20 %
970 24-10-2019 17:37:17 17 C 20 %
971 24-10-2019 17:47:17 16.6 C 20 %
972 24-10-2019 17:57:17 16.6 C 20 %
973 24-10-2019 18:07:17 15.7 C 20 %
974 24-10-2019 18:17:17 15 C 20 %
975 24-10-2019 18:27:17 14.9 C 20 %
Sensor: Nr:Datum:Temp:Feuchte:
Aussen-T/F 976 24-10-2019 18:37:17 14.8 C 20 %
977 24-10-2019 18:47:18 14.9 C 20 %
978 24-10-2019 18:57:18 14.6 C 20 %
979 24-10-2019 19:07:18 14.3 C 21 %
980 24-10-2019 19:17:17 14.1 C 21 %
981 24-10-2019 19:27:17 14 C 22 %
982 24-10-2019 19:37:17 14 C 22 %
983 24-10-2019 19:47:17 13.6 C 23 %
984 24-10-2019 19:57:17 13.4 C 24 %
985 24-10-2019 20:07:18 13.4 C 25 %
986 24-10-2019 20:17:17 13.4 C 25 %
987 24-10-2019 20:27:17 13.2 C 25 %
988 24-10-2019 20:37:17 13.2 C 25 %
989 24-10-2019 20:47:17 13.1 C 25 %
990 24-10-2019 20:57:17 13.1 C 24 %
991 24-10-2019 21:07:17 13.2 C 24 %
992 24-10-2019 21:17:17 13 C 25 %
993 24-10-2019 21:27:17 12.9 C 26 %
994 24-10-2019 21:37:17 12.7 C 26 %
995 24-10-2019 21:47:17 12.6 C 27 %
996 24-10-2019 21:57:17 12.5 C 27 %
997 24-10-2019 22:07:18 12.4 C 28 %
998 24-10-2019 22:17:17 12.4 C 29 %
999 24-10-2019 22:27:17 12.3 C 29 %
1000 24-10-2019 22:37:17 12.2 C 30 %
Sensor: Nr:Datum:Temp:Feuchte:
Aussen-T/F 1001 24-10-2019 22:47:17 12.5 C 31 %
1002 24-10-2019 22:57:17 12.7 C 30 %
1003 24-10-2019 23:07:18 12.8 C 30 %
1004 24-10-2019 23:17:17 13 C 27 %
1005 24-10-2019 23:27:18 13 C 27 %
1006 24-10-2019 23:37:17 12.7 C 28 %
1007 24-10-2019 23:47:17 12.1 C 30 %
1008 24-10-2019 23:57:17 11.6 C 31 %
1009 25-10-2019 00:07:17 11.6 C 32 %
1010 25-10-2019 00:17:17 11.5 C 35 %
1011 25-10-2019 00:27:17 11.3 C 35 %
1012 25-10-2019 00:37:17 11.3 C 35 %
1013 25-10-2019 00:47:18 11.3 C 35 %
1014 25-10-2019 00:57:18 11.5 C 36 %
1015 25-10-2019 01:07:17 11.3 C 35 %
1016 25-10-2019 01:17:17 11.1 C 35 %
1017 25-10-2019 01:27:17 11.2 C 36 %
1018 25-10-2019 01:37:17 11.1 C 35 %
1019 25-10-2019 01:47:17 11 C 34 %
1020 25-10-2019 01:57:17 10.8 C 35 %
1021 25-10-2019 02:07:17 10.8 C 35 %
1022 25-10-2019 02:17:17 10.8 C 36 %
1023 25-10-2019 02:27:17 10.9 C 35 %
1024 25-10-2019 02:37:18 10.6 C 35 %
1025 25-10-2019 02:47:17 11.8 C 35 %
Sensor: Nr:Datum:Temp:Feuchte:
Aussen-T/F 1026 25-10-2019 02:57:17 11.4 C 30 %
1027 25-10-2019 03:07:17 11.3 C 30 %
1028 25-10-2019 03:17:17 11.9 C 27 %
1029 25-10-2019 03:27:17 12.4 C 25 %
1030 25-10-2019 03:37:17 12 C 26 %
1031 25-10-2019 03:47:17 12.5 C 26 %
1032 25-10-2019 03:57:18 12.7 C 26 %
1033 25-10-2019 04:07:17 12.1 C 26 %
1034 25-10-2019 04:17:17 12.4 C 26 %
1035 25-10-2019 04:27:17 12.9 C 24 %
1036 25-10-2019 04:37:17 13.3 C 20 %
1037 25-10-2019 04:47:17 13.5 C 20 %
1038 25-10-2019 04:57:17 12.3 C 25 %
1039 25-10-2019 05:07:17 11.7 C 26 %
1040 25-10-2019 05:17:17 11.7 C 26 %
1041 25-10-2019 05:27:17 12.3 C 24 %
1042 25-10-2019 05:37:18 12.8 C 22 %
1043 25-10-2019 05:47:17 12.6 C 23 %
1044 25-10-2019 05:57:17 12.1 C 25 %
1045 25-10-2019 06:07:17 11.8 C 27 %
1046 25-10-2019 06:17:17 11.8 C 27 %
1047 25-10-2019 06:27:17 12.8 C 24 %
1048 25-10-2019 06:37:18 13.5 C 20 %
1049 25-10-2019 06:47:17 13.4 C 21 %
1050 25-10-2019 06:57:17 13.2 C 21 %
Sensor: Nr:Datum:Temp:Feuchte:
Aussen-T/F 1051 25-10-2019 07:07:17 13.9 C 20 %
1052 25-10-2019 07:17:17 12.7 C 23 %
1053 25-10-2019 07:27:17 12.4 C 25 %
1054 25-10-2019 07:37:17 12.7 C 25 %
1055 25-10-2019 07:47:18 12.7 C 25 %
1056 25-10-2019 07:57:18 12.8 C 23 %
1057 25-10-2019 08:07:17 12.5 C 25 %
1058 25-10-2019 08:17:17 12.2 C 25 %
1059 25-10-2019 08:27:17 11.9 C 28 %
1060 25-10-2019 08:37:17 11.9 C 28 %
1061 25-10-2019 08:47:18 11.8 C 29 %
1062 25-10-2019 08:57:18 12 C 28 %
1063 25-10-2019 09:07:17 12.1 C 28 %
1064 25-10-2019 09:17:17 12.6 C 27 %
1065 25-10-2019 09:27:17 13 C 24 %
1066 25-10-2019 09:37:17 13.1 C 21 %
1067 25-10-2019 09:47:17 13.5 C 20 %
1068 25-10-2019 09:57:17 13.4 C 21 %
1069 25-10-2019 10:07:18 13 C 23 %
1070 25-10-2019 10:17:17 13 C 23 %
1071 25-10-2019 10:27:17 13.9 C 20 %
1072 25-10-2019 10:37:17 14.2 C 20 %
1073 25-10-2019 10:47:17 14.4 C 20 %
1074 25-10-2019 10:57:17 14.8 C 20 %
1075 25-10-2019 11:07:17 14.8 C 20 %
Sensor: Nr:Datum:Temp:Feuchte:
Aussen-T/F 1076 25-10-2019 11:17:17 14.9 C 20 %
1077 25-10-2019 11:27:17 15.1 C 20 %
1078 25-10-2019 11:37:18 15 C 20 %
1079 25-10-2019 11:47:17 15.1 C 20 %
1080 25-10-2019 11:57:17 15.1 C 20 %
1081 25-10-2019 12:07:17 15.2 C 20 %
1082 25-10-2019 12:17:17 15.2 C 20 %
1083 25-10-2019 12:27:17 15.3 C 20 %
1084 25-10-2019 12:37:17 15.4 C 20 %
1085 25-10-2019 12:47:17 15.8 C 20 %
1086 25-10-2019 12:57:18 16 C 20 %
1087 25-10-2019 13:07:17 16.6 C 20 %
1088 25-10-2019 13:17:17 16.6 C 20 %
1089 25-10-2019 13:27:17 17.3 C 20 %
1090 25-10-2019 13:37:17 16.7 C 20 %
1091 25-10-2019 13:47:18 17.2 C 20 %
1092 25-10-2019 13:57:18 17.1 C 20 %
1093 25-10-2019 14:07:17 17.9 C 20 %
1094 25-10-2019 14:17:17 17.5 C 20 %
1095 25-10-2019 14:27:17 16.8 C 20 %
1096 25-10-2019 14:37:17 16.9 C 20 %
1097 25-10-2019 14:47:17 16.6 C 20 %
1098 25-10-2019 14:57:18 16.7 C 20 %
1099 25-10-2019 15:07:17 16.8 C 20 %
1100 25-10-2019 15:17:17 16.7 C 20 %
Sensor: Nr:Datum:Temp:Feuchte:
Aussen-T/F 1101 25-10-2019 15:27:17 16.7 C 20 %
1102 25-10-2019 15:37:17 16.8 C 20 %
1103 25-10-2019 15:47:17 16.5 C 20 %
1104 25-10-2019 15:57:17 16.8 C 20 %
1105 25-10-2019 16:07:18 16.9 C 20 %
1106 25-10-2019 16:17:17 16.6 C 20 %
1107 25-10-2019 16:27:17 17 C 20 %
1108 25-10-2019 16:37:17 16.7 C 20 %
1109 25-10-2019 16:47:18 16.6 C 20 %
1110 25-10-2019 16:57:18 17.2 C 20 %
1111 25-10-2019 17:07:17 17.1 C 20 %
1112 25-10-2019 17:17:17 16 C 20 %
1113 25-10-2019 17:27:17 15.7 C 20 %
1114 25-10-2019 17:37:17 14.2 C 20 %
1115 25-10-2019 17:47:17 13.6 C 20 %
1116 25-10-2019 17:57:17 13.4 C 20 %
1117 25-10-2019 18:07:17 12.8 C 20 %
1118 25-10-2019 18:17:17 12.3 C 20 %
1119 25-10-2019 18:27:17 12.3 C 20 %
1120 25-10-2019 18:37:17 12.2 C 20 %
1121 25-10-2019 18:47:18 11.8 C 22 %
1122 25-10-2019 18:57:18 11.7 C 24 %
1123 25-10-2019 19:07:17 11.7 C 25 %
1124 25-10-2019 19:17:17 11.2 C 26 %
1125 25-10-2019 19:27:17 11.1 C 27 %
Sensor: Nr:Datum:Temp:Feuchte:
Aussen-T/F 1126 25-10-2019 19:37:17 11.1 C 27 %
1127 25-10-2019 19:47:18 11 C 28 %
1128 25-10-2019 19:57:18 10.9 C 28 %
1129 25-10-2019 20:07:17 11 C 28 %
1130 25-10-2019 20:17:17 10.7 C 28 %
1131 25-10-2019 20:27:17 10.6 C 28 %
1132 25-10-2019 20:37:17 10.5 C 29 %
1133 25-10-2019 20:47:18 10.5 C 30 %
1134 25-10-2019 20:57:18 10.6 C 30 %
1135 25-10-2019 21:07:17 10.7 C 29 %
1136 25-10-2019 21:17:17 10.3 C 30 %
1137 25-10-2019 21:27:17 10.1 C 30 %
1138 25-10-2019 21:37:17 10.3 C 32 %
1139 25-10-2019 21:47:18 10 C 31 %
1140 25-10-2019 21:57:18 10 C 33 %
1141 25-10-2019 22:07:17 10.8 C 34 %
1142 25-10-2019 22:17:17 11 C 30 %
1143 25-10-2019 22:27:17 11 C 30 %
1144 25-10-2019 22:37:17 11 C 29 %
1145 25-10-2019 22:47:17 11.2 C 29 %
1146 25-10-2019 22:57:17 11.5 C 28 %
1147 25-10-2019 23:07:17 11.6 C 28 %
1148 25-10-2019 23:17:17 12.2 C 25 %
1149 25-10-2019 23:27:17 12.5 C 25 %
1150 25-10-2019 23:37:17 12.5 C 24 %
Sensor: Nr:Datum:Temp:Feuchte:
Aussen-T/F 1151 25-10-2019 23:47:17 12.8 C 22 %
1152 25-10-2019 23:57:17 13 C 21 %
1153 26-10-2019 00:07:17 13.2 C 20 %
1154 26-10-2019 00:17:17 13.5 C 20 %
1155 26-10-2019 00:27:17 13.4 C 20 %
1156 26-10-2019 00:37:18 13.2 C 20 %
1157 26-10-2019 00:47:17 13.6 C 20 %
1158 26-10-2019 00:57:17 13.3 C 20 %
1159 26-10-2019 01:07:17 13 C 20 %
1160 26-10-2019 01:17:17 13.1 C 20 %
1161 26-10-2019 01:27:17 13.1 C 20 %
1162 26-10-2019 01:37:17 13.7 C 20 %
1163 26-10-2019 01:47:18 13.8 C 20 %
1164 26-10-2019 01:57:18 14 C 20 %
1165 26-10-2019 02:07:17 13.6 C 20 %
1166 26-10-2019 02:17:17 12.7 C 21 %
1167 26-10-2019 02:27:17 12.7 C 21 %
1168 26-10-2019 02:37:17 12.1 C 25 %
1169 26-10-2019 02:47:18 11.8 C 27 %
1170 26-10-2019 02:57:18 11.7 C 28 %
1171 26-10-2019 03:07:17 11.4 C 30 %
1172 26-10-2019 03:17:17 11.2 C 30 %
1173 26-10-2019 03:27:17 11.2 C 31 %
1174 26-10-2019 03:37:17 11.1 C 32 %
1175 26-10-2019 03:47:17 10.8 C 33 %
Sensor: Nr:Datum:Temp:Feuchte:
Aussen-T/F 1176 26-10-2019 03:57:17 10.7 C 33 %
1177 26-10-2019 04:07:17 10.5 C 35 %
1178 26-10-2019 04:17:17 11.1 C 35 %
1179 26-10-2019 04:27:17 10.7 C 37 %
1180 26-10-2019 04:37:17 10.9 C 35 %
1181 26-10-2019 04:47:17 11.6 C 30 %
1182 26-10-2019 04:57:17 11.8 C 28 %
1183 26-10-2019 05:07:17 12 C 26 %
1184 26-10-2019 05:17:17 12 C 26 %
1185 26-10-2019 05:27:17 12 C 26 %
1186 26-10-2019 05:37:17 11.9 C 27 %
1187 26-10-2019 05:47:18 11.4 C 29 %
1188 26-10-2019 05:57:18 11.2 C 30 %
1189 26-10-2019 06:07:17 11.1 C 30 %
1190 26-10-2019 06:17:17 10.9 C 34 %
1191 26-10-2019 06:27:17 10.8 C 35 %
1192 26-10-2019 06:37:17 10.9 C 36 %
1193 26-10-2019 06:47:17 11 C 35 %
1194 26-10-2019 06:57:17 10.7 C 35 %
1195 26-10-2019 07:07:17 10.5 C 35 %
1196 26-10-2019 07:17:17 10.2 C 35 %
1197 26-10-2019 07:27:17 10.1 C 35 %
1198 26-10-2019 07:37:17 9.8 C 36 %
1199 26-10-2019 07:47:17 9.5 C 37 %
1200 26-10-2019 07:57:17 9.3 C 36 %
Sensor: Nr:Datum:Temp:Feuchte:
Aussen-T/F 1201 26-10-2019 08:07:17 9.1 C 36 %
1202 26-10-2019 08:17:17 9 C 37 %
1203 26-10-2019 08:27:17 9 C 38 %
1204 26-10-2019 08:37:17 9.2 C 38 %
1205 26-10-2019 08:47:17 9.2 C 38 %
1206 26-10-2019 08:57:17 9.2 C 37 %
1207 26-10-2019 09:07:17 9.3 C 37 %
1208 26-10-2019 09:17:17 9.5 C 37 %
1209 26-10-2019 09:27:17 9.7 C 37 %
1210 26-10-2019 09:37:17 9.9 C 37 %
1211 26-10-2019 09:47:18 10 C 36 %
1212 26-10-2019 09:57:18 10.3 C 36 %
1213 26-10-2019 10:07:17 10.5 C 35 %
1214 26-10-2019 10:17:17 10.7 C 35 %
1215 26-10-2019 10:27:17 10.7 C 35 %
1216 26-10-2019 10:37:17 11.3 C 33 %
1217 26-10-2019 10:47:18 11.5 C 33 %
1218 26-10-2019 10:57:18 11.7 C 32 %
1219 26-10-2019 11:07:17 12 C 31 %
1220 26-10-2019 11:17:17 12.4 C 31 %
1221 26-10-2019 11:27:17 12.7 C 30 %
1222 26-10-2019 11:37:17 13.2 C 28 %
1223 26-10-2019 11:47:18 13.4 C 26 %
1224 26-10-2019 11:57:18 13.6 C 26 %
1225 26-10-2019 12:07:17 13.8 C 25 %
Sensor: Nr:Datum:Temp:Feuchte:
Aussen-T/F 1226 26-10-2019 12:17:17 14.2 C 23 %
1227 26-10-2019 12:27:17 14.4 C 25 %
1228 26-10-2019 12:37:17 14.7 C 23 %
1229 26-10-2019 12:47:17 14.8 C 23 %
1230 26-10-2019 12:57:18 15 C 20 %
1231 26-10-2019 13:07:18 15 C 20 %
1232 26-10-2019 13:17:17 14.9 C 21 %
1233 26-10-2019 13:27:17 15 C 20 %
1234 26-10-2019 13:37:17 16.3 C 20 %
1235 26-10-2019 13:47:18 18.5 C 20 %
1236 26-10-2019 13:57:18 20.9 C 20 %
1237 26-10-2019 14:07:17 20.6 C 20 %
1238 26-10-2019 14:17:17 17.8 C 20 %
1239 26-10-2019 14:27:17 16.3 C 20 %
1240 26-10-2019 14:37:17 16.2 C 20 %
1241 26-10-2019 14:47:17 16.5 C 20 %
1242 26-10-2019 14:57:17 16.9 C 20 %
1243 26-10-2019 15:07:17 16.8 C 20 %
1244 26-10-2019 15:17:17 16.8 C 20 %
1245 26-10-2019 15:27:17 16.6 C 20 %
1246 26-10-2019 15:37:17 16.5 C 20 %
1247 26-10-2019 15:47:18 16.6 C 20 %
1248 26-10-2019 15:57:18 16.7 C 20 %
1249 26-10-2019 16:07:17 16.6 C 20 %
1250 26-10-2019 16:17:17 17 C 20 %
Sensor: Nr:Datum:Temp:Feuchte:
Aussen-T/F 1251 26-10-2019 16:27:17 16.2 C 20 %
1252 26-10-2019 16:37:17 15.9 C 20 %
1253 26-10-2019 16:47:17 15.6 C 20 %
1254 26-10-2019 16:57:17 15.2 C 20 %
1255 26-10-2019 17:07:17 14.9 C 21 %
1256 26-10-2019 17:17:17 14.8 C 22 %
1257 26-10-2019 17:27:17 14.4 C 21 %
1258 26-10-2019 17:37:17 14.2 C 22 %
1259 26-10-2019 17:47:17 13.7 C 24 %
1260 26-10-2019 17:57:17 13.7 C 24 %
1261 26-10-2019 18:07:18 13.1 C 25 %
1262 26-10-2019 18:17:17 13.1 C 25 %
1263 26-10-2019 18:27:17 12.8 C 26 %
1264 26-10-2019 18:37:17 12.4 C 26 %
1265 26-10-2019 18:47:17 12.2 C 27 %
1266 26-10-2019 18:57:17 12.3 C 27 %
1267 26-10-2019 19:07:18 11.9 C 28 %
1268 26-10-2019 19:17:17 11.9 C 30 %
1269 26-10-2019 19:27:17 11.8 C 30 %
1270 26-10-2019 19:37:17 11.8 C 31 %
1271 26-10-2019 19:47:17 11.9 C 30 %
1272 26-10-2019 19:57:17 12 C 29 %
1273 26-10-2019 20:07:17 12 C 29 %
1274 26-10-2019 20:17:17 12 C 28 %
1275 26-10-2019 20:27:17 12.3 C 28 %
Sensor: Nr:Datum:Temp:Feuchte:
Aussen-T/F 1276 26-10-2019 20:37:17 12.4 C 28 %
1277 26-10-2019 20:47:17 12.3 C 27 %
1278 26-10-2019 20:57:18 12.3 C 27 %
1279 26-10-2019 21:07:17 12.4 C 28 %
1280 26-10-2019 21:17:17 12.2 C 27 %
1281 26-10-2019 21:27:17 12 C 28 %
1282 26-10-2019 21:37:17 12 C 29 %
1283 26-10-2019 21:47:17 12.2 C 30 %
1284 26-10-2019 21:57:17 11.8 C 32 %
1285 26-10-2019 22:07:17 11.8 C 33 %
1286 26-10-2019 22:17:17 11.8 C 32 %
1287 26-10-2019 22:27:17 11.8 C 31 %
1288 26-10-2019 22:37:18 11.8 C 32 %
1289 26-10-2019 22:47:17 11.7 C 33 %
1290 26-10-2019 22:57:17 11.8 C 33 %
1291 26-10-2019 23:07:17 11.8 C 32 %
1292 26-10-2019 23:17:17 12.1 C 30 %
1293 26-10-2019 23:27:17 12.4 C 28 %
1294 26-10-2019 23:37:17 12.6 C 26 %
1295 26-10-2019 23:47:17 12.5 C 27 %
1296 26-10-2019 23:57:17 12.5 C 27 %
1297 27-10-2019 00:07:18 12.8 C 25 %
1298 27-10-2019 00:17:17 12.9 C 25 %
1299 27-10-2019 00:27:17 12.9 C 25 %
1300 27-10-2019 00:37:17 13.5 C 20 %
Sensor: Nr:Datum:Temp:Feuchte:
Aussen-T/F 1301 27-10-2019 00:47:17 13.4 C 20 %
1302 27-10-2019 00:57:17 13.7 C 20 %
1303 27-10-2019 01:07:17 13 C 20 %
1304 27-10-2019 01:17:17 13.4 C 20 %
1305 27-10-2019 01:27:17 12.8 C 22 %
1306 27-10-2019 01:37:17 12.8 C 24 %
1307 27-10-2019 01:47:17 12.4 C 25 %
1308 27-10-2019 01:57:17 12.4 C 25 %
1309 27-10-2019 02:07:18 12.5 C 25 %
1310 27-10-2019 02:17:17 12.3 C 25 %
1311 27-10-2019 02:27:17 12.3 C 25 %
1312 27-10-2019 02:37:17 11.9 C 27 %
1313 27-10-2019 02:47:17 11.7 C 27 %
1314 27-10-2019 02:57:17 11.8 C 27 %
1315 27-10-2019 03:07:17 12 C 25 %
1316 27-10-2019 03:17:17 12.1 C 25 %
1317 27-10-2019 03:27:17 12.1 C 25 %
1318 27-10-2019 03:37:18 12.2 C 25 %
1319 27-10-2019 03:47:17 11.9 C 26 %
1320 27-10-2019 03:57:17 11.9 C 27 %
1321 27-10-2019 04:07:17 11.6 C 27 %
1322 27-10-2019 04:07:17 11 C 32 %
1323 27-10-2019 04:17:17 11.7 C 28 %
1324 27-10-2019 04:17:17 11.2 C 31 %
1325 27-10-2019 04:27:17 11.4 C 29 %
Sensor: Nr:Datum:Temp:Feuchte:
Aussen-T/F 1326 27-10-2019 04:27:17 11.2 C 30 %
1327 27-10-2019 04:37:17 11.2 C 30 %
1328 27-10-2019 04:37:17 11.5 C 30 %
1329 27-10-2019 04:47:17 10.9 C 31 %
1330 27-10-2019 04:47:18 12.1 C 25 %
1331 27-10-2019 04:57:18 11 C 33 %
1332 27-10-2019 04:57:18 12.5 C 22 %
1333 27-10-2019 05:07:17 12.1 C 25 %
1334 27-10-2019 05:17:17 13.2 C 20 %
1335 27-10-2019 05:27:17 13.2 C 20 %
1336 27-10-2019 05:37:17 13.4 C 20 %
1337 27-10-2019 05:47:17 13.3 C 20 %
1338 27-10-2019 05:57:18 14 C 20 %
1339 27-10-2019 06:07:17 14.7 C 20 %
1340 27-10-2019 06:17:18 14.6 C 20 %
1341 27-10-2019 06:27:18 14.4 C 20 %
1342 27-10-2019 06:37:17 14.5 C 20 %
1343 27-10-2019 06:47:17 14.3 C 20 %
1344 27-10-2019 06:57:17 14.6 C 20 %
1345 27-10-2019 07:07:17 14.5 C 20 %
1346 27-10-2019 07:17:17 14.1 C 20 %
1347 27-10-2019 07:27:17 13.5 C 20 %
1348 27-10-2019 07:37:17 12.9 C 26 %
1349 27-10-2019 07:47:17 12.7 C 29 %
1350 27-10-2019 07:57:17 12.1 C 28 %
Sensor: Nr:Datum:Temp:Feuchte:
Aussen-T/F 1351 27-10-2019 08:07:17 11.4 C 29 %
1352 27-10-2019 08:17:17 11.2 C 30 %
1353 27-10-2019 08:27:17 11.1 C 30 %
1354 27-10-2019 08:37:17 10.9 C 31 %
1355 27-10-2019 08:47:17 10.8 C 31 %
1356 27-10-2019 08:57:17 10.6 C 31 %
1357 27-10-2019 09:07:17 10.4 C 30 %
1358 27-10-2019 09:17:17 9.8 C 30 %
1359 27-10-2019 09:27:17 9.4 C 31 %
1360 27-10-2019 09:37:17 9.3 C 33 %
1361 27-10-2019 09:47:18 9.2 C 32 %
1362 27-10-2019 09:57:18 8.8 C 28 %
1363 27-10-2019 10:07:17 8.9 C 31 %
1364 27-10-2019 10:17:17 9 C 35 %
1365 27-10-2019 10:27:17 9.1 C 34 %
1366 27-10-2019 10:37:17 9 C 30 %
1367 27-10-2019 10:47:17 9.2 C 33 %
1368 27-10-2019 10:57:17 9.3 C 34 %
1369 27-10-2019 11:07:17 9.6 C 28 %
1370 27-10-2019 11:17:17 9.7 C 27 %
1371 27-10-2019 11:27:17 9.4 C 30 %
1372 27-10-2019 11:37:17 9.5 C 29 %
1373 27-10-2019 11:47:17 9.5 C 30 %
1374 27-10-2019 11:57:17 9.6 C 28 %
1375 27-10-2019 12:07:17 9.6 C 30 %
Sensor: Nr:Datum:Temp:Feuchte:
Aussen-T/F 1376 27-10-2019 12:17:17 9.3 C 28 %
1377 27-10-2019 12:27:17 9.3 C 31 %
1378 27-10-2019 12:37:17 9.2 C 29 %
1379 27-10-2019 12:47:17 9.1 C 28 %
1380 27-10-2019 12:57:17 9.2 C 29 %
1381 27-10-2019 13:07:17 9.3 C 29 %
1382 27-10-2019 13:17:17 9.3 C 29 %
1383 27-10-2019 13:27:17 9.2 C 30 %
1384 27-10-2019 13:37:17 9.1 C 31 %
1385 27-10-2019 13:47:17 9.1 C 32 %
1386 27-10-2019 13:57:17 9.2 C 30 %
1387 27-10-2019 14:07:17 9 C 28 %
1388 27-10-2019 14:17:17 8.8 C 30 %
1389 27-10-2019 14:27:17 8.7 C 34 %
1390 27-10-2019 14:37:18 8.7 C 34 %
1391 27-10-2019 14:47:17 8.7 C 35 %
1392 27-10-2019 14:57:17 8.7 C 35 %
1393 27-10-2019 15:07:17 8.7 C 31 %
1394 27-10-2019 15:17:17 8.7 C 32 %
1395 27-10-2019 15:27:17 8.7 C 33 %
1396 27-10-2019 15:37:17 8.7 C 35 %
1397 27-10-2019 15:47:17 8.7 C 36 %
1398 27-10-2019 15:57:17 8.6 C 35 %
1399 27-10-2019 16:07:17 8.6 C 35 %
1400 27-10-2019 16:17:17 8.4 C 35 %
Sensor: Nr:Datum:Temp:Feuchte:
Aussen-T/F 1401 27-10-2019 16:27:17 8.3 C 35 %
1402 27-10-2019 16:37:17 8.1 C 35 %
1403 27-10-2019 16:47:17 8.2 C 36 %
1404 27-10-2019 16:57:17 8.1 C 36 %
1405 27-10-2019 17:07:18 7.9 C 37 %
1406 27-10-2019 17:17:17 7.9 C 38 %
1407 27-10-2019 17:27:17 7.8 C 38 %
1408 27-10-2019 17:37:17 7.9 C 38 %
1409 27-10-2019 17:47:17 7.8 C 38 %
1410 27-10-2019 17:57:17 7.9 C 38 %
1411 27-10-2019 18:07:17 7.8 C 38 %
1412 27-10-2019 18:17:17 7.9 C 38 %
1413 27-10-2019 18:27:17 7.8 C 38 %
1414 27-10-2019 18:37:17 7.8 C 38 %
1415 27-10-2019 18:47:18 7.8 C 38 %
1416 27-10-2019 18:57:18 7.8 C 38 %
1417 27-10-2019 19:07:17 7.8 C 38 %
1418 27-10-2019 19:17:17 7.8 C 38 %
1419 27-10-2019 19:27:17 7.7 C 38 %
1420 27-10-2019 19:37:17 7.6 C 38 %
1421 27-10-2019 19:47:18 7.6 C 38 %
1422 27-10-2019 19:57:18 7.6 C 38 %
1423 27-10-2019 20:07:17 7 C 38 %
1424 27-10-2019 20:17:17 6.7 C 38 %
1425 27-10-2019 20:27:17 6.6 C 38 %
Sensor: Nr:Datum:Temp:Feuchte:
Aussen-T/F 1426 27-10-2019 20:37:17 6.5 C 39 %
1427 27-10-2019 20:48:17 6.3 C 38 %
1428 27-10-2019 20:58:17 6.1 C 38 %
1429 27-10-2019 21:07:18 6.3 C 39 %
1430 27-10-2019 21:17:17 6.2 C 39 %
1431 27-10-2019 21:27:17 6 C 38 %
1432 27-10-2019 21:37:17 6 C 38 %
1433 27-10-2019 21:48:17 5.6 C 39 %
1434 27-10-2019 21:58:17 5.3 C 38 %
1435 27-10-2019 22:07:18 5.2 C 38 %
1436 27-10-2019 22:18:17 4.7 C 39 %
1437 27-10-2019 22:28:17 4.7 C 39 %
1438 27-10-2019 22:38:17 4.6 C 39 %
1439 27-10-2019 22:47:17 4.5 C 39 %
1440 27-10-2019 22:57:18 4.2 C 39 %
1441 27-10-2019 23:07:17 4.3 C 39 %
1442 27-10-2019 23:17:17 4.1 C 39 %
1443 27-10-2019 23:27:17 3.9 C 40 %
1444 27-10-2019 23:37:17 4.5 C 40 %
1445 27-10-2019 23:48:17 4.5 C 40 %
1446 27-10-2019 23:58:17 4.6 C 40 %
1447 28-10-2019 00:08:17 4.6 C 39 %
1448 28-10-2019 00:18:17 4.5 C 39 %
1449 28-10-2019 00:27:17 4.7 C 40 %
1450 28-10-2019 00:38:17 4.7 C 39 %
Sensor: Nr:Datum:Temp:Feuchte:
Aussen-T/F 1451 28-10-2019 00:47:18 4.8 C 39 %
1452 28-10-2019 00:57:18 5 C 39 %
1453 28-10-2019 01:07:17 5 C 38 %
1454 28-10-2019 01:18:17 5.2 C 39 %
1455 28-10-2019 01:28:17 5.2 C 38 %
1456 28-10-2019 01:38:17 5.2 C 38 %
1457 28-10-2019 01:47:17 5.2 C 38 %
1458 28-10-2019 01:57:17 5.2 C 38 %
1459 28-10-2019 02:08:17 5.1 C 38 %
1460 28-10-2019 02:18:17 4.9 C 38 %
1461 28-10-2019 02:28:17 4.4 C 38 %
1462 28-10-2019 02:38:17 4.5 C 38 %
1463 28-10-2019 02:48:17 4.5 C 39 %
1464 28-10-2019 02:58:17 4.6 C 39 %
1465 28-10-2019 03:08:17 4.8 C 39 %
1466 28-10-2019 03:18:18 4.7 C 39 %
1467 28-10-2019 03:28:18 4.7 C 39 %
1468 28-10-2019 03:38:17 4.7 C 39 %
1469 28-10-2019 03:48:17 4.8 C 39 %
1470 28-10-2019 03:58:17 4.5 C 39 %
1471 28-10-2019 04:08:17 4.5 C 39 %
1472 28-10-2019 04:18:18 4.5 C 39 %
1473 28-10-2019 04:28:18 4.5 C 39 %
1474 28-10-2019 04:38:17 4.5 C 39 %
1475 28-10-2019 04:48:17 4.5 C 39 %
Sensor: Nr:Datum:Temp:Feuchte:
Aussen-T/F 1476 28-10-2019 04:58:17 4.5 C 39 %
1477 28-10-2019 05:08:17 4.4 C 39 %
1478 28-10-2019 05:18:17 4.4 C 39 %
1479 28-10-2019 05:28:17 4.5 C 39 %
1480 28-10-2019 05:38:17 4.4 C 39 %
1481 28-10-2019 05:48:17 4.5 C 39 %
1482 28-10-2019 05:58:17 4.6 C 39 %
1483 28-10-2019 06:08:17 4.5 C 39 %
1484 28-10-2019 06:18:17 4.3 C 38 %
1485 28-10-2019 06:28:17 4.3 C 38 %
1486 28-10-2019 06:38:17 4.3 C 38 %
1487 28-10-2019 06:48:17 4.5 C 38 %
1488 28-10-2019 06:58:17 4.4 C 38 %
1489 28-10-2019 07:08:17 4.6 C 39 %
1490 28-10-2019 07:18:17 4.7 C 39 %
1491 28-10-2019 07:28:17 4.6 C 39 %
1492 28-10-2019 07:38:17 4.6 C 39 %
1493 28-10-2019 07:48:17 4.6 C 39 %
1494 28-10-2019 07:58:17 5 C 38 %
1495 28-10-2019 08:08:17 5 C 38 %
1496 28-10-2019 08:18:17 5 C 38 %
1497 28-10-2019 08:28:18 5.1 C 38 %
1498 28-10-2019 08:38:17 5.1 C 38 %
1499 28-10-2019 08:48:17 5.2 C 38 %
1500 28-10-2019 08:58:17 5.1 C 38 %
Sensor: Nr:Datum:Temp:Feuchte:
Aussen-T/F 1501 28-10-2019 09:08:17 5.2 C 38 %
1502 28-10-2019 09:18:17 5.4 C 38 %
1503 28-10-2019 09:28:17 5.2 C 38 %
1504 28-10-2019 09:38:17 5.6 C 38 %
1505 28-10-2019 09:48:16 5.5 C 38 %
1506 28-10-2019 09:58:16 5.7 C 38 %
1507 28-10-2019 10:08:17 5.8 C 38 %
1508 28-10-2019 10:18:17 5.6 C 37 %
1509 28-10-2019 10:28:17 5.7 C 36 %
1510 28-10-2019 10:38:17 6 C 36 %
1511 28-10-2019 10:48:17 6 C 36 %
1512 28-10-2019 10:58:17 5.9 C 35 %
1513 28-10-2019 11:08:17 6.2 C 35 %
1514 28-10-2019 11:18:16 6.6 C 36 %
1515 28-10-2019 11:28:16 6.3 C 33 %
1516 28-10-2019 11:38:17 6.4 C 34 %
1517 28-10-2019 11:48:16 6.5 C 34 %
1518 28-10-2019 11:58:16 6.6 C 33 %
1519 28-10-2019 12:08:16 6.7 C 32 %
1520 28-10-2019 12:18:16 6.8 C 31 %
1521 28-10-2019 12:28:16 6.7 C 30 %
1522 28-10-2019 12:38:16 6.8 C 30 %
1523 28-10-2019 12:48:17 6.5 C 30 %
1524 28-10-2019 12:58:17 6.7 C 30 %
1525 28-10-2019 13:08:17 6.9 C 30 %
Sensor: Nr:Datum:Temp:Feuchte:
Aussen-T/F 1526 28-10-2019 13:18:16 7.1 C 30 %
1527 28-10-2019 13:28:16 7.3 C 28 %
1528 28-10-2019 13:38:17 7.5 C 27 %
1529 28-10-2019 13:48:16 7.8 C 26 %
1530 28-10-2019 13:58:16 8 C 28 %
1531 28-10-2019 14:08:17 7.8 C 26 %
1532 28-10-2019 14:18:17 7.6 C 25 %
1533 28-10-2019 14:28:18 7.5 C 25 %
1534 28-10-2019 14:38:17 8.1 C 21 %
1535 28-10-2019 14:48:16 8.1 C 20 %
1536 28-10-2019 14:58:16 8.1 C 20 %
1537 28-10-2019 15:08:16 8.2 C 20 %
1538 28-10-2019 15:18:16 8.1 C 20 %
1539 28-10-2019 15:28:16 8.2 C 20 %
1540 28-10-2019 15:38:17 7.8 C 25 %
1541 28-10-2019 15:48:16 7.8 C 26 %
1542 28-10-2019 15:58:16 7.8 C 25 %
1543 28-10-2019 16:08:16 7.3 C 28 %
1544 28-10-2019 16:18:16 7.1 C 30 %
1545 28-10-2019 16:28:16 6.9 C 32 %
1546 28-10-2019 16:38:16 6.8 C 33 %
1547 28-10-2019 16:48:16 6.8 C 33 %
1548 28-10-2019 16:58:16 6.2 C 35 %
1549 28-10-2019 17:08:16 6.3 C 36 %
1550 28-10-2019 17:18:16 6.3 C 37 %
Sensor: Nr:Datum:Temp:Feuchte:
Aussen-T/F 1551 28-10-2019 17:28:16 6.5 C 37 %
1552 28-10-2019 17:38:17 6.5 C 37 %
1553 28-10-2019 17:48:16 6.6 C 35 %
1554 28-10-2019 17:58:16 6.6 C 36 %
1555 28-10-2019 18:08:16 6.6 C 36 %
1556 28-10-2019 18:18:16 6.7 C 37 %
1557 28-10-2019 18:28:16 6.7 C 36 %
1558 28-10-2019 18:38:16 6.7 C 36 %
1559 28-10-2019 18:48:17 6.7 C 36 %
1560 28-10-2019 18:58:17 6.6 C 36 %
1561 28-10-2019 19:08:16 6.6 C 36 %
1562 28-10-2019 19:18:16 6.6 C 37 %
1563 28-10-2019 19:28:16 6.7 C 37 %
1564 28-10-2019 19:38:16 6.7 C 37 %
1565 28-10-2019 19:48:16 6.4 C 37 %
1566 28-10-2019 19:58:16 6.2 C 37 %
1567 28-10-2019 20:08:16 6.3 C 38 %
1568 28-10-2019 20:18:16 6.5 C 38 %
1569 28-10-2019 20:28:16 6.5 C 38 %
1570 28-10-2019 20:38:16 6.5 C 38 %
1571 28-10-2019 20:48:16 6.5 C 38 %
1572 28-10-2019 20:58:17 6.5 C 37 %
1573 28-10-2019 21:08:16 6.3 C 37 %
1574 28-10-2019 21:18:16 6.3 C 37 %
1575 28-10-2019 21:28:16 6.3 C 37 %
Sensor: Nr:Datum:Temp:Feuchte:
Aussen-T/F 1576 28-10-2019 21:38:16 6.3 C 37 %
1577 28-10-2019 21:48:16 6.3 C 37 %
1578 28-10-2019 21:58:16 6.3 C 37 %
1579 28-10-2019 22:08:16 6.4 C 37 %
1580 28-10-2019 22:18:16 6.3 C 37 %
1581 28-10-2019 22:28:16 6.4 C 36 %
1582 28-10-2019 22:38:16 6.4 C 35 %
1583 28-10-2019 22:48:16 6.4 C 35 %
1584 28-10-2019 22:58:17 6.3 C 34 %
1585 28-10-2019 23:08:16 6.3 C 33 %
1586 28-10-2019 23:18:16 6.3 C 33 %
1587 28-10-2019 23:28:16 6.3 C 33 %
1588 28-10-2019 23:38:16 6.2 C 32 %
1589 28-10-2019 23:48:15 6.3 C 33 %
1590 28-10-2019 23:58:15 6.3 C 33 %
1591 29-10-2019 00:08:16 6.3 C 33 %
1592 29-10-2019 00:18:16 6.3 C 33 %
1593 29-10-2019 00:28:16 6.2 C 32 %
1594 29-10-2019 00:38:16 6.2 C 33 %
1595 29-10-2019 00:48:15 6.2 C 32 %
1596 29-10-2019 00:58:15 6.1 C 32 %
1597 29-10-2019 01:08:16 6 C 32 %
1598 29-10-2019 01:18:16 6 C 32 %
1599 29-10-2019 01:28:16 5.9 C 33 %
1600 29-10-2019 01:38:16 5.9 C 33 %
Sensor: Nr:Datum:Temp:Feuchte:
Aussen-T/F 1601 29-10-2019 01:48:15 5.9 C 34 %
1602 29-10-2019 01:58:15 5.8 C 33 %
1603 29-10-2019 02:08:16 5.9 C 33 %
1604 29-10-2019 02:18:16 5.8 C 32 %
1605 29-10-2019 02:28:16 5.8 C 33 %
1606 29-10-2019 02:38:16 5.8 C 33 %
1607 29-10-2019 02:48:17 5.8 C 33 %
1608 29-10-2019 02:58:17 5.8 C 33 %
1609 29-10-2019 03:08:17 5.8 C 33 %
1610 29-10-2019 03:18:17 5.8 C 33 %
1611 29-10-2019 03:28:17 5.8 C 33 %
1612 29-10-2019 03:38:17 5.8 C 33 %
1613 29-10-2019 03:48:18 5.7 C 32 %
1614 29-10-2019 03:58:18 5.7 C 33 %
1615 29-10-2019 04:08:17 5.7 C 34 %
1616 29-10-2019 04:18:17 5.7 C 33 %
1617 29-10-2019 04:28:17 5.7 C 33 %
1618 29-10-2019 04:38:17 5.7 C 33 %
1619 29-10-2019 04:48:17 5.7 C 33 %
1620 29-10-2019 04:58:18 5.7 C 33 %
1621 29-10-2019 05:08:17 5.7 C 34 %
1622 29-10-2019 05:18:17 5.8 C 33 %
1623 29-10-2019 05:28:17 5.7 C 32 %
1624 29-10-2019 05:38:17 5.7 C 32 %
1625 29-10-2019 05:48:18 5.7 C 32 %
Sensor: Nr:Datum:Temp:Feuchte:
Aussen-T/F 1626 29-10-2019 05:58:18 5.7 C 32 %
1627 29-10-2019 06:08:17 5.7 C 32 %
1628 29-10-2019 06:18:17 5.7 C 32 %
1629 29-10-2019 06:28:18 5.6 C 32 %
1630 29-10-2019 06:38:17 5.5 C 32 %
1631 29-10-2019 06:48:17 5.5 C 32 %
1632 29-10-2019 06:58:17 5.5 C 32 %
1633 29-10-2019 07:08:18 5.5 C 32 %
1634 29-10-2019 07:18:17 5.5 C 32 %
1635 29-10-2019 07:28:17 5.4 C 32 %
1636 29-10-2019 07:38:17 5.4 C 33 %
1637 29-10-2019 07:48:17 5.4 C 33 %
1638 29-10-2019 07:58:17 5.5 C 33 %
1639 29-10-2019 08:08:18 5.7 C 33 %
1640 29-10-2019 08:18:17 6 C 31 %
1641 29-10-2019 08:28:17 6 C 28 %
1642 29-10-2019 08:38:17 6 C 28 %
1643 29-10-2019 08:48:17 6.2 C 27 %
1644 29-10-2019 08:58:17 6.3 C 26 %
1645 29-10-2019 09:08:18 6.3 C 26 %
1646 29-10-2019 09:18:17 6.3 C 26 %
1647 29-10-2019 09:28:17 6.6 C 26 %
1648 29-10-2019 09:38:17 7.3 C 20 %
1649 29-10-2019 09:48:17 7.2 C 20 %
1650 29-10-2019 09:58:17 6.9 C 21 %
Sensor: Nr:Datum:Temp:Feuchte:
Aussen-T/F 1651 29-10-2019 10:08:17 7.6 C 20 %
1652 29-10-2019 10:18:17 7.8 C 20 %
1653 29-10-2019 10:28:17 8.2 C 20 %
1654 29-10-2019 10:38:17 8.1 C 20 %
1655 29-10-2019 10:48:18 8.4 C 20 %
1656 29-10-2019 10:58:18 8.7 C 20 %
1657 29-10-2019 11:08:17 8.7 C 20 %
1658 29-10-2019 11:18:17 8.6 C 20 %
1659 29-10-2019 11:28:17 8.7 C 20 %
1660 29-10-2019 11:38:17 9 C 20 %
1661 29-10-2019 11:48:18 9.4 C 20 %
1662 29-10-2019 11:58:18 9.6 C 20 %
1663 29-10-2019 12:08:17 9.6 C 20 %
1664 29-10-2019 12:18:17 9.2 C 20 %
1665 29-10-2019 12:28:17 9.6 C 20 %
1666 29-10-2019 12:38:17 10 C 20 %
1667 29-10-2019 12:48:18 9.9 C 20 %
1668 29-10-2019 12:58:18 10.4 C 20 %
1669 29-10-2019 13:08:17 10.5 C 20 %
1670 29-10-2019 13:18:17 10.4 C 20 %
1671 29-10-2019 13:28:17 10.4 C 20 %
1672 29-10-2019 13:38:17 10.4 C 20 %
1673 29-10-2019 13:48:18 10.7 C 20 %
1674 29-10-2019 13:58:18 10.3 C 20 %
1675 29-10-2019 14:08:17 10.1 C 20 %
Sensor: Nr:Datum:Temp:Feuchte:
Aussen-T/F 1676 29-10-2019 14:18:17 10.5 C 20 %
1677 29-10-2019 14:28:17 10.8 C 20 %
1678 29-10-2019 14:38:17 11.6 C 20 %
1679 29-10-2019 14:48:17 11.1 C 20 %
1680 29-10-2019 14:58:18 10.5 C 20 %
1681 29-10-2019 15:08:17 9.4 C 20 %
1682 29-10-2019 15:18:17 9.1 C 20 %
1683 29-10-2019 15:28:17 8.5 C 20 %
1684 29-10-2019 15:38:17 8.2 C 20 %
1685 29-10-2019 15:48:17 9.2 C 20 %
1686 29-10-2019 15:58:18 11.7 C 20 %
1687 29-10-2019 16:08:17 11.3 C 20 %
1688 29-10-2019 16:18:17 9.5 C 20 %
1689 29-10-2019 16:28:17 10 C 20 %
1690 29-10-2019 16:38:17 9.8 C 20 %
1691 29-10-2019 16:48:17 8.9 C 20 %
1692 29-10-2019 16:58:17 7.6 C 20 %
1693 29-10-2019 17:08:18 7 C 20 %
1694 29-10-2019 17:18:17 6.3 C 25 %
1695 29-10-2019 17:28:17 6 C 26 %
1696 29-10-2019 17:38:17 5.9 C 25 %
1697 29-10-2019 17:48:17 5.5 C 26 %
1698 29-10-2019 17:58:17 5.3 C 28 %
1699 29-10-2019 18:08:18 5.5 C 27 %
1700 29-10-2019 18:18:17 5.2 C 26 %
Sensor: Nr:Datum:Temp:Feuchte:
Aussen-T/F 1701 29-10-2019 18:28:17 5.1 C 28 %
1702 29-10-2019 18:38:17 4.6 C 31 %
1703 29-10-2019 18:48:17 4.5 C 31 %
1704 29-10-2019 18:58:17 4.2 C 33 %
1705 29-10-2019 19:08:18 3.9 C 35 %
1706 29-10-2019 19:18:17 3.8 C 35 %
1707 29-10-2019 19:28:17 3.6 C 35 %
1708 29-10-2019 19:38:17 3.3 C 37 %
1709 29-10-2019 19:48:17 3.2 C 38 %
1710 29-10-2019 19:58:17 3.4 C 38 %
1711 29-10-2019 20:08:17 3.3 C 38 %
1712 29-10-2019 20:18:17 3.3 C 39 %
1713 29-10-2019 20:28:17 3.2 C 38 %
1714 29-10-2019 20:38:17 3.3 C 38 %
1715 29-10-2019 20:48:17 3 C 38 %
1716 29-10-2019 20:58:17 2.8 C 39 %
1717 29-10-2019 21:08:18 2.7 C 40 %
1718 29-10-2019 21:18:17 2.3 C 39 %
1719 29-10-2019 21:28:17 2.3 C 40 %
1720 29-10-2019 21:38:17 2.2 C 40 %
1721 29-10-2019 21:48:17 2.1 C 40 %
1722 29-10-2019 21:58:17 2 C 40 %
1723 29-10-2019 22:08:18 2 C 40 %
1724 29-10-2019 22:18:17 1.8 C 41 %
1725 29-10-2019 22:28:18 1.7 C 41 %
Sensor: Nr:Datum:Temp:Feuchte:
Aussen-T/F 1726 29-10-2019 22:38:17 1.7 C 41 %
1727 29-10-2019 22:48:17 1.7 C 41 %
1728 29-10-2019 22:58:17 1.7 C 41 %
1729 29-10-2019 23:08:17 1.7 C 41 %
1730 29-10-2019 23:18:17 1.8 C 41 %
1731 29-10-2019 23:28:17 1.6 C 41 %
1732 29-10-2019 23:38:17 1.5 C 41 %
1733 29-10-2019 23:48:17 1.4 C 41 %
1734 29-10-2019 23:58:17 1.3 C 41 %
1735 30-10-2019 00:08:17 1 C 41 %
1736 30-10-2019 00:18:17 1.4 C 42 %
1737 30-10-2019 00:28:17 1.3 C 42 %
1738 30-10-2019 00:38:17 1.1 C 41 %
1739 30-10-2019 00:48:18 1.5 C 42 %
1740 30-10-2019 00:58:18 1.5 C 42 %
1741 30-10-2019 01:08:17 1.4 C 42 %
1742 30-10-2019 01:18:17 1.3 C 41 %
1743 30-10-2019 01:28:17 1.3 C 41 %
1744 30-10-2019 01:38:17 1 C 41 %
1745 30-10-2019 01:48:17 0.5 C 41 %
1746 30-10-2019 01:58:17 1.2 C 42 %
1747 30-10-2019 02:08:17 1.4 C 42 %
1748 30-10-2019 02:18:18 1.7 C 42 %
1749 30-10-2019 02:28:18 1.6 C 42 %
1750 30-10-2019 02:38:18 1.5 C 41 %
Sensor: Nr:Datum:Temp:Feuchte:
Aussen-T/F 1751 30-10-2019 02:48:17 1.4 C 41 %
1752 30-10-2019 02:58:17 1.2 C 41 %
1753 30-10-2019 03:08:17 0.9 C 42 %
1754 30-10-2019 03:18:17 0.8 C 42 %
1755 30-10-2019 03:28:17 0.5 C 41 %
1756 30-10-2019 03:38:18 0.4 C 41 %
1757 30-10-2019 03:48:17 0.1 C 41 %
1758 30-10-2019 03:58:17 0.1 C 41 %
1759 30-10-2019 04:08:17 0.5 C 42 %
1760 30-10-2019 04:18:17 0.7 C 42 %
1761 30-10-2019 04:28:17 0.7 C 42 %
1762 30-10-2019 04:38:17 0.5 C 41 %
1763 30-10-2019 04:48:18 0.2 C 41 %
1764 30-10-2019 04:58:18 0.4 C 42 %
1765 30-10-2019 05:08:17 0.7 C 42 %
1766 30-10-2019 05:18:17 0.9 C 42 %
1767 30-10-2019 05:28:17 0.9 C 42 %
1768 30-10-2019 05:38:17 1 C 41 %
1769 30-10-2019 05:48:17 0.9 C 42 %
1770 30-10-2019 05:58:17 0.8 C 42 %
1771 30-10-2019 06:08:17 0.8 C 42 %
1772 30-10-2019 06:18:17 0.5 C 42 %
1773 30-10-2019 06:28:17 0.4 C 42 %
1774 30-10-2019 06:38:17 0.5 C 42 %
1775 30-10-2019 06:48:17 0.5 C 42 %
Sensor: Nr:Datum:Temp:Feuchte:
Aussen-T/F 1776 30-10-2019 06:58:18 0.6 C 42 %
1777 30-10-2019 07:08:17 0.6 C 42 %
1778 30-10-2019 07:18:17 0.6 C 42 %
1779 30-10-2019 07:28:17 0.7 C 42 %
1780 30-10-2019 07:38:17 1.2 C 41 %
1781 30-10-2019 07:48:17 1.2 C 41 %
1782 30-10-2019 07:58:17 1.2 C 41 %
1783 30-10-2019 08:08:18 1.2 C 41 %
1784 30-10-2019 08:18:17 1.1 C 41 %
1785 30-10-2019 08:28:17 1.1 C 41 %
1786 30-10-2019 08:38:17 1.5 C 41 %
1787 30-10-2019 08:48:17 1.3 C 41 %
1788 30-10-2019 08:58:17 1.7 C 41 %
1789 30-10-2019 09:08:18 2 C 40 %
1790 30-10-2019 09:18:17 2 C 40 %
1791 30-10-2019 09:28:17 1.6 C 41 %
1792 30-10-2019 09:38:17 2.1 C 40 %
1793 30-10-2019 09:48:17 2.3 C 40 %
1794 30-10-2019 09:58:17 2.7 C 40 %
1795 30-10-2019 10:08:18 3.3 C 39 %
1796 30-10-2019 10:18:17 4 C 37 %
1797 30-10-2019 10:28:17 4 C 36 %
1798 30-10-2019 10:38:17 4.3 C 36 %
1799 30-10-2019 10:48:17 4.6 C 33 %
1800 30-10-2019 10:58:17 4.8 C 31 %
Sensor: Nr:Datum:Temp:Feuchte:
Aussen-T/F 1801 30-10-2019 11:08:17 5.1 C 31 %
1802 30-10-2019 11:18:17 5.4 C 30 %
1803 30-10-2019 11:28:17 5.2 C 29 %
1804 30-10-2019 11:38:18 5.5 C 28 %
1805 30-10-2019 11:48:17 5.8 C 28 %
1806 30-10-2019 11:58:17 5.8 C 28 %
1807 30-10-2019 12:08:17 5.8 C 25 %
1808 30-10-2019 12:18:17 6.3 C 27 %
1809 30-10-2019 12:28:17 6.7 C 27 %
1810 30-10-2019 12:38:17 6.9 C 25 %
1811 30-10-2019 12:48:17 7 C 25 %
1812 30-10-2019 12:58:17 6.8 C 23 %
1813 30-10-2019 13:08:17 6.9 C 21 %
1814 30-10-2019 13:18:17 7.1 C 21 %
1815 30-10-2019 13:28:17 7.2 C 20 %
1816 30-10-2019 13:38:18 7.3 C 20 %
1817 30-10-2019 13:48:17 7.4 C 20 %
1818 30-10-2019 13:58:17 7.4 C 20 %
1819 30-10-2019 14:08:17 7.3 C 20 %
1820 30-10-2019 14:18:17 7.4 C 20 %
1821 30-10-2019 14:28:17 7.4 C 20 %
1822 30-10-2019 14:38:17 7.6 C 20 %
1823 30-10-2019 14:48:17 7.5 C 20 %
1824 30-10-2019 14:58:17 7.5 C 20 %
1825 30-10-2019 15:08:18 7.6 C 20 %
Sensor: Nr:Datum:Temp:Feuchte:
Aussen-T/F 1826 30-10-2019 15:18:17 7.6 C 20 %
1827 30-10-2019 15:28:17 7.4 C 20 %
1828 30-10-2019 15:38:17 7 C 20 %
1829 30-10-2019 15:48:17 6.8 C 20 %
1830 30-10-2019 15:58:17 6.7 C 21 %
1831 30-10-2019 16:08:17 6.5 C 20 %
1832 30-10-2019 16:18:17 6.4 C 21 %
1833 30-10-2019 16:28:17 6.2 C 21 %
1834 30-10-2019 16:38:17 6 C 23 %
1835 30-10-2019 16:48:17 5.8 C 23 %
1836 30-10-2019 16:58:17 5.6 C 23 %
1837 30-10-2019 17:08:18 5.4 C 21 %
1838 30-10-2019 17:18:17 5.1 C 25 %
1839 30-10-2019 17:28:17 4.9 C 25 %
1840 30-10-2019 17:38:17 4.7 C 25 %
1841 30-10-2019 17:48:17 4.3 C 25 %
1842 30-10-2019 17:58:17 4.2 C 25 %
1843 30-10-2019 18:08:17 4 C 26 %
1844 30-10-2019 18:18:17 3.8 C 26 %
1845 30-10-2019 18:28:17 3.7 C 28 %
1846 30-10-2019 18:38:17 3.3 C 28 %
1847 30-10-2019 18:48:17 3.3 C 28 %
1848 30-10-2019 18:58:17 3.1 C 30 %
1849 30-10-2019 19:08:17 2.9 C 31 %
1850 30-10-2019 19:18:17 2.9 C 31 %
Sensor: Nr:Datum:Temp:Feuchte:
Aussen-T/F 1851 30-10-2019 19:28:17 2.6 C 31 %
1852 30-10-2019 19:38:18 2.4 C 32 %
1853 30-10-2019 19:48:17 2.3 C 36 %
1854 30-10-2019 19:58:17 2.2 C 36 %
1855 30-10-2019 20:08:17 2.5 C 36 %
1856 30-10-2019 20:18:17 2.3 C 35 %
1857 30-10-2019 20:28:17 2.4 C 36 %
1858 30-10-2019 20:38:17 2 C 35 %
1859 30-10-2019 20:48:18 1.6 C 37 %
1860 30-10-2019 20:58:18 1.6 C 39 %
1861 30-10-2019 21:08:17 1.6 C 39 %
1862 30-10-2019 21:18:17 1.4 C 39 %
1863 30-10-2019 21:28:17 1.3 C 40 %
1864 30-10-2019 21:38:17 1.8 C 41 %
1865 30-10-2019 21:48:17 1.5 C 39 %
1866 30-10-2019 21:58:17 1.2 C 39 %
1867 30-10-2019 22:08:18 1 C 40 %
1868 30-10-2019 22:18:17 0.8 C 40 %
1869 30-10-2019 22:28:18 1 C 41 %
1870 30-10-2019 22:38:17 0.8 C 41 %
1871 30-10-2019 22:48:17 0.7 C 41 %
1872 30-10-2019 22:58:17 0.9 C 42 %
1873 30-10-2019 23:08:18 0.8 C 42 %
1874 30-10-2019 23:18:17 0.6 C 42 %
1875 30-10-2019 23:28:17 0.4 C 41 %
Sensor: Nr:Datum:Temp:Feuchte:
Aussen-T/F 1876 30-10-2019 23:38:17 0.4 C 41 %
1877 30-10-2019 23:48:17 0.1 C 41 %
1878 30-10-2019 23:58:17 0 C 41 %
1879 31-10-2019 00:08:17 -0.2 C 41 %
1880 31-10-2019 00:18:17 -0.3 C 41 %
1881 31-10-2019 00:28:17 -0.4 C 41 %
1882 31-10-2019 00:38:18 -0.3 C 42 %
1883 31-10-2019 00:48:17 -0.3 C 42 %
1884 31-10-2019 00:58:17 -0.4 C 42 %
1885 31-10-2019 01:08:17 -0.2 C 42 %
1886 31-10-2019 01:18:17 -0.2 C 42 %
1887 31-10-2019 01:28:17 -0.5 C 41 %
1888 31-10-2019 01:38:17 -0.3 C 42 %
1889 31-10-2019 01:48:18 -0.4 C 42 %
1890 31-10-2019 01:58:18 -0.6 C 41 %
1891 31-10-2019 02:08:17 -0.6 C 41 %
1892 31-10-2019 02:18:17 -0.8 C 41 %
1893 31-10-2019 02:28:17 -0.7 C 42 %
1894 31-10-2019 02:38:17 -0.9 C 41 %
1895 31-10-2019 02:48:17 -0.9 C 41 %
1896 31-10-2019 02:58:17 -1 C 41 %
1897 31-10-2019 03:08:17 -0.9 C 42 %
1898 31-10-2019 03:18:17 -0.9 C 41 %
1899 31-10-2019 03:28:17 -1.2 C 41 %
1900 31-10-2019 03:38:17 -1.1 C 41 %
Sensor: Nr:Datum:Temp:Feuchte:
Aussen-T/F 1901 31-10-2019 03:48:18 -0.7 C 42 %
1902 31-10-2019 03:58:18 -1 C 41 %
1903 31-10-2019 04:08:17 -0.9 C 42 %
1904 31-10-2019 04:18:17 -1.2 C 41 %
1905 31-10-2019 04:28:17 -1.2 C 41 %
1906 31-10-2019 04:38:18 -1 C 42 %
1907 31-10-2019 04:48:17 -1.4 C 41 %
1908 31-10-2019 04:58:17 -1.5 C 41 %
1909 31-10-2019 05:08:17 -1.3 C 41 %
1910 31-10-2019 05:18:17 -1.4 C 41 %
1911 31-10-2019 05:28:17 -1.4 C 41 %
1912 31-10-2019 05:38:17 -1.6 C 41 %
1913 31-10-2019 05:48:17 -1.7 C 41 %
1914 31-10-2019 05:58:17 -1.7 C 41 %
1915 31-10-2019 06:08:18 -1.5 C 41 %
1916 31-10-2019 06:18:17 -1.6 C 41 %
1917 31-10-2019 06:28:17 -1.8 C 41 %
1918 31-10-2019 06:38:17 -1.8 C 41 %
1919 31-10-2019 06:48:17 -1.9 C 41 %
1920 31-10-2019 06:58:17 -2.1 C 41 %
1921 31-10-2019 07:08:17 -1.9 C 41 %
1922 31-10-2019 07:18:17 -2 C 41 %
1923 31-10-2019 07:28:17 -1.9 C 41 %
1924 31-10-2019 07:38:17 -2 C 41 %
1925 31-10-2019 07:48:17 -2 C 41 %
Sensor: Nr:Datum:Temp:Feuchte:
Aussen-T/F 1926 31-10-2019 07:58:17 -1.9 C 41 %
1927 31-10-2019 08:08:17 -2 C 41 %
1928 31-10-2019 08:18:17 -1.6 C 41 %
1929 31-10-2019 08:28:17 -1.5 C 41 %
1930 31-10-2019 08:38:17 -1.1 C 42 %
1931 31-10-2019 08:48:17 -1.3 C 41 %
1932 31-10-2019 08:58:17 -1.2 C 41 %
1933 31-10-2019 09:08:17 -0.8 C 41 %
1934 31-10-2019 09:18:17 -0.8 C 41 %
1935 31-10-2019 09:28:17 -0.7 C 41 %
1936 31-10-2019 09:38:17 -0.5 C 41 %
1937 31-10-2019 09:48:17 -0.5 C 41 %
1938 31-10-2019 09:58:17 -0.3 C 41 %
1939 31-10-2019 10:08:17 -0.2 C 41 %
1940 31-10-2019 10:18:17 0.2 C 41 %
1941 31-10-2019 10:28:17 0.3 C 41 %
1942 31-10-2019 10:38:17 0.7 C 41 %
1943 31-10-2019 10:48:18 1.7 C 41 %
1944 31-10-2019 10:58:18 1.7 C 39 %
1945 31-10-2019 11:08:17 1.9 C 38 %
1946 31-10-2019 11:18:17 2.2 C 37 %
1947 31-10-2019 11:28:17 2.4 C 36 %
1948 31-10-2019 11:38:17 2.7 C 36 %
1949 31-10-2019 11:48:17 3.1 C 33 %
1950 31-10-2019 11:58:17 3.2 C 32 %
Sensor: Nr:Datum:Temp:Feuchte:
Aussen-T/F 1951 31-10-2019 12:08:17 3.4 C 32 %
1952 31-10-2019 12:18:17 3.6 C 32 %
1953 31-10-2019 12:28:17 4.2 C 30 %
1954 31-10-2019 12:38:17 5.4 C 26 %
1955 31-10-2019 12:48:18 7.6 C 20 %
1956 31-10-2019 12:58:18 9.7 C 20 %
1957 31-10-2019 13:08:17 8.3 C 20 %
1958 31-10-2019 13:18:17 6.8 C 20 %
1959 31-10-2019 13:28:17 6.5 C 20 %
1960 31-10-2019 13:38:17 6 C 20 %
1961 31-10-2019 13:48:17 6.4 C 20 %
1962 31-10-2019 13:58:17 6 C 20 %
1963 31-10-2019 14:08:18 6 C 20 %
1964 31-10-2019 14:18:17 6.8 C 20 %
1965 31-10-2019 14:28:17 7.5 C 20 %
1966 31-10-2019 14:38:17 7.1 C 20 %
1967 31-10-2019 14:48:17 7.6 C 20 %
1968 31-10-2019 14:58:17 7.6 C 20 %
1969 31-10-2019 15:08:17 7.4 C 20 %
1970 31-10-2019 15:18:17 7 C 20 %
1971 31-10-2019 15:28:17 7.3 C 20 %
1972 31-10-2019 15:38:18 7.8 C 20 %
1973 31-10-2019 15:48:17 7.7 C 20 %
1974 31-10-2019 15:58:17 7.9 C 20 %
1975 31-10-2019 16:08:17 7.6 C 20 %
Sensor: Nr:Datum:Temp:Feuchte:
Aussen-T/F 1976 31-10-2019 16:18:17 7.4 C 20 %
1977 31-10-2019 16:28:17 6.1 C 20 %
1978 31-10-2019 16:38:17 5.7 C 20 %
1979 31-10-2019 16:48:17 4.8 C 21 %
1980 31-10-2019 16:58:17 4.5 C 21 %
1981 31-10-2019 17:08:17 4.1 C 23 %
1982 31-10-2019 17:18:17 3.8 C 26 %
1983 31-10-2019 17:28:17 3.6 C 26 %
1984 31-10-2019 17:38:18 3.2 C 26 %
1985 31-10-2019 17:48:17 2.9 C 27 %
1986 31-10-2019 17:58:17 2.8 C 27 %
1987 31-10-2019 18:08:17 2.5 C 29 %
1988 31-10-2019 18:18:17 2.2 C 28 %
1989 31-10-2019 18:28:17 2.2 C 29 %
1990 31-10-2019 18:38:18 2.2 C 29 %
1991 31-10-2019 18:48:17 2.1 C 30 %
1992 31-10-2019 18:58:17 1.9 C 30 %
1993 31-10-2019 19:08:17 2.1 C 30 %
1994 31-10-2019 19:18:17 1.7 C 31 %
1995 31-10-2019 19:28:17 1.8 C 32 %
1996 31-10-2019 19:38:17 1.6 C 31 %
1997 31-10-2019 19:48:18 1.4 C 32 %
1998 31-10-2019 19:58:18 1.3 C 33 %
1999 31-10-2019 20:08:17 1 C 34 %
2000 31-10-2019 20:18:17 1 C 35 %
Sensor: Nr:Datum:Temp:Feuchte:
Aussen-T/F 2001 31-10-2019 20:28:17 0.8 C 36 %
2002 31-10-2019 20:38:17 0.8 C 36 %
2003 31-10-2019 20:48:18 0.7 C 37 %
2004 31-10-2019 20:58:18 0.6 C 38 %
2005 31-10-2019 21:08:17 0.5 C 38 %
2006 31-10-2019 21:18:17 0.5 C 38 %
2007 31-10-2019 21:28:17 0.3 C 38 %
2008 31-10-2019 21:38:17 0.2 C 39 %
2009 31-10-2019 21:48:18 0.4 C 40 %
2010 31-10-2019 21:58:18 0.5 C 40 %
2011 31-10-2019 22:08:17 0.5 C 40 %
2012 31-10-2019 22:18:17 0.4 C 40 %
2013 31-10-2019 22:28:17 0.1 C 39 %
2014 31-10-2019 22:38:17 0 C 39 %
2015 31-10-2019 22:48:17 0.1 C 40 %
2016 31-10-2019 22:58:17 0.1 C 40 %
2017 31-10-2019 23:08:17 0.4 C 41 %
2018 31-10-2019 23:18:17 0.4 C 40 %
2019 31-10-2019 23:28:17 0 C 38 %
2020 31-10-2019 23:38:17 0 C 40 %
2021 31-10-2019 23:48:17 0 C 40 %
2022 31-10-2019 23:58:17 -0.2 C 40 %
2023 01-11-2019 00:08:18 -0.4 C 40 %
2024 01-11-2019 00:18:17 -0.5 C 40 %
2025 01-11-2019 00:28:17 -0.5 C 41 %
Sensor: Nr:Datum:Temp:Feuchte:
Aussen-T/F 2026 01-11-2019 00:38:17 -0.4 C 41 %
2027 01-11-2019 00:48:18 -0.6 C 41 %
2028 01-11-2019 00:58:18 -0.6 C 42 %
2029 01-11-2019 01:08:18 -0.7 C 41 %
2030 01-11-2019 01:18:17 -0.6 C 41 %
2031 01-11-2019 01:28:17 -0.6 C 41 %
2032 01-11-2019 01:38:17 -0.7 C 41 %
2033 01-11-2019 01:48:17 -0.7 C 41 %
2034 01-11-2019 01:58:17 -0.7 C 41 %
2035 01-11-2019 02:08:17 -0.7 C 41 %
2036 01-11-2019 02:18:17 -0.6 C 41 %
2037 01-11-2019 02:28:17 -0.7 C 41 %
2038 01-11-2019 02:38:17 -0.6 C 42 %
2039 01-11-2019 02:48:18 -0.6 C 42 %
2040 01-11-2019 02:58:18 -0.6 C 42 %
2041 01-11-2019 03:08:17 -0.7 C 41 %
2042 01-11-2019 03:18:17 -0.7 C 41 %
2043 01-11-2019 03:28:17 -0.7 C 41 %
2044 01-11-2019 03:38:17 -0.7 C 41 %
2045 01-11-2019 03:48:17 -0.7 C 42 %
2046 01-11-2019 03:58:17 -0.2 C 42 %
2047 01-11-2019 04:08:17 0 C 42 %
2048 01-11-2019 04:18:17 0.3 C 42 %
2049 01-11-2019 04:28:17 0.5 C 43 %
2050 01-11-2019 04:38:17 0.8 C 43 %
Sensor: Nr:Datum:Temp:Feuchte:
Aussen-T/F 2051 01-11-2019 04:48:17 1 C 41 %
2052 01-11-2019 04:58:17 1.2 C 41 %
2053 01-11-2019 05:08:17 1.5 C 41 %
2054 01-11-2019 05:18:17 1.6 C 41 %
2055 01-11-2019 05:28:17 1.7 C 41 %
2056 01-11-2019 05:38:17 1.9 C 40 %
2057 01-11-2019 05:48:17 2 C 39 %
2058 01-11-2019 05:58:17 2.1 C 39 %
2059 01-11-2019 06:08:17 2.3 C 38 %
2060 01-11-2019 06:18:17 2.3 C 36 %
2061 01-11-2019 06:28:17 2.4 C 36 %
2062 01-11-2019 06:38:18 2.5 C 37 %
2063 01-11-2019 06:48:17 2.5 C 37 %
2064 01-11-2019 06:58:17 2.7 C 37 %
2065 01-11-2019 07:08:17 2.7 C 37 %
2066 01-11-2019 07:18:17 2.8 C 37 %
2067 01-11-2019 07:28:17 3 C 36 %
2068 01-11-2019 07:38:17 3.2 C 37 %
2069 01-11-2019 07:48:17 3.3 C 37 %
2070 01-11-2019 07:58:17 3.4 C 37 %
2071 01-11-2019 08:08:18 3.5 C 38 %
2072 01-11-2019 08:18:17 3.6 C 39 %
2073 01-11-2019 08:28:17 3.8 C 40 %
2074 01-11-2019 08:38:17 4.1 C 40 %
2075 01-11-2019 08:48:17 4.3 C 40 %
Sensor: Nr:Datum:Temp:Feuchte:
Aussen-T/F 2076 01-11-2019 08:58:17 4.5 C 39 %
2077 01-11-2019 09:08:18 4.7 C 40 %
2078 01-11-2019 09:18:17 4.8 C 40 %
2079 01-11-2019 09:28:17 4.9 C 38 %
2080 01-11-2019 09:38:17 5.2 C 37 %
2081 01-11-2019 09:48:17 5.5 C 39 %
2082 01-11-2019 09:58:17 5.6 C 37 %
2083 01-11-2019 10:08:17 5.8 C 33 %
2084 01-11-2019 10:18:17 6.3 C 32 %
2085 01-11-2019 10:28:17 6.5 C 32 %
2086 01-11-2019 10:38:18 6.9 C 33 %
2087 01-11-2019 10:48:17 7.3 C 31 %
2088 01-11-2019 10:58:17 7.4 C 30 %
2089 01-11-2019 11:08:17 7.4 C 26 %
2090 01-11-2019 11:18:17 7.3 C 26 %
2091 01-11-2019 11:28:17 7.2 C 26 %
2092 01-11-2019 11:38:17 7.6 C 26 %
2093 01-11-2019 11:48:17 7.9 C 25 %
2094 01-11-2019 11:58:17 8 C 26 %
2095 01-11-2019 12:08:17 8.1 C 26 %
2096 01-11-2019 12:18:17 8.5 C 26 %
2097 01-11-2019 12:28:17 8.1 C 25 %
2098 01-11-2019 12:38:17 8 C 25 %
2099 01-11-2019 12:48:17 8 C 25 %
2100 01-11-2019 12:58:17 7.8 C 26 %
Sensor: Nr:Datum:Temp:Feuchte:
Aussen-T/F 2101 01-11-2019 13:08:18 7.9 C 26 %
2102 01-11-2019 13:18:17 8.3 C 27 %
2103 01-11-2019 13:28:17 8.3 C 26 %
2104 01-11-2019 13:38:17 8.1 C 27 %
2105 01-11-2019 13:48:17 7.9 C 30 %
2106 01-11-2019 13:58:17 7.9 C 30 %
2107 01-11-2019 14:08:17 8 C 31 %
2108 01-11-2019 14:18:17 8 C 31 %
2109 01-11-2019 14:28:17 8.1 C 32 %
2110 01-11-2019 14:38:17 8.1 C 33 %
2111 01-11-2019 14:48:17 8.1 C 33 %
2112 01-11-2019 14:58:17 8.1 C 33 %
2113 01-11-2019 15:08:18 8.1 C 34 %
2114 01-11-2019 15:18:17 8 C 35 %
2115 01-11-2019 15:28:17 8 C 35 %
2116 01-11-2019 15:38:17 8 C 36 %
2117 01-11-2019 15:48:17 8 C 36 %
2118 01-11-2019 15:58:17 8.1 C 36 %
2119 01-11-2019 16:08:18 8 C 36 %
2120 01-11-2019 16:18:17 8.1 C 38 %
2121 01-11-2019 16:28:17 8.1 C 38 %
2122 01-11-2019 16:38:17 8.1 C 38 %
2123 01-11-2019 16:48:17 8.1 C 38 %
2124 01-11-2019 16:58:17 8.1 C 38 %
2125 01-11-2019 17:08:17 8 C 39 %
Sensor: Nr:Datum:Temp:Feuchte:
Aussen-T/F 2126 01-11-2019 17:18:17 8.2 C 39 %
2127 01-11-2019 17:28:17 8.1 C 39 %
2128 01-11-2019 17:38:17 8.1 C 38 %
2129 01-11-2019 17:48:17 8.1 C 38 %
2130 01-11-2019 17:58:17 8.2 C 38 %
2131 01-11-2019 18:08:17 8.2 C 38 %
2132 01-11-2019 18:18:17 8.1 C 38 %
2133 01-11-2019 18:28:17 8.1 C 38 %
2134 01-11-2019 18:38:17 8.1 C 38 %
2135 01-11-2019 18:48:17 8.1 C 38 %
2136 01-11-2019 18:58:17 8.1 C 39 %
2137 01-11-2019 19:08:17 8.1 C 39 %
2138 01-11-2019 19:18:17 8.2 C 39 %
2139 01-11-2019 19:28:17 8.2 C 39 %
2140 01-11-2019 19:38:17 8.3 C 39 %
2141 01-11-2019 19:48:17 8.3 C 38 %
2142 01-11-2019 19:58:17 8.3 C 38 %
2143 01-11-2019 20:08:17 8.4 C 38 %
2144 01-11-2019 20:18:17 8.4 C 38 %
2145 01-11-2019 20:28:17 8.5 C 38 %
2146 01-11-2019 20:38:17 8.6 C 38 %
2147 01-11-2019 20:48:17 8.6 C 38 %
2148 01-11-2019 20:58:18 8.9 C 38 %
2149 01-11-2019 21:08:17 8.9 C 38 %
2150 01-11-2019 21:18:17 8.9 C 38 %
Sensor: Nr:Datum:Temp:Feuchte:
Aussen-T/F 2151 01-11-2019 21:28:17 9 C 38 %
2152 01-11-2019 21:38:17 9.1 C 38 %
2153 01-11-2019 21:48:17 9.2 C 38 %
2154 01-11-2019 21:58:17 9.2 C 38 %
2155 01-11-2019 22:08:17 9.4 C 38 %
2156 01-11-2019 22:18:17 9.5 C 38 %
2157 01-11-2019 22:28:17 9.7 C 38 %
2158 01-11-2019 22:38:17 9.5 C 38 %
2159 01-11-2019 22:48:17 9.7 C 38 %
2160 01-11-2019 22:58:17 9.7 C 38 %
2161 01-11-2019 23:08:17 9.7 C 38 %
2162 01-11-2019 23:18:17 9.8 C 38 %
2163 01-11-2019 23:28:17 9.9 C 38 %
2164 01-11-2019 23:38:17 9.9 C 38 %
2165 01-11-2019 23:48:17 9.9 C 38 %
2166 01-11-2019 23:58:17 10 C 37 %
2167 02-11-2019 00:08:17 10.4 C 37 %
2168 02-11-2019 00:18:17 10.7 C 37 %
2169 02-11-2019 00:28:17 10.8 C 37 %
2170 02-11-2019 00:38:17 10.8 C 37 %
2171 02-11-2019 00:48:17 10.8 C 37 %
2172 02-11-2019 00:58:17 11 C 36 %
2173 02-11-2019 01:08:17 11.3 C 36 %
2174 02-11-2019 01:18:17 11.4 C 36 %
2175 02-11-2019 01:28:17 11.4 C 36 %
Sensor: Nr:Datum:Temp:Feuchte:
Aussen-T/F 2176 02-11-2019 01:38:17 11.4 C 36 %
2177 02-11-2019 01:48:17 11.4 C 36 %
2178 02-11-2019 01:58:17 11.3 C 36 %
2179 02-11-2019 02:08:17 11.4 C 36 %
2180 02-11-2019 02:18:17 11.3 C 36 %
2181 02-11-2019 02:28:17 11.3 C 36 %
2182 02-11-2019 02:38:17 11.3 C 36 %
2183 02-11-2019 02:48:17 11.6 C 36 %
2184 02-11-2019 02:58:17 11.6 C 36 %
2185 02-11-2019 03:08:17 11.3 C 36 %
2186 02-11-2019 03:18:17 11.7 C 36 %
2187 02-11-2019 03:28:17 12 C 36 %
2188 02-11-2019 03:38:17 11.6 C 36 %
2189 02-11-2019 03:48:17 11.4 C 35 %
2190 02-11-2019 03:58:17 11.3 C 35 %
2191 02-11-2019 04:08:17 11.5 C 35 %
2192 02-11-2019 04:18:17 11.3 C 36 %
2193 02-11-2019 04:28:17 11.6 C 36 %
2194 02-11-2019 04:38:17 11.7 C 36 %
2195 02-11-2019 04:48:17 11.5 C 36 %
2196 02-11-2019 04:58:17 12 C 36 %
2197 02-11-2019 05:08:17 11.9 C 36 %
2198 02-11-2019 05:18:17 12 C 36 %
2199 02-11-2019 05:28:17 12.1 C 36 %
2200 02-11-2019 05:38:17 12.1 C 36 %
Sensor: Nr:Datum:Temp:Feuchte:
Aussen-T/F 2201 02-11-2019 05:48:17 12.1 C 36 %
2202 02-11-2019 05:58:17 12.1 C 36 %
2203 02-11-2019 06:08:18 12.3 C 36 %
2204 02-11-2019 06:18:17 12.4 C 36 %
2205 02-11-2019 06:28:17 12.5 C 36 %
2206 02-11-2019 06:38:17 12.8 C 38 %
2207 02-11-2019 06:48:17 13.4 C 36 %
2208 02-11-2019 06:58:17 13.1 C 34 %
2209 02-11-2019 07:08:17 12.8 C 34 %
2210 02-11-2019 07:18:17 12.8 C 34 %
2211 02-11-2019 07:28:17 12.8 C 34 %
2212 02-11-2019 07:38:18 13 C 34 %
2213 02-11-2019 07:48:17 13.1 C 34 %
2214 02-11-2019 07:58:17 13.2 C 34 %
2215 02-11-2019 08:08:17 13.2 C 33 %
2216 02-11-2019 08:18:17 13.2 C 33 %
2217 02-11-2019 08:28:17 13.4 C 34 %
2218 02-11-2019 08:38:17 13.4 C 34 %
2219 02-11-2019 08:48:18 13.4 C 33 %
2220 02-11-2019 08:58:18 13.6 C 33 %
2221 02-11-2019 09:08:17 14.1 C 32 %
2222 02-11-2019 09:18:17 14.2 C 31 %
2223 02-11-2019 09:28:17 14.7 C 25 %
2224 02-11-2019 09:38:17 15 C 21 %
2225 02-11-2019 09:48:18 15.6 C 20 %
Sensor: Nr:Datum:Temp:Feuchte:
Aussen-T/F 2226 02-11-2019 09:58:18 15 C 20 %
2227 02-11-2019 10:08:17 15 C 21 %
2228 02-11-2019 10:18:17 15 C 21 %
2229 02-11-2019 10:28:17 15 C 21 %
2230 02-11-2019 10:38:17 14.3 C 25 %
2231 02-11-2019 10:48:17 15.1 C 21 %
2232 02-11-2019 10:58:17 15.6 C 20 %
2233 02-11-2019 11:08:17 15.7 C 20 %
2234 02-11-2019 11:18:17 15.7 C 20 %
2235 02-11-2019 11:28:17 16 C 20 %
2236 02-11-2019 11:38:17 16.2 C 20 %
2237 02-11-2019 11:48:17 16.2 C 20 %
2238 02-11-2019 11:58:17 16.3 C 20 %
2239 02-11-2019 12:08:17 16.5 C 20 %
2240 02-11-2019 12:18:17 16.6 C 20 %
2241 02-11-2019 12:28:17 16.3 C 20 %
2242 02-11-2019 12:38:17 16.4 C 20 %
2243 02-11-2019 12:48:17 16.6 C 20 %
2244 02-11-2019 12:58:17 16.6 C 20 %
2245 02-11-2019 13:08:17 16.2 C 20 %
2246 02-11-2019 13:18:17 16.6 C 20 %
2247 02-11-2019 13:28:17 16.4 C 20 %
2248 02-11-2019 13:38:17 16.2 C 20 %
2249 02-11-2019 13:48:18 16.1 C 20 %
2250 02-11-2019 13:58:18 16.1 C 20 %
Sensor: Nr:Datum:Temp:Feuchte:
Aussen-T/F 2251 02-11-2019 14:08:17 16.2 C 20 %
2252 02-11-2019 14:18:17 16.6 C 20 %
2253 02-11-2019 14:28:17 16.4 C 20 %
2254 02-11-2019 14:38:17 16.1 C 20 %
2255 02-11-2019 14:48:18 16.1 C 20 %
2256 02-11-2019 14:58:18 15.6 C 20 %
2257 02-11-2019 15:08:17 15.3 C 20 %
2258 02-11-2019 15:18:17 15 C 20 %
2259 02-11-2019 15:28:17 14.8 C 20 %
2260 02-11-2019 15:38:17 14.5 C 20 %
2261 02-11-2019 15:48:17 14.5 C 20 %
2262 02-11-2019 15:58:17 14.5 C 20 %
2263 02-11-2019 16:08:17 14.3 C 20 %
2264 02-11-2019 16:18:17 14.4 C 20 %
2265 02-11-2019 16:28:17 14.5 C 20 %
2266 02-11-2019 16:38:17 14.3 C 20 %
2267 02-11-2019 16:48:17 14.7 C 20 %
2268 02-11-2019 16:58:17 14.3 C 20 %
2269 02-11-2019 17:08:17 14.6 C 20 %
2270 02-11-2019 17:18:17 14.1 C 20 %
2271 02-11-2019 17:28:17 12.2 C 20 %
2272 02-11-2019 17:38:17 11.7 C 27 %
2273 02-11-2019 17:48:17 11.6 C 25 %
2274 02-11-2019 17:58:18 11.5 C 25 %
2275 02-11-2019 18:08:17 11.3 C 26 %
Sensor: Nr:Datum:Temp:Feuchte:
Aussen-T/F 2276 02-11-2019 18:18:17 11 C 27 %
2277 02-11-2019 18:28:17 10.7 C 28 %
2278 02-11-2019 18:38:17 10.7 C 30 %
2279 02-11-2019 18:48:17 10.7 C 30 %
2280 02-11-2019 18:58:17 10.7 C 30 %
2281 02-11-2019 19:08:17 10.6 C 30 %
2282 02-11-2019 19:18:17 10.8 C 30 %
2283 02-11-2019 19:28:17 11 C 29 %
2284 02-11-2019 19:38:17 11 C 26 %
2285 02-11-2019 19:48:17 10.7 C 28 %
2286 02-11-2019 19:58:17 10.7 C 30 %
2287 02-11-2019 20:08:18 10.5 C 29 %
2288 02-11-2019 20:18:17 10.7 C 27 %
2289 02-11-2019 20:28:17 10.7 C 27 %
2290 02-11-2019 20:38:17 10.8 C 26 %
2291 02-11-2019 20:48:17 11.1 C 25 %
2292 02-11-2019 20:58:17 10.6 C 26 %
2293 02-11-2019 21:08:18 10.7 C 25 %
2294 02-11-2019 21:18:18 10.7 C 23 %
2295 02-11-2019 21:28:18 10.5 C 23 %
2296 02-11-2019 21:38:17 10.4 C 22 %
2297 02-11-2019 21:48:17 10.5 C 23 %
2298 02-11-2019 21:58:17 10.2 C 25 %
2299 02-11-2019 22:08:17 10.2 C 25 %
2300 02-11-2019 22:18:17 10.5 C 22 %
Sensor: Nr:Datum:Temp:Feuchte:
Aussen-T/F 2301 02-11-2019 22:28:17 10.4 C 22 %
2302 02-11-2019 22:38:17 10.1 C 25 %
2303 02-11-2019 22:48:18 10.1 C 23 %
2304 02-11-2019 22:58:18 9.8 C 26 %
2305 02-11-2019 23:08:17 9.6 C 27 %
2306 02-11-2019 23:18:17 9.6 C 27 %
2307 02-11-2019 23:28:17 9.8 C 26 %
2308 02-11-2019 23:38:17 10.6 C 20 %
2309 02-11-2019 23:48:17 10.9 C 20 %
2310 02-11-2019 23:58:17 10.2 C 20 %
2311 03-11-2019 00:08:17 9.8 C 21 %
2312 03-11-2019 00:18:18 9.6 C 25 %
2313 03-11-2019 00:28:18 9.6 C 25 %
2314 03-11-2019 00:38:17 9.2 C 26 %
2315 03-11-2019 00:48:17 9.3 C 26 %
2316 03-11-2019 00:58:17 9.3 C 26 %
2317 03-11-2019 01:08:17 9.7 C 26 %
2318 03-11-2019 01:18:17 9.8 C 25 %
2319 03-11-2019 01:28:17 9.9 C 25 %
2320 03-11-2019 01:38:17 10 C 25 %
2321 03-11-2019 01:48:17 9.7 C 26 %
2322 03-11-2019 01:58:17 9.7 C 26 %
2323 03-11-2019 02:08:17 9.3 C 27 %
2324 03-11-2019 02:18:17 9.3 C 27 %
2325 03-11-2019 02:28:17 8.9 C 30 %
Sensor: Nr:Datum:Temp:Feuchte:
Aussen-T/F 2326 03-11-2019 02:38:17 9 C 30 %
2327 03-11-2019 02:48:17 9.2 C 30 %
2328 03-11-2019 02:58:17 9.2 C 30 %
2329 03-11-2019 03:08:17 9 C 33 %
2330 03-11-2019 03:18:17 9.2 C 31 %
2331 03-11-2019 03:28:17 9.2 C 31 %
2332 03-11-2019 03:38:17 9.1 C 33 %
2333 03-11-2019 03:48:18 9.2 C 35 %
2334 03-11-2019 03:58:18 9.3 C 34 %
2335 03-11-2019 04:08:17 9.5 C 32 %
2336 03-11-2019 04:18:17 9.5 C 33 %
2337 03-11-2019 04:28:17 9.4 C 35 %
2338 03-11-2019 04:38:17 9.4 C 36 %
2339 03-11-2019 04:48:17 9.3 C 36 %
2340 03-11-2019 04:58:17 9.3 C 36 %
2341 03-11-2019 05:08:18 9.4 C 37 %
2342 03-11-2019 05:18:17 9.4 C 36 %
2343 03-11-2019 05:28:17 9.4 C 36 %
2344 03-11-2019 05:38:17 9.4 C 37 %
2345 03-11-2019 05:48:18 9.4 C 37 %
2346 03-11-2019 05:58:18 9.5 C 37 %
2347 03-11-2019 06:08:17 9.5 C 37 %
2348 03-11-2019 06:18:17 9.6 C 37 %
2349 03-11-2019 06:28:17 9.7 C 36 %
2350 03-11-2019 06:38:17 9.7 C 36 %
Sensor: Nr:Datum:Temp:Feuchte:
Aussen-T/F 2351 03-11-2019 06:48:17 9.6 C 36 %
2352 03-11-2019 06:58:18 9.7 C 36 %
2353 03-11-2019 07:08:17 9.7 C 36 %
2354 03-11-2019 07:18:17 9.6 C 36 %
2355 03-11-2019 07:28:17 9.5 C 38 %
2356 03-11-2019 07:38:17 9.6 C 38 %
2357 03-11-2019 07:48:17 9.4 C 37 %
2358 03-11-2019 07:58:17 9.3 C 37 %
2359 03-11-2019 08:08:17 9.6 C 38 %
2360 03-11-2019 08:18:17 9.8 C 38 %
2361 03-11-2019 08:28:17 9.9 C 38 %
2362 03-11-2019 08:38:17 9.9 C 38 %
2363 03-11-2019 08:48:17 10.1 C 37 %
2364 03-11-2019 08:58:17 10.4 C 37 %
2365 03-11-2019 09:08:17 10.6 C 37 %
2366 03-11-2019 09:18:17 10.7 C 37 %
2367 03-11-2019 09:28:17 10.8 C 36 %
2368 03-11-2019 09:38:17 10.8 C 36 %
2369 03-11-2019 09:48:17 11.4 C 34 %
2370 03-11-2019 09:58:17 11.8 C 30 %
2371 03-11-2019 10:08:17 12.1 C 26 %
2372 03-11-2019 10:18:17 12.1 C 26 %
2373 03-11-2019 10:28:17 12.4 C 26 %
2374 03-11-2019 10:38:18 12.3 C 26 %
2375 03-11-2019 10:48:17 12.5 C 25 %
Sensor: Nr:Datum:Temp:Feuchte:
Aussen-T/F 2376 03-11-2019 10:58:17 12.6 C 25 %
2377 03-11-2019 11:08:17 13.2 C 21 %
2378 03-11-2019 11:18:17 14 C 20 %
2379 03-11-2019 11:28:17 14 C 20 %
2380 03-11-2019 11:38:17 14.3 C 20 %
2381 03-11-2019 11:48:17 14.2 C 20 %
2382 03-11-2019 11:58:17 14.9 C 20 %
2383 03-11-2019 12:08:17 15 C 20 %
2384 03-11-2019 12:18:17 15.2 C 20 %
2385 03-11-2019 12:28:17 15.4 C 20 %
2386 03-11-2019 12:38:17 15.5 C 20 %
2387 03-11-2019 12:48:17 16.8 C 20 %
2388 03-11-2019 12:58:17 15.8 C 20 %
2389 03-11-2019 13:08:17 16.3 C 20 %
2390 03-11-2019 13:18:17 16.4 C 20 %
2391 03-11-2019 13:28:17 15.6 C 20 %
2392 03-11-2019 13:38:17 16 C 20 %
2393 03-11-2019 13:48:17 16.4 C 20 %
2394 03-11-2019 13:58:17 16.5 C 20 %
2395 03-11-2019 14:08:17 16.8 C 20 %
2396 03-11-2019 14:18:17 15.8 C 20 %
2397 03-11-2019 14:28:17 15.9 C 20 %
2398 03-11-2019 14:38:17 15.8 C 20 %
2399 03-11-2019 14:48:17 16 C 20 %
2400 03-11-2019 14:58:17 15.9 C 20 %
Sensor: Nr:Datum:Temp:Feuchte:
Aussen-T/F 2401 03-11-2019 15:08:17 15.6 C 20 %
2402 03-11-2019 15:18:17 14.9 C 20 %
2403 03-11-2019 15:28:17 14.8 C 20 %
2404 03-11-2019 15:38:17 14.6 C 20 %
2405 03-11-2019 15:48:17 14.2 C 20 %
2406 03-11-2019 15:58:17 14 C 20 %
2407 03-11-2019 16:08:17 13.8 C 20 %
2408 03-11-2019 16:18:17 13.7 C 20 %
2409 03-11-2019 16:28:17 13.5 C 20 %
2410 03-11-2019 16:38:17 13.5 C 20 %
2411 03-11-2019 16:48:17 12.9 C 25 %
2412 03-11-2019 16:58:17 12.8 C 25 %
2413 03-11-2019 17:08:18 12.6 C 25 %
2414 03-11-2019 17:18:17 12.6 C 25 %
2415 03-11-2019 17:28:17 11.9 C 30 %
2416 03-11-2019 17:38:17 11.8 C 31 %
2417 03-11-2019 17:48:17 11.7 C 33 %
2418 03-11-2019 17:58:17 11.7 C 35 %
2419 03-11-2019 18:08:17 11.7 C 35 %
2420 03-11-2019 18:18:17 11.4 C 37 %
2421 03-11-2019 18:28:17 11.5 C 37 %
2422 03-11-2019 18:38:18 11.5 C 37 %
2423 03-11-2019 18:48:17 11.4 C 37 %
2424 03-11-2019 18:58:17 11.3 C 37 %
2425 03-11-2019 19:08:17 11.2 C 37 %
Sensor: Nr:Datum:Temp:Feuchte:
Aussen-T/F 2426 03-11-2019 19:18:17 11.1 C 37 %
2427 03-11-2019 19:28:17 11 C 37 %
2428 03-11-2019 19:38:17 10.7 C 37 %
2429 03-11-2019 19:48:18 10.5 C 37 %
2430 03-11-2019 19:58:18 10.4 C 37 %
2431 03-11-2019 20:08:17 10.4 C 37 %
2432 03-11-2019 20:18:17 10.4 C 37 %
2433 03-11-2019 20:28:17 10.4 C 37 %
2434 03-11-2019 20:38:17 10.4 C 37 %
2435 03-11-2019 20:48:18 10.4 C 37 %
2436 03-11-2019 20:58:18 10.2 C 37 %
2437 03-11-2019 21:08:17 10.3 C 37 %
2438 03-11-2019 21:18:17 10.3 C 35 %
2439 03-11-2019 21:28:17 10.4 C 34 %
2440 03-11-2019 21:38:17 10.4 C 32 %
2441 03-11-2019 21:48:18 10.4 C 32 %
2442 03-11-2019 21:58:18 10.4 C 32 %
2443 03-11-2019 22:08:17 10.5 C 31 %
2444 03-11-2019 22:18:17 10.3 C 31 %
2445 03-11-2019 22:28:17 10.4 C 32 %
2446 03-11-2019 22:38:17 10.3 C 34 %
2447 03-11-2019 22:48:17 10.1 C 34 %
2448 03-11-2019 22:58:17 9.8 C 36 %
2449 03-11-2019 23:08:18 10 C 36 %
2450 03-11-2019 23:18:17 10.1 C 35 %
Sensor: Nr:Datum:Temp:Feuchte:
Aussen-T/F 2451 03-11-2019 23:28:18 10.5 C 32 %
2452 03-11-2019 23:38:17 11.1 C 26 %
2453 03-11-2019 23:48:17 11.1 C 26 %
2454 03-11-2019 23:58:17 11.2 C 26 %
2455 04-11-2019 00:08:17 10.7 C 28 %
2456 04-11-2019 00:18:17 10.6 C 29 %
2457 04-11-2019 00:28:17 10.7 C 25 %
2458 04-11-2019 00:38:18 10.8 C 25 %
2459 04-11-2019 00:48:17 10.7 C 25 %
2460 04-11-2019 00:58:17 10.9 C 25 %
2461 04-11-2019 01:08:17 10.7 C 25 %
2462 04-11-2019 01:18:17 10.8 C 25 %
2463 04-11-2019 01:28:17 10.8 C 25 %
2464 04-11-2019 01:38:17 10.2 C 27 %
2465 04-11-2019 01:48:17 10 C 29 %
2466 04-11-2019 01:58:18 9.7 C 33 %
2467 04-11-2019 02:08:17 9.6 C 32 %
2468 04-11-2019 02:18:17 8.9 C 35 %
2469 04-11-2019 02:28:17 9 C 35 %
2470 04-11-2019 02:38:17 9 C 35 %
2471 04-11-2019 02:48:18 9.3 C 30 %
2472 04-11-2019 02:58:18 9.5 C 29 %
2473 04-11-2019 03:08:17 9.8 C 27 %
2474 04-11-2019 03:18:17 9.6 C 28 %
2475 04-11-2019 03:28:17 9.3 C 31 %
Sensor: Nr:Datum:Temp:Feuchte:
Aussen-T/F 2476 04-11-2019 03:38:17 9.3 C 32 %
2477 04-11-2019 03:48:17 9.3 C 35 %
2478 04-11-2019 03:58:17 9.3 C 35 %
2479 04-11-2019 04:08:17 9.3 C 35 %
2480 04-11-2019 04:18:17 9.6 C 31 %
2481 04-11-2019 04:28:17 9.7 C 33 %
2482 04-11-2019 04:38:17 9.5 C 35 %
2483 04-11-2019 04:48:17 9.5 C 37 %
2484 04-11-2019 04:58:17 9.5 C 36 %
2485 04-11-2019 05:08:17 9.5 C 36 %
2486 04-11-2019 05:18:17 9.7 C 36 %
2487 04-11-2019 05:28:17 10.1 C 30 %
2488 04-11-2019 05:38:17 10.1 C 30 %
2489 04-11-2019 05:48:17 9.7 C 31 %
2490 04-11-2019 05:58:17 9.1 C 32 %
2491 04-11-2019 06:08:18 8.9 C 37 %
2492 04-11-2019 06:18:17 8.8 C 37 %
2493 04-11-2019 06:28:17 8.8 C 36 %
2494 04-11-2019 06:38:17 9.1 C 35 %
2495 04-11-2019 06:48:18 9 C 35 %
2496 04-11-2019 06:58:18 8.6 C 34 %
2497 04-11-2019 07:08:17 8.6 C 35 %
2498 04-11-2019 07:18:17 8.4 C 32 %
2499 04-11-2019 07:28:17 8.4 C 34 %
2500 04-11-2019 07:38:17 9 C 30 %
Sensor: Nr:Datum:Temp:Feuchte:
Aussen-T/F 2501 04-11-2019 07:48:17 9 C 30 %
2502 04-11-2019 07:58:17 8.5 C 31 %
2503 04-11-2019 08:08:18 8.7 C 33 %
2504 04-11-2019 08:18:17 8.7 C 35 %
2505 04-11-2019 08:28:17 8.7 C 35 %
2506 04-11-2019 08:38:17 9.4 C 35 %
2507 04-11-2019 08:48:17 9.6 C 34 %
2508 04-11-2019 08:58:17 9.6 C 33 %
2509 04-11-2019 09:08:17 9.5 C 26 %
2510 04-11-2019 09:18:17 9.5 C 28 %
2511 04-11-2019 09:28:17 9.6 C 28 %
2512 04-11-2019 09:38:17 9.7 C 29 %
2513 04-11-2019 09:48:17 10 C 26 %
2514 04-11-2019 09:58:17 10.5 C 25 %
2515 04-11-2019 10:08:17 11.1 C 23 %
2516 04-11-2019 10:18:17 11.1 C 22 %
2517 04-11-2019 10:28:17 11.1 C 22 %
2518 04-11-2019 10:38:17 10.6 C 25 %
2519 04-11-2019 10:48:17 10.4 C 26 %
2520 04-11-2019 10:58:17 10.4 C 26 %
2521 04-11-2019 11:08:17 10.5 C 28 %
2522 04-11-2019 11:18:17 10.2 C 29 %
2523 04-11-2019 11:28:17 10.4 C 30 %
2524 04-11-2019 11:38:17 10.7 C 28 %
2525 04-11-2019 11:48:17 10.7 C 26 %
Sensor: Nr:Datum:Temp:Feuchte:
Aussen-T/F 2526 04-11-2019 11:58:17 10.9 C 26 %
2527 04-11-2019 12:08:17 10.9 C 26 %
2528 04-11-2019 12:18:17 10.9 C 26 %
2529 04-11-2019 12:28:17 11 C 26 %
2530 04-11-2019 12:38:17 10.9 C 26 %
2531 04-11-2019 12:48:17 11 C 27 %
2532 04-11-2019 12:58:17 11.1 C 25 %
2533 04-11-2019 13:08:18 11.4 C 25 %
2534 04-11-2019 13:18:17 11.9 C 24 %
2535 04-11-2019 13:28:17 12.2 C 21 %
2536 04-11-2019 13:38:17 12.1 C 22 %
2537 04-11-2019 13:48:17 12.5 C 20 %
2538 04-11-2019 13:58:17 12.3 C 20 %
2539 04-11-2019 14:08:17 12.1 C 20 %
2540 04-11-2019 14:18:17 12.2 C 20 %
2541 04-11-2019 14:28:17 12.7 C 20 %
2542 04-11-2019 14:38:17 13.1 C 20 %
2543 04-11-2019 14:48:17 13.8 C 20 %
2544 04-11-2019 14:58:17 12.8 C 20 %
2545 04-11-2019 15:08:17 13.7 C 20 %
2546 04-11-2019 15:18:17 13.4 C 20 %
2547 04-11-2019 15:28:17 12.9 C 20 %
2548 04-11-2019 15:38:17 13.7 C 20 %
2549 04-11-2019 15:48:18 14.2 C 20 %
2550 04-11-2019 15:58:18 13.6 C 20 %
Sensor: Nr:Datum:Temp:Feuchte:
Aussen-T/F 2551 04-11-2019 16:08:17 12 C 20 %
2552 04-11-2019 16:18:17 11.5 C 20 %
2553 04-11-2019 16:28:17 11.1 C 20 %
2554 04-11-2019 16:38:17 10.4 C 25 %
2555 04-11-2019 16:48:17 10 C 26 %
2556 04-11-2019 16:58:17 10.1 C 28 %
2557 04-11-2019 17:08:17 9.8 C 27 %
2558 04-11-2019 17:18:17 9.9 C 28 %
2559 04-11-2019 17:28:17 9.8 C 28 %
2560 04-11-2019 17:38:17 9.8 C 29 %
2561 04-11-2019 17:48:18 9.6 C 30 %
2562 04-11-2019 17:58:18 9.5 C 31 %
2563 04-11-2019 18:08:17 9.1 C 31 %
2564 04-11-2019 18:18:17 9 C 32 %
2565 04-11-2019 18:28:17 8.5 C 35 %
2566 04-11-2019 18:38:17 8.4 C 35 %
2567 04-11-2019 18:48:17 8.2 C 38 %
2568 04-11-2019 18:58:17 8.4 C 38 %
2569 04-11-2019 19:08:17 8.6 C 35 %
2570 04-11-2019 19:18:17 8.6 C 35 %
2571 04-11-2019 19:28:17 8.2 C 35 %
2572 04-11-2019 19:38:17 8.2 C 35 %
2573 04-11-2019 19:48:18 8.4 C 37 %
2574 04-11-2019 19:58:18 8.4 C 37 %
2575 04-11-2019 20:08:17 8.9 C 36 %
Sensor: Nr:Datum:Temp:Feuchte:
Aussen-T/F 2576 04-11-2019 20:18:17 9.1 C 35 %
2577 04-11-2019 20:28:17 9 C 37 %
2578 04-11-2019 20:38:17 9.1 C 38 %
2579 04-11-2019 20:48:17 9.1 C 39 %
2580 04-11-2019 20:58:17 8.9 C 39 %
2581 04-11-2019 21:08:18 8.7 C 39 %
2582 04-11-2019 21:18:17 8.6 C 39 %
2583 04-11-2019 21:28:17 8.4 C 39 %
2584 04-11-2019 21:38:17 8.2 C 38 %
2585 04-11-2019 21:48:17 7.7 C 39 %
2586 04-11-2019 21:58:17 7.5 C 39 %
2587 04-11-2019 22:08:17 7.5 C 39 %
2588 04-11-2019 22:18:17 7.2 C 39 %
2589 04-11-2019 22:28:17 7.3 C 39 %
2590 04-11-2019 22:38:17 7.5 C 40 %
2591 04-11-2019 22:48:17 7.5 C 39 %
2592 04-11-2019 22:58:17 7.9 C 40 %
2593 04-11-2019 23:08:17 8.1 C 39 %
2594 04-11-2019 23:18:17 8.4 C 39 %
2595 04-11-2019 23:28:17 8.5 C 38 %
2596 04-11-2019 23:38:17 9 C 35 %
2597 04-11-2019 23:48:17 9.5 C 27 %
2598 04-11-2019 23:58:17 9.5 C 26 %
2599 05-11-2019 00:08:17 9.2 C 27 %
2600 05-11-2019 00:18:17 9 C 27 %
Sensor: Nr:Datum:Temp:Feuchte:
Aussen-T/F 2601 05-11-2019 00:28:17 9 C 27 %
2602 05-11-2019 00:38:18 8.8 C 29 %
2603 05-11-2019 00:48:17 9.1 C 27 %
2604 05-11-2019 00:58:17 9.1 C 26 %
2605 05-11-2019 01:08:17 9.1 C 26 %
2606 05-11-2019 01:18:17 8.7 C 27 %
2607 05-11-2019 01:28:17 9 C 26 %
2608 05-11-2019 01:38:17 8.7 C 27 %
2609 05-11-2019 01:48:17 8.7 C 28 %
2610 05-11-2019 01:58:17 9 C 27 %
2611 05-11-2019 02:08:17 8.8 C 28 %
2612 05-11-2019 02:18:17 8.7 C 28 %
2613 05-11-2019 02:28:17 8.5 C 31 %
2614 05-11-2019 02:38:17 8.5 C 32 %
2615 05-11-2019 02:48:17 8.9 C 27 %
2616 05-11-2019 02:58:17 8.8 C 28 %
2617 05-11-2019 03:08:17 8.7 C 28 %
2618 05-11-2019 03:18:17 9.1 C 26 %
2619 05-11-2019 03:28:17 9 C 25 %
2620 05-11-2019 03:38:17 8.8 C 27 %
2621 05-11-2019 03:48:17 9 C 25 %
2622 05-11-2019 03:58:17 8.8 C 26 %
2623 05-11-2019 04:08:18 9.2 C 25 %
2624 05-11-2019 04:18:17 9 C 25 %
2625 05-11-2019 04:28:17 9.3 C 23 %
Sensor: Nr:Datum:Temp:Feuchte:
Aussen-T/F 2626 05-11-2019 04:38:17 9.3 C 23 %
2627 05-11-2019 04:48:17 9 C 25 %
2628 05-11-2019 04:58:17 9.2 C 25 %
2629 05-11-2019 05:08:17 9.1 C 25 %
2630 05-11-2019 05:18:17 9.4 C 21 %
2631 05-11-2019 05:28:17 8.7 C 26 %
2632 05-11-2019 05:38:17 8.7 C 27 %
2633 05-11-2019 05:48:17 8.7 C 26 %
2634 05-11-2019 05:58:17 8.6 C 27 %
2635 05-11-2019 06:08:17 8.5 C 27 %
2636 05-11-2019 06:18:17 8.7 C 26 %
2637 05-11-2019 06:28:17 8.8 C 26 %
2638 05-11-2019 06:38:17 8.8 C 26 %
2639 05-11-2019 06:48:17 8.7 C 27 %
2640 05-11-2019 06:58:17 9 C 25 %
2641 05-11-2019 07:08:18 9.2 C 25 %
2642 05-11-2019 07:18:17 9 C 25 %
2643 05-11-2019 07:28:17 8.7 C 26 %
2644 05-11-2019 07:38:17 8.2 C 27 %
2645 05-11-2019 07:48:17 8.2 C 27 %
2646 05-11-2019 07:58:17 7.9 C 30 %
2647 05-11-2019 08:08:17 8.2 C 28 %
2648 05-11-2019 08:18:17 8.4 C 28 %
2649 05-11-2019 08:28:17 8.8 C 26 %
2650 05-11-2019 08:38:18 8.5 C 26 %
Sensor: Nr:Datum:Temp:Feuchte:
Aussen-T/F 2651 05-11-2019 08:48:17 9 C 25 %
2652 05-11-2019 08:58:17 9 C 25 %
2653 05-11-2019 09:08:17 8.7 C 26 %
2654 05-11-2019 09:18:17 9.1 C 21 %
2655 05-11-2019 09:28:17 8.7 C 26 %
2656 05-11-2019 09:38:17 9.2 C 25 %
2657 05-11-2019 09:48:18 9.8 C 20 %
2658 05-11-2019 09:58:18 10.4 C 20 %
2659 05-11-2019 10:08:17 10.6 C 20 %
2660 05-11-2019 10:18:17 10.3 C 20 %
2661 05-11-2019 10:28:17 10.6 C 20 %
2662 05-11-2019 10:38:17 10.6 C 20 %
2663 05-11-2019 10:48:18 10.7 C 20 %
2664 05-11-2019 10:58:18 10.6 C 20 %
2665 05-11-2019 11:08:17 10.5 C 20 %
2666 05-11-2019 11:18:17 11 C 20 %
2667 05-11-2019 11:28:17 11.7 C 20 %
2668 05-11-2019 11:38:17 11.7 C 20 %
2669 05-11-2019 11:48:17 11.7 C 20 %
2670 05-11-2019 11:58:17 11.6 C 20 %
2671 05-11-2019 12:08:18 11.7 C 20 %
2672 05-11-2019 12:18:17 11.8 C 20 %
2673 05-11-2019 12:28:17 12.2 C 20 %
2674 05-11-2019 12:38:17 12.1 C 20 %
2675 05-11-2019 12:48:17 11.5 C 20 %
Sensor: Nr:Datum:Temp:Feuchte:
Aussen-T/F 2676 05-11-2019 12:58:17 11.7 C 20 %
2677 05-11-2019 13:08:17 11.8 C 20 %
2678 05-11-2019 13:18:17 11.7 C 20 %
2679 05-11-2019 13:28:17 12.5 C 20 %
2680 05-11-2019 13:38:17 12.2 C 20 %
2681 05-11-2019 13:48:17 12.3 C 20 %
2682 05-11-2019 13:58:17 12.3 C 20 %
2683 05-11-2019 14:08:17 12.4 C 20 %
2684 05-11-2019 14:18:17 12.2 C 20 %
2685 05-11-2019 14:28:17 12 C 20 %
2686 05-11-2019 14:38:17 11.9 C 20 %
2687 05-11-2019 14:48:17 12.1 C 20 %
2688 05-11-2019 14:58:17 12.2 C 20 %
2689 05-11-2019 15:08:17 12.1 C 20 %
2690 05-11-2019 15:18:17 11.3 C 20 %
2691 05-11-2019 15:28:17 10.8 C 20 %
2692 05-11-2019 15:38:17 11 C 20 %
2693 05-11-2019 15:48:17 11 C 20 %
2694 05-11-2019 15:58:17 11.1 C 20 %
2695 05-11-2019 16:08:17 11 C 20 %
2696 05-11-2019 16:18:17 9.8 C 25 %
2697 05-11-2019 16:28:17 9.4 C 25 %
2698 05-11-2019 16:38:17 9.5 C 25 %
2699 05-11-2019 16:48:17 9.5 C 25 %
2700 05-11-2019 16:58:17 9.2 C 29 %
Sensor: Nr:Datum:Temp:Feuchte:
Aussen-T/F 2701 05-11-2019 17:08:17 9.3 C 29 %
2702 05-11-2019 17:18:17 9.3 C 30 %
2703 05-11-2019 17:28:17 9 C 31 %
2704 05-11-2019 17:38:17 8.8 C 32 %
2705 05-11-2019 17:48:17 8.4 C 35 %
2706 05-11-2019 17:58:17 8.5 C 32 %
2707 05-11-2019 18:08:18 8.4 C 33 %
2708 05-11-2019 18:18:17 8.5 C 34 %
2709 05-11-2019 18:28:17 7.9 C 34 %
2710 05-11-2019 18:38:17 7.8 C 35 %
2711 05-11-2019 18:48:17 7.8 C 36 %
2712 05-11-2019 18:58:17 7.7 C 36 %
2713 05-11-2019 19:08:18 7.6 C 37 %
2714 05-11-2019 19:18:17 7.6 C 37 %
2715 05-11-2019 19:28:17 7.7 C 37 %
2716 05-11-2019 19:38:17 7.8 C 38 %
2717 05-11-2019 19:48:17 8 C 37 %
2718 05-11-2019 19:58:17 8.1 C 36 %
2719 05-11-2019 20:08:18 7.7 C 35 %
2720 05-11-2019 20:18:17 7.9 C 36 %
2721 05-11-2019 20:28:17 7.9 C 35 %
2722 05-11-2019 20:38:17 7.5 C 35 %
2723 05-11-2019 20:48:17 7.1 C 35 %
2724 05-11-2019 20:58:17 7.1 C 37 %
2725 05-11-2019 21:08:18 7.1 C 38 %
Sensor: Nr:Datum:Temp:Feuchte:
Aussen-T/F 2726 05-11-2019 21:18:17 7.3 C 39 %
2727 05-11-2019 21:28:17 7.3 C 38 %
2728 05-11-2019 21:38:17 7.2 C 38 %
2729 05-11-2019 21:48:17 7.3 C 38 %
2730 05-11-2019 21:58:17 7.2 C 38 %
2731 05-11-2019 22:08:18 7.2 C 38 %
2732 05-11-2019 22:18:17 7.2 C 38 %
2733 05-11-2019 22:28:18 7.3 C 38 %
2734 05-11-2019 22:38:17 7.4 C 38 %
2735 05-11-2019 22:48:17 7.4 C 38 %
2736 05-11-2019 22:58:17 7.4 C 38 %
2737 05-11-2019 23:08:17 7.4 C 38 %
2738 05-11-2019 23:18:17 7.4 C 38 %
2739 05-11-2019 23:28:17 7.3 C 37 %
2740 05-11-2019 23:38:17 7.3 C 38 %
2741 05-11-2019 23:48:17 7.5 C 38 %
2742 05-11-2019 23:58:17 7.9 C 37 %
2743 06-11-2019 00:08:17 7.8 C 36 %
2744 06-11-2019 00:18:17 7.7 C 36 %
2745 06-11-2019 00:28:17 7.6 C 36 %
2746 06-11-2019 00:38:17 7.8 C 37 %
2747 06-11-2019 00:48:17 7.8 C 37 %
2748 06-11-2019 00:58:17 7.9 C 36 %
2749 06-11-2019 01:08:17 7.9 C 35 %
2750 06-11-2019 01:18:17 8 C 35 %
Sensor: Nr:Datum:Temp:Feuchte:
Aussen-T/F 2751 06-11-2019 01:28:17 7.6 C 35 %
2752 06-11-2019 01:38:17 7.3 C 37 %
2753 06-11-2019 01:48:17 7.4 C 38 %
2754 06-11-2019 01:58:17 7.3 C 38 %
2755 06-11-2019 02:08:17 7.5 C 39 %
2756 06-11-2019 02:18:17 7.7 C 39 %
2757 06-11-2019 02:28:17 7.6 C 39 %
2758 06-11-2019 02:38:17 7.6 C 39 %
2759 06-11-2019 02:48:17 7.6 C 39 %
2760 06-11-2019 02:58:17 7.5 C 39 %
2761 06-11-2019 03:08:18 7.1 C 37 %
2762 06-11-2019 03:18:18 6.9 C 39 %
2763 06-11-2019 03:28:18 6.9 C 40 %
2764 06-11-2019 03:38:17 6.6 C 39 %
2765 06-11-2019 03:48:17 6.5 C 39 %
2766 06-11-2019 03:58:17 6.4 C 39 %
2767 06-11-2019 04:08:17 6.7 C 40 %
2768 06-11-2019 04:18:17 6.8 C 40 %
2769 06-11-2019 04:28:17 7 C 39 %
2770 06-11-2019 04:38:17 6.8 C 39 %
2771 06-11-2019 04:48:17 6.9 C 39 %
2772 06-11-2019 04:58:17 6.6 C 39 %
2773 06-11-2019 05:08:17 6.7 C 39 %
2774 06-11-2019 05:18:17 6.8 C 39 %
2775 06-11-2019 05:28:17 6.8 C 39 %
Sensor: Nr:Datum:Temp:Feuchte:
Aussen-T/F 2776 06-11-2019 05:38:17 6.8 C 39 %
2777 06-11-2019 05:48:18 6.8 C 39 %
2778 06-11-2019 05:58:18 6.9 C 39 %
2779 06-11-2019 06:08:17 7.1 C 39 %
2780 06-11-2019 06:18:17 7.1 C 39 %
2781 06-11-2019 06:28:17 7.3 C 38 %
2782 06-11-2019 06:38:18 7.3 C 37 %
2783 06-11-2019 06:48:17 7.3 C 37 %
2784 06-11-2019 06:58:17 7.2 C 36 %
2785 06-11-2019 07:08:17 7.1 C 36 %
2786 06-11-2019 07:18:17 7.1 C 36 %
2787 06-11-2019 07:28:17 6.8 C 37 %
2788 06-11-2019 07:38:17 6.8 C 38 %
2789 06-11-2019 07:48:17 6.9 C 38 %
2790 06-11-2019 07:58:17 7 C 38 %
2791 06-11-2019 08:08:17 7.1 C 38 %
2792 06-11-2019 08:18:17 7.3 C 38 %
2793 06-11-2019 08:28:17 7.4 C 38 %
2794 06-11-2019 08:38:18 7.8 C 38 %
2795 06-11-2019 08:48:17 8 C 36 %
2796 06-11-2019 08:58:17 8.1 C 35 %
2797 06-11-2019 09:08:17 8.4 C 31 %
2798 06-11-2019 09:18:17 8.4 C 31 %
2799 06-11-2019 09:28:17 8.6 C 30 %
2800 06-11-2019 09:38:17 8.8 C 29 %
Sensor: Nr:Datum:Temp:Feuchte:
Aussen-T/F 2801 06-11-2019 09:48:17 9 C 27 %
2802 06-11-2019 09:58:17 9.2 C 26 %
2803 06-11-2019 10:08:17 9.3 C 25 %
2804 06-11-2019 10:18:17 9.6 C 25 %
2805 06-11-2019 10:28:17 9.6 C 25 %
2806 06-11-2019 10:38:18 9.5 C 25 %
2807 06-11-2019 10:48:17 9.5 C 25 %
2808 06-11-2019 10:58:17 9.4 C 25 %
2809 06-11-2019 11:08:17 9.4 C 25 %
2810 06-11-2019 11:18:17 9.5 C 26 %
2811 06-11-2019 11:28:17 9.4 C 26 %
2812 06-11-2019 11:38:17 9.5 C 27 %
2813 06-11-2019 11:48:17 9.5 C 27 %
2814 06-11-2019 11:58:17 9.7 C 27 %
2815 06-11-2019 12:08:17 9.9 C 26 %
2816 06-11-2019 12:18:17 9.7 C 26 %
2817 06-11-2019 12:28:17 9.6 C 27 %
2818 06-11-2019 12:38:17 9.7 C 27 %
2819 06-11-2019 12:48:17 10 C 25 %
2820 06-11-2019 12:58:17 10.2 C 25 %
2821 06-11-2019 13:08:18 10.3 C 25 %
2822 06-11-2019 13:18:17 10.5 C 23 %
2823 06-11-2019 13:28:17 10.2 C 23 %
2824 06-11-2019 13:38:17 10.3 C 23 %
2825 06-11-2019 13:48:17 10.3 C 23 %
Sensor: Nr:Datum:Temp:Feuchte:
Aussen-T/F 2826 06-11-2019 13:58:17 10.1 C 25 %
2827 06-11-2019 14:08:18 9.8 C 25 %
2828 06-11-2019 14:18:17 9.6 C 26 %
2829 06-11-2019 14:28:17 9.5 C 28 %
2830 06-11-2019 14:38:17 9.6 C 27 %
2831 06-11-2019 14:48:17 9.6 C 28 %
2832 06-11-2019 14:58:17 9.4 C 28 %
2833 06-11-2019 15:08:18 9.6 C 28 %
2834 06-11-2019 15:18:17 9.5 C 30 %
2835 06-11-2019 15:28:17 9.4 C 31 %
2836 06-11-2019 15:38:17 9.3 C 32 %
2837 06-11-2019 15:48:17 9.2 C 32 %
2838 06-11-2019 15:58:17 9.2 C 35 %
2839 06-11-2019 16:08:18 9.2 C 35 %
2840 06-11-2019 16:18:17 9.1 C 35 %
2841 06-11-2019 16:28:17 9.1 C 36 %
2842 06-11-2019 16:38:17 9 C 36 %
2843 06-11-2019 16:48:17 8.9 C 37 %
2844 06-11-2019 16:58:17 8.9 C 37 %
2845 06-11-2019 17:08:17 8.9 C 38 %
2846 06-11-2019 17:18:17 8.7 C 38 %
2847 06-11-2019 17:28:17 8.8 C 38 %
2848 06-11-2019 17:38:17 8.8 C 39 %
2849 06-11-2019 17:48:18 8.7 C 39 %
2850 06-11-2019 17:58:18 8.8 C 39 %
Sensor: Nr:Datum:Temp:Feuchte:
Aussen-T/F 2851 06-11-2019 18:08:17 8.8 C 39 %
2852 06-11-2019 18:18:17 8.8 C 39 %
2853 06-11-2019 18:28:17 8.8 C 39 %
2854 06-11-2019 18:38:17 8.8 C 39 %
2855 06-11-2019 18:48:17 8.8 C 39 %
2856 06-11-2019 18:58:17 8.8 C 39 %
2857 06-11-2019 19:08:17 8.7 C 39 %
2858 06-11-2019 19:18:17 8.7 C 38 %
2859 06-11-2019 19:28:17 8.6 C 38 %
2860 06-11-2019 19:38:17 8.6 C 38 %
2861 06-11-2019 19:48:18 8.6 C 38 %
2862 06-11-2019 19:58:18 8.5 C 38 %
2863 06-11-2019 20:08:17 8.4 C 38 %
2864 06-11-2019 20:18:17 8.4 C 38 %
2865 06-11-2019 20:28:17 8.4 C 38 %
2866 06-11-2019 20:38:17 8.3 C 38 %
2867 06-11-2019 20:48:17 8.2 C 38 %
2868 06-11-2019 20:58:17 8.3 C 38 %
2869 06-11-2019 21:08:17 8.3 C 38 %
2870 06-11-2019 21:18:17 8.3 C 38 %
2871 06-11-2019 21:28:17 8.3 C 38 %
2872 06-11-2019 21:38:17 8.3 C 38 %
2873 06-11-2019 21:48:18 8.2 C 38 %
2874 06-11-2019 21:58:18 8.2 C 38 %
2875 06-11-2019 22:08:17 8.2 C 38 %
Sensor: Nr:Datum:Temp:Feuchte:
Aussen-T/F 2876 06-11-2019 22:18:17 8.3 C 38 %
2877 06-11-2019 22:28:17 8.2 C 38 %
2878 06-11-2019 22:38:17 8.2 C 38 %
2879 06-11-2019 22:48:17 8.2 C 38 %
2880 06-11-2019 22:58:18 8.2 C 38 %
2881 06-11-2019 23:08:17 8.2 C 38 %
2882 06-11-2019 23:18:17 8.1 C 38 %
2883 06-11-2019 23:28:17 8.2 C 38 %
2884 06-11-2019 23:38:17 8.2 C 38 %
2885 06-11-2019 23:48:17 8.2 C 38 %
2886 06-11-2019 23:58:17 8 C 38 %
2887 07-11-2019 00:08:17 7.9 C 39 %
2888 07-11-2019 00:18:17 7.8 C 39 %
2889 07-11-2019 00:28:17 7.8 C 39 %
2890 07-11-2019 00:38:17 7.6 C 39 %
2891 07-11-2019 00:48:17 7.6 C 39 %
2892 07-11-2019 00:58:17 7.6 C 39 %
2893 07-11-2019 01:08:17 7.5 C 39 %
2894 07-11-2019 01:18:17 7.4 C 39 %
2895 07-11-2019 01:28:17 7.3 C 39 %
2896 07-11-2019 01:38:17 7.3 C 39 %
2897 07-11-2019 01:48:18 7.2 C 39 %
2898 07-11-2019 01:58:18 7.3 C 39 %
2899 07-11-2019 02:08:17 7.3 C 39 %
2900 07-11-2019 02:18:17 7.4 C 39 %
Sensor: Nr:Datum:Temp:Feuchte:
Aussen-T/F 2901 07-11-2019 02:28:17 7.4 C 39 %
2902 07-11-2019 02:38:17 7.4 C 39 %
2903 07-11-2019 02:48:17 7.4 C 39 %
2904 07-11-2019 02:58:17 7.5 C 38 %
2905 07-11-2019 03:08:17 7.4 C 38 %
2906 07-11-2019 03:18:17 7.2 C 38 %
2907 07-11-2019 03:28:17 7.1 C 38 %
2908 07-11-2019 03:38:17 6.9 C 39 %
2909 07-11-2019 03:48:17 6.9 C 39 %
2910 07-11-2019 03:58:18 6.8 C 39 %
2911 07-11-2019 04:08:17 6.7 C 39 %
2912 07-11-2019 04:18:17 6.9 C 39 %
2913 07-11-2019 04:28:17 6.8 C 39 %
2914 07-11-2019 04:38:17 6.9 C 39 %
2915 07-11-2019 04:48:17 6.8 C 39 %
2916 07-11-2019 04:58:17 7 C 38 %
2917 07-11-2019 05:08:17 7 C 38 %
2918 07-11-2019 05:18:17 6.8 C 39 %
2919 07-11-2019 05:28:17 6.7 C 39 %
2920 07-11-2019 05:38:17 6.7 C 39 %
2921 07-11-2019 05:48:17 6.7 C 39 %
2922 07-11-2019 05:58:17 6.7 C 39 %
2923 07-11-2019 06:08:17 6.7 C 39 %
2924 07-11-2019 06:18:17 6.7 C 39 %
2925 07-11-2019 06:28:17 6.7 C 39 %
Sensor: Nr:Datum:Temp:Feuchte:
Aussen-T/F 2926 07-11-2019 06:38:17 6.7 C 39 %
2927 07-11-2019 06:48:17 6.7 C 39 %
2928 07-11-2019 06:58:17 6.8 C 39 %
2929 07-11-2019 07:08:18 6.8 C 39 %
2930 07-11-2019 07:18:17 6.9 C 39 %
2931 07-11-2019 07:28:17 6.9 C 39 %
2932 07-11-2019 07:38:17 6.9 C 39 %
2933 07-11-2019 07:48:17 7.1 C 38 %
2934 07-11-2019 07:58:17 7.3 C 38 %
2935 07-11-2019 08:08:17 7.5 C 38 %
2936 07-11-2019 08:18:17 7.6 C 38 %
2937 07-11-2019 08:28:17 7.6 C 38 %
2938 07-11-2019 08:38:18 7.8 C 38 %
2939 07-11-2019 08:48:17 7.9 C 38 %
2940 07-11-2019 08:58:17 8.1 C 37 %
2941 07-11-2019 09:08:17 8 C 37 %
2942 07-11-2019 09:18:17 8.2 C 36 %
2943 07-11-2019 09:28:17 8.5 C 36 %
2944 07-11-2019 09:38:17 8.5 C 36 %
2945 07-11-2019 09:48:17 8.5 C 36 %
2946 07-11-2019 09:58:17 8.5 C 36 %
2947 07-11-2019 10:08:17 9.1 C 35 %
2948 07-11-2019 10:18:17 9.4 C 36 %
2949 07-11-2019 10:28:17 9.5 C 36 %
2950 07-11-2019 10:38:17 9.7 C 35 %
Sensor: Nr:Datum:Temp:Feuchte:
Aussen-T/F 2951 07-11-2019 10:48:18 9.3 C 28 %
2952 07-11-2019 10:58:18 9.3 C 29 %
2953 07-11-2019 11:08:17 9.4 C 29 %
2954 07-11-2019 11:18:17 9.2 C 29 %
2955 07-11-2019 11:28:17 9.2 C 30 %
2956 07-11-2019 11:38:17 9 C 29 %
2957 07-11-2019 11:48:18 8.9 C 29 %
2958 07-11-2019 11:58:18 8.7 C 28 %
2959 07-11-2019 12:08:17 8.7 C 33 %
2960 07-11-2019 12:18:17 8.9 C 34 %
2961 07-11-2019 12:28:17 8.9 C 34 %
2962 07-11-2019 12:38:17 8.6 C 28 %
2963 07-11-2019 12:48:17 8.9 C 26 %
2964 07-11-2019 12:58:17 8.9 C 25 %
2965 07-11-2019 13:08:17 9.7 C 25 %
2966 07-11-2019 13:18:17 9.5 C 23 %
2967 07-11-2019 13:28:17 9.4 C 26 %
2968 07-11-2019 13:38:17 10.2 C 21 %
2969 07-11-2019 13:48:17 9.8 C 20 %
2970 07-11-2019 13:58:17 9.2 C 21 %
2971 07-11-2019 14:08:17 8.9 C 25 %
2972 07-11-2019 14:18:17 8.8 C 25 %
2973 07-11-2019 14:28:17 8.8 C 25 %
2974 07-11-2019 14:38:17 9.3 C 25 %
2975 07-11-2019 14:48:18 9.7 C 23 %
Sensor: Nr:Datum:Temp:Feuchte:
Aussen-T/F 2976 07-11-2019 14:58:18 9.9 C 21 %
2977 07-11-2019 15:08:17 9.6 C 21 %
2978 07-11-2019 15:18:17 9.8 C 21 %
2979 07-11-2019 15:28:17 10.1 C 20 %
2980 07-11-2019 15:38:17 9.7 C 25 %
2981 07-11-2019 15:48:17 9.3 C 29 %
2982 07-11-2019 15:58:17 9.5 C 23 %
2983 07-11-2019 16:08:17 9.7 C 20 %
2984 07-11-2019 16:18:17 9.6 C 20 %
2985 07-11-2019 16:28:17 9.3 C 20 %
2986 07-11-2019 16:38:18 9.1 C 20 %
2987 07-11-2019 16:48:17 9 C 20 %
2988 07-11-2019 16:58:17 8.8 C 20 %
2989 07-11-2019 17:08:17 8.4 C 20 %
2990 07-11-2019 17:18:17 7.1 C 30 %
2991 07-11-2019 17:28:18 8.2 C 20 %
2992 07-11-2019 17:38:17 8 C 20 %
2993 07-11-2019 17:48:17 7.8 C 20 %
2994 07-11-2019 17:58:17 7.1 C 23 %
2995 07-11-2019 18:08:17 6.6 C 27 %
2996 07-11-2019 18:18:17 6 C 30 %
2997 07-11-2019 18:28:17 5.6 C 36 %
2998 07-11-2019 18:38:17 5.5 C 38 %
2999 07-11-2019 18:48:18 5.6 C 38 %
3000 07-11-2019 18:58:18 5.6 C 38 %
Sensor: Nr:Datum:Temp:Feuchte:
Aussen-T/F 3001 07-11-2019 19:08:17 6 C 40 %
3002 07-11-2019 19:18:17 6.4 C 39 %
3003 07-11-2019 19:28:17 6.1 C 33 %
3004 07-11-2019 19:38:17 5.8 C 34 %
3005 07-11-2019 19:48:18 5.3 C 35 %
3006 07-11-2019 19:58:18 5.1 C 36 %
3007 07-11-2019 20:08:17 5.1 C 36 %
3008 07-11-2019 20:18:17 5.6 C 40 %
3009 07-11-2019 20:28:17 5.5 C 38 %
3010 07-11-2019 20:38:17 5.3 C 36 %
3011 07-11-2019 20:48:17 5.2 C 36 %
3012 07-11-2019 20:58:17 4.9 C 37 %
3013 07-11-2019 21:08:17 4.5 C 38 %
3014 07-11-2019 21:18:17 4.5 C 39 %
3015 07-11-2019 21:28:17 4.5 C 39 %
3016 07-11-2019 21:38:18 4.5 C 39 %
3017 07-11-2019 21:48:17 4.8 C 40 %
3018 07-11-2019 21:58:17 4.5 C 38 %
3019 07-11-2019 22:08:17 4.5 C 38 %
3020 07-11-2019 22:18:17 4 C 38 %
3021 07-11-2019 22:28:17 3.6 C 40 %
3022 07-11-2019 22:38:17 3.5 C 40 %
3023 07-11-2019 22:48:17 3.3 C 40 %
3024 07-11-2019 22:58:17 3.7 C 41 %
3025 07-11-2019 23:08:18 4.1 C 40 %
Sensor: Nr:Datum:Temp:Feuchte:
Aussen-T/F 3026 07-11-2019 23:18:17 4.5 C 40 %
3027 07-11-2019 23:28:18 4.5 C 37 %
3028 07-11-2019 23:38:17 4.5 C 35 %
3029 07-11-2019 23:48:17 4.3 C 35 %
3030 07-11-2019 23:58:17 4.1 C 35 %
3031 08-11-2019 00:08:17 3.9 C 37 %
3032 08-11-2019 00:18:17 3.7 C 38 %
3033 08-11-2019 00:28:17 3.7 C 39 %
3034 08-11-2019 00:38:17 3.5 C 40 %
3035 08-11-2019 00:48:18 3.3 C 40 %
3036 08-11-2019 00:58:18 3.2 C 40 %
3037 08-11-2019 01:08:17 3.3 C 41 %
3038 08-11-2019 01:18:17 3.3 C 41 %
3039 08-11-2019 01:28:17 3.2 C 40 %
3040 08-11-2019 01:38:17 3.1 C 40 %
3041 08-11-2019 01:48:18 2.9 C 40 %
3042 08-11-2019 01:58:18 2.4 C 40 %
3043 08-11-2019 02:08:17 2 C 40 %
3044 08-11-2019 02:18:17 2 C 40 %
3045 08-11-2019 02:28:17 1.9 C 42 %
3046 08-11-2019 02:38:17 2.1 C 41 %
3047 08-11-2019 02:48:18 1.8 C 42 %
3048 08-11-2019 02:58:18 1.8 C 42 %
3049 08-11-2019 03:08:17 2 C 41 %
3050 08-11-2019 03:18:17 2 C 41 %
Sensor: Nr:Datum:Temp:Feuchte:
Aussen-T/F 3051 08-11-2019 03:28:17 1.8 C 42 %
3052 08-11-2019 03:38:17 2.3 C 41 %
3053 08-11-2019 03:48:18 2.1 C 41 %
3054 08-11-2019 03:58:18 1.7 C 41 %
3055 08-11-2019 04:08:17 1.7 C 41 %
3056 08-11-2019 04:18:17 1.4 C 41 %
3057 08-11-2019 04:28:17 1.4 C 41 %
3058 08-11-2019 04:38:17 1.2 C 41 %
3059 08-11-2019 04:48:17 1.2 C 41 %
3060 08-11-2019 04:58:17 1.3 C 41 %
3061 08-11-2019 05:08:17 1.2 C 41 %
3062 08-11-2019 05:18:17 1.2 C 41 %
3063 08-11-2019 05:28:17 1.1 C 41 %
3064 08-11-2019 05:38:17 1.1 C 41 %
3065 08-11-2019 05:48:17 1.3 C 41 %
3066 08-11-2019 05:58:17 1.3 C 41 %
3067 08-11-2019 06:08:17 1.4 C 41 %
3068 08-11-2019 06:18:17 1.4 C 41 %
3069 08-11-2019 06:28:17 1.4 C 41 %
3070 08-11-2019 06:38:18 1.3 C 41 %
3071 08-11-2019 06:48:17 1.2 C 41 %
3072 08-11-2019 06:58:17 1.1 C 41 %
3073 08-11-2019 07:08:17 1.2 C 41 %
3074 08-11-2019 07:18:17 1.5 C 41 %
3075 08-11-2019 07:28:17 1.3 C 41 %
Sensor: Nr:Datum:Temp:Feuchte:
Aussen-T/F 3076 08-11-2019 07:38:17 1.2 C 41 %
3077 08-11-2019 07:48:18 1.3 C 41 %
3078 08-11-2019 07:58:18 1.8 C 41 %
3079 08-11-2019 08:08:17 2.1 C 41 %
3080 08-11-2019 08:18:17 2.3 C 41 %
3081 08-11-2019 08:28:17 2.6 C 41 %
3082 08-11-2019 08:38:17 2.9 C 41 %
3083 08-11-2019 08:48:18 3.1 C 40 %
3084 08-11-2019 08:58:18 3.1 C 40 %
3085 08-11-2019 09:08:17 3.3 C 40 %
3086 08-11-2019 09:18:18 3 C 40 %
3087 08-11-2019 09:28:18 3.3 C 40 %
3088 08-11-2019 09:38:17 3.3 C 40 %
3089 08-11-2019 09:48:17 3.5 C 40 %
3090 08-11-2019 09:58:17 3.7 C 40 %
3091 08-11-2019 10:08:17 3.8 C 40 %
3092 08-11-2019 10:18:17 4.1 C 39 %
3093 08-11-2019 10:28:17 4.6 C 39 %
3094 08-11-2019 10:38:17 4.6 C 39 %
3095 08-11-2019 10:48:18 5.1 C 37 %
3096 08-11-2019 10:58:18 4.9 C 37 %
3097 08-11-2019 11:08:17 5.1 C 37 %
3098 08-11-2019 11:18:17 5.4 C 35 %
3099 08-11-2019 11:28:17 5.3 C 33 %
3100 08-11-2019 11:38:17 5.6 C 35 %
Sensor: Nr:Datum:Temp:Feuchte:
Aussen-T/F 3101 08-11-2019 11:48:18 5.6 C 34 %
3102 08-11-2019 11:58:18 5.7 C 34 %
3103 08-11-2019 12:08:17 5.7 C 32 %
3104 08-11-2019 12:18:17 6 C 32 %
3105 08-11-2019 12:28:17 6.4 C 32 %
3106 08-11-2019 12:38:17 6.4 C 31 %
3107 08-11-2019 12:48:18 6.5 C 28 %
3108 08-11-2019 12:58:18 6.8 C 30 %
3109 08-11-2019 13:08:17 7 C 28 %
3110 08-11-2019 13:18:17 7.3 C 30 %
3111 08-11-2019 13:28:17 6.9 C 27 %
3112 08-11-2019 13:38:17 7.1 C 28 %
3113 08-11-2019 13:48:17 7.3 C 26 %
3114 08-11-2019 13:58:17 7.5 C 27 %
3115 08-11-2019 14:08:18 7.5 C 26 %
3116 08-11-2019 14:18:17 7.7 C 27 %
3117 08-11-2019 14:28:17 7.6 C 27 %
3118 08-11-2019 14:38:17 7.6 C 27 %
3119 08-11-2019 14:48:17 7.5 C 27 %
3120 08-11-2019 14:58:17 7.5 C 29 %
3121 08-11-2019 15:08:17 7.5 C 30 %
3122 08-11-2019 15:18:17 7.4 C 30 %
3123 08-11-2019 15:28:17 7.4 C 31 %
3124 08-11-2019 15:38:17 7.3 C 30 %
3125 08-11-2019 15:48:17 7.2 C 31 %
Sensor: Nr:Datum:Temp:Feuchte:
Aussen-T/F 3126 08-11-2019 15:58:17 7.1 C 32 %
3127 08-11-2019 16:08:18 7.1 C 31 %
3128 08-11-2019 16:18:17 6.8 C 33 %
3129 08-11-2019 16:28:17 6.6 C 34 %
3130 08-11-2019 16:38:17 6.4 C 35 %
3131 08-11-2019 16:48:17 6.3 C 36 %
3132 08-11-2019 16:58:17 6.2 C 36 %
3133 08-11-2019 17:08:18 6.1 C 36 %
3134 08-11-2019 17:18:17 6 C 36 %
3135 08-11-2019 17:28:17 5.9 C 36 %
3136 08-11-2019 17:38:17 5.9 C 36 %
3137 08-11-2019 17:48:17 5.9 C 36 %
3138 08-11-2019 17:58:17 5.8 C 38 %
3139 08-11-2019 18:08:17 5.8 C 39 %
3140 08-11-2019 18:18:17 5.8 C 39 %
3141 08-11-2019 18:28:17 5.8 C 40 %
3142 08-11-2019 18:38:17 5.8 C 40 %
3143 08-11-2019 18:48:17 5.8 C 40 %
3144 08-11-2019 18:58:17 5.7 C 40 %
3145 08-11-2019 19:08:18 5.8 C 40 %
3146 08-11-2019 19:18:17 5.6 C 39 %
3147 08-11-2019 19:28:17 5.6 C 39 %
3148 08-11-2019 19:38:17 5.3 C 39 %
3149 08-11-2019 19:48:17 5.4 C 40 %
3150 08-11-2019 19:58:17 5.4 C 40 %
Sensor: Nr:Datum:Temp:Feuchte:
Aussen-T/F 3151 08-11-2019 20:08:18 5.4 C 40 %
3152 08-11-2019 20:18:17 5.4 C 40 %
3153 08-11-2019 20:28:17 5.3 C 40 %
3154 08-11-2019 20:38:17 5.4 C 40 %
3155 08-11-2019 20:48:17 5.3 C 40 %
3156 08-11-2019 20:58:17 5.1 C 39 %
3157 08-11-2019 21:08:17 4.8 C 39 %
3158 08-11-2019 21:18:18 4.5 C 40 %
3159 08-11-2019 21:28:18 4.3 C 40 %
3160 08-11-2019 21:38:17 4.5 C 40 %
3161 08-11-2019 21:48:17 4.5 C 40 %
3162 08-11-2019 21:58:17 4.5 C 40 %
3163 08-11-2019 22:08:17 4.3 C 40 %
3164 08-11-2019 22:19:17 4.4 C 40 %
3165 08-11-2019 22:28:17 4.6 C 40 %
3166 08-11-2019 22:38:17 4.7 C 40 %
3167 08-11-2019 22:49:17 4.7 C 40 %
3168 08-11-2019 22:59:17 4.8 C 40 %
3169 08-11-2019 23:08:18 4.6 C 40 %
3170 08-11-2019 23:18:17 4.6 C 40 %
3171 08-11-2019 23:28:18 4.7 C 40 %
3172 08-11-2019 23:38:17 4.7 C 40 %
3173 08-11-2019 23:49:17 4.6 C 40 %
3174 08-11-2019 23:59:17 4.6 C 40 %
3175 09-11-2019 00:09:17 4.6 C 40 %
Sensor: Nr:Datum:Temp:Feuchte:
Aussen-T/F 3176 09-11-2019 00:19:17 4.5 C 40 %
3177 09-11-2019 00:29:17 4.5 C 40 %
3178 09-11-2019 00:39:17 4.5 C 40 %
3179 09-11-2019 00:48:17 4.5 C 40 %
3180 09-11-2019 00:58:17 4.5 C 40 %
3181 09-11-2019 01:08:17 4.4 C 40 %
3182 09-11-2019 01:18:17 4.4 C 40 %
3183 09-11-2019 01:28:17 4.3 C 40 %
3184 09-11-2019 01:38:17 4.3 C 39 %
3185 09-11-2019 01:49:17 4.2 C 39 %
3186 09-11-2019 01:59:17 4.2 C 39 %
3187 09-11-2019 02:09:18 4.3 C 39 %
3188 09-11-2019 02:19:17 4.3 C 39 %
3189 09-11-2019 02:29:17 4.3 C 38 %
3190 09-11-2019 02:39:17 4.3 C 38 %
3191 09-11-2019 02:49:17 4.3 C 38 %
3192 09-11-2019 02:59:17 4.3 C 38 %
3193 09-11-2019 03:09:18 4.3 C 38 %
3194 09-11-2019 03:19:17 4.3 C 38 %
3195 09-11-2019 03:29:17 4.4 C 38 %
3196 09-11-2019 03:39:17 4.5 C 38 %
3197 09-11-2019 03:49:17 4.5 C 37 %
3198 09-11-2019 03:59:17 4.6 C 37 %
3199 09-11-2019 04:09:18 4.6 C 37 %
3200 09-11-2019 04:19:17 4.5 C 37 %
Sensor: Nr:Datum:Temp:Feuchte:
Aussen-T/F 3201 09-11-2019 04:29:17 4.5 C 37 %
3202 09-11-2019 04:39:17 3.6 C 39 %
3203 09-11-2019 04:49:17 3.5 C 40 %
3204 09-11-2019 04:59:17 3.6 C 40 %
3205 09-11-2019 05:09:17 4 C 40 %
3206 09-11-2019 05:19:17 4.2 C 39 %
3207 09-11-2019 05:29:17 4.5 C 36 %
3208 09-11-2019 05:39:17 4.5 C 36 %
3209 09-11-2019 05:49:17 4.6 C 36 %
3210 09-11-2019 05:59:17 4.4 C 33 %
3211 09-11-2019 06:09:17 4.1 C 31 %
3212 09-11-2019 06:19:17 3.9 C 31 %
3213 09-11-2019 06:29:17 3.8 C 30 %
3214 09-11-2019 06:39:17 3.6 C 31 %
3215 09-11-2019 06:49:17 3.5 C 31 %
3216 09-11-2019 06:59:17 3.2 C 32 %
3217 09-11-2019 07:09:17 2.8 C 35 %
3218 09-11-2019 07:19:17 2.8 C 36 %
3219 09-11-2019 07:29:17 2.8 C 37 %
3220 09-11-2019 07:39:17 2.6 C 38 %
3221 09-11-2019 07:49:18 2.3 C 39 %
3222 09-11-2019 07:59:18 2.3 C 40 %
3223 09-11-2019 08:09:17 2.1 C 40 %
3224 09-11-2019 08:19:17 2.2 C 40 %
3225 09-11-2019 08:29:17 2.4 C 41 %
Sensor: Nr:Datum:Temp:Feuchte:
Aussen-T/F 3226 09-11-2019 08:39:17 2.7 C 41 %
3227 09-11-2019 08:49:18 2.8 C 41 %
3228 09-11-2019 08:59:18 3.6 C 41 %
3229 09-11-2019 09:09:17 3.7 C 40 %
3230 09-11-2019 09:19:17 4 C 37 %
3231 09-11-2019 09:29:17 4.7 C 32 %
3232 09-11-2019 09:39:17 4.8 C 28 %
3233 09-11-2019 09:49:18 5 C 26 %
3234 09-11-2019 09:59:18 5 C 25 %
3235 09-11-2019 10:09:17 5.2 C 25 %
3236 09-11-2019 10:19:17 5.2 C 25 %
3237 09-11-2019 10:29:17 6 C 25 %
3238 09-11-2019 10:39:17 5.8 C 23 %
3239 09-11-2019 10:49:17 5.5 C 23 %
3240 09-11-2019 10:59:17 5.7 C 25 %
3241 09-11-2019 11:09:17 5.4 C 25 %
3242 09-11-2019 11:19:17 5.3 C 23 %
3243 09-11-2019 11:29:17 5.5 C 23 %
3244 09-11-2019 11:39:17 5.5 C 23 %
3245 09-11-2019 11:49:18 5.6 C 23 %
3246 09-11-2019 11:59:18 5.6 C 23 %
3247 09-11-2019 12:09:17 5.6 C 23 %
3248 09-11-2019 12:19:17 5.8 C 23 %
3249 09-11-2019 12:29:17 6 C 23 %
3250 09-11-2019 12:39:17 6.5 C 20 %
Sensor: Nr:Datum:Temp:Feuchte:
Aussen-T/F 3251 09-11-2019 12:49:18 6.5 C 20 %
3252 09-11-2019 12:59:18 6.8 C 20 %
3253 09-11-2019 13:09:17 6.5 C 20 %
3254 09-11-2019 13:19:17 6.8 C 20 %
3255 09-11-2019 13:29:17 6.9 C 20 %
3256 09-11-2019 13:39:17 7.2 C 20 %
3257 09-11-2019 13:49:17 6.9 C 20 %
3258 09-11-2019 13:59:17 6.6 C 20 %
3259 09-11-2019 14:09:17 6.6 C 20 %
3260 09-11-2019 14:19:17 6.6 C 20 %
3261 09-11-2019 14:29:17 6.5 C 20 %
3262 09-11-2019 14:39:17 6.5 C 20 %
3263 09-11-2019 14:49:17 6.5 C 20 %
3264 09-11-2019 14:59:17 6.5 C 21 %
3265 09-11-2019 15:09:17 6.2 C 23 %
3266 09-11-2019 15:19:17 5.7 C 26 %
3267 09-11-2019 15:29:17 5.6 C 29 %
3268 09-11-2019 15:39:17 5.6 C 30 %
3269 09-11-2019 15:49:17 5.6 C 30 %
3270 09-11-2019 15:59:17 5.7 C 29 %
3271 09-11-2019 16:09:18 6 C 27 %
3272 09-11-2019 16:19:17 5.9 C 29 %
3273 09-11-2019 16:29:17 5.8 C 29 %
3274 09-11-2019 16:39:17 5.7 C 30 %
3275 09-11-2019 16:49:17 5.6 C 31 %
Sensor: Nr:Datum:Temp:Feuchte:
Aussen-T/F 3276 09-11-2019 16:59:17 5.6 C 30 %
3277 09-11-2019 17:09:17 5.7 C 30 %
3278 09-11-2019 17:19:17 5.7 C 30 %
3279 09-11-2019 17:29:17 5.4 C 30 %
3280 09-11-2019 17:39:17 5.2 C 30 %
3281 09-11-2019 17:49:18 5 C 31 %
3282 09-11-2019 17:59:18 5.1 C 30 %
3283 09-11-2019 18:09:17 5.1 C 29 %
3284 09-11-2019 18:19:17 4.7 C 30 %
3285 09-11-2019 18:29:17 4.3 C 35 %
3286 09-11-2019 18:39:17 4.1 C 36 %
3287 09-11-2019 18:49:17 3.8 C 38 %
3288 09-11-2019 18:59:17 3.6 C 39 %
3289 09-11-2019 19:09:17 4.3 C 39 %
3290 09-11-2019 19:19:17 4.7 C 32 %
3291 09-11-2019 19:29:17 4.7 C 29 %
3292 09-11-2019 19:39:17 4.6 C 28 %
3293 09-11-2019 19:49:17 4.3 C 30 %
3294 09-11-2019 19:59:17 3.9 C 30 %
3295 09-11-2019 20:09:18 3.4 C 31 %
3296 09-11-2019 20:19:17 2.5 C 33 %
3297 09-11-2019 20:29:17 2.5 C 37 %
3298 09-11-2019 20:39:17 2.7 C 39 %
3299 09-11-2019 20:49:17 2.5 C 39 %
3300 09-11-2019 20:59:17 2.4 C 40 %
Sensor: Nr:Datum:Temp:Feuchte:
Aussen-T/F 3301 09-11-2019 21:09:17 2.4 C 40 %
3302 09-11-2019 21:19:17 2.4 C 40 %
3303 09-11-2019 21:29:17 2.1 C 40 %
3304 09-11-2019 21:39:17 2.1 C 40 %
3305 09-11-2019 21:49:17 2.2 C 41 %
3306 09-11-2019 21:59:17 2 C 41 %
3307 09-11-2019 22:09:17 1.6 C 41 %
3308 09-11-2019 22:19:17 1.2 C 41 %
3309 09-11-2019 22:29:17 1.3 C 42 %
3310 09-11-2019 22:39:17 1.5 C 42 %
3311 09-11-2019 22:49:18 1.4 C 42 %
3312 09-11-2019 22:59:18 1.2 C 42 %
3313 09-11-2019 23:09:17 1 C 41 %
3314 09-11-2019 23:19:17 0.7 C 43 %
3315 09-11-2019 23:29:17 0.6 C 43 %
3316 09-11-2019 23:39:17 0.7 C 43 %
3317 09-11-2019 23:49:17 0.7 C 43 %
3318 09-11-2019 23:59:17 0.2 C 43 %
3319 10-11-2019 00:09:18 0.1 C 43 %
3320 10-11-2019 00:19:17 -0.1 C 43 %
3321 10-11-2019 00:29:17 -0.1 C 42 %
3322 10-11-2019 00:39:17 -0.1 C 43 %
3323 10-11-2019 00:49:17 0.1 C 43 %
3324 10-11-2019 00:59:17 0 C 43 %
3325 10-11-2019 01:09:17 0.4 C 43 %
Sensor: Nr:Datum:Temp:Feuchte:
Aussen-T/F 3326 10-11-2019 01:19:17 0.8 C 43 %
3327 10-11-2019 01:29:17 0.9 C 43 %
3328 10-11-2019 01:39:17 1 C 42 %
3329 10-11-2019 01:49:17 1 C 42 %
3330 10-11-2019 01:59:17 0.8 C 43 %
3331 10-11-2019 02:09:18 1 C 42 %
3332 10-11-2019 02:19:17 0.7 C 43 %
3333 10-11-2019 02:29:17 0.6 C 43 %
3334 10-11-2019 02:39:17 0.7 C 43 %
3335 10-11-2019 02:49:17 0.8 C 43 %
3336 10-11-2019 02:59:17 0.8 C 43 %
3337 10-11-2019 03:09:17 0.6 C 43 %
3338 10-11-2019 03:19:17 0.5 C 43 %
3339 10-11-2019 03:29:17 0.6 C 43 %
3340 10-11-2019 03:39:17 0.5 C 43 %
3341 10-11-2019 03:49:17 0.6 C 43 %
3342 10-11-2019 03:59:18 0.5 C 43 %
3343 10-11-2019 04:09:17 0.4 C 43 %
3344 10-11-2019 04:19:17 0.3 C 42 %
3345 10-11-2019 04:29:17 0.4 C 42 %
3346 10-11-2019 04:39:17 0.4 C 42 %
3347 10-11-2019 04:49:18 0.3 C 42 %
3348 10-11-2019 04:59:18 0.5 C 42 %
3349 10-11-2019 05:09:17 0.5 C 43 %
3350 10-11-2019 05:19:17 0.8 C 43 %
Sensor: Nr:Datum:Temp:Feuchte:
Aussen-T/F 3351 10-11-2019 05:29:17 0.9 C 43 %
3352 10-11-2019 05:39:17 0.9 C 43 %
3353 10-11-2019 05:49:17 0.9 C 43 %
3354 10-11-2019 05:59:17 0.9 C 43 %
3355 10-11-2019 06:09:17 0.9 C 43 %
3356 10-11-2019 06:19:17 1.1 C 41 %
3357 10-11-2019 06:29:17 0.8 C 42 %
3358 10-11-2019 06:39:17 0.9 C 42 %
3359 10-11-2019 06:49:17 0.9 C 42 %
3360 10-11-2019 06:59:17 0.9 C 42 %
3361 10-11-2019 07:09:17 0.9 C 42 %
3362 10-11-2019 07:19:18 0.9 C 43 %
3363 10-11-2019 07:29:18 0.9 C 42 %
3364 10-11-2019 07:39:17 0.9 C 42 %
3365 10-11-2019 07:49:17 0.9 C 42 %
3366 10-11-2019 07:59:17 1 C 41 %
3367 10-11-2019 08:09:17 1.1 C 41 %
3368 10-11-2019 08:19:17 1.2 C 42 %
3369 10-11-2019 08:29:17 1.3 C 41 %
3370 10-11-2019 08:39:17 1.3 C 42 %
3371 10-11-2019 08:49:17 1.4 C 41 %
3372 10-11-2019 08:59:17 1.6 C 41 %
3373 10-11-2019 09:09:18 1.6 C 41 %
3374 10-11-2019 09:19:17 1.8 C 41 %
3375 10-11-2019 09:29:18 1.7 C 41 %
Sensor: Nr:Datum:Temp:Feuchte:
Aussen-T/F 3376 10-11-2019 09:39:17 2 C 40 %
3377 10-11-2019 09:49:17 2.1 C 40 %
3378 10-11-2019 09:59:17 2.3 C 39 %
3379 10-11-2019 10:09:17 2.3 C 38 %
3380 10-11-2019 10:19:17 2.4 C 38 %
3381 10-11-2019 10:29:17 2.4 C 36 %
3382 10-11-2019 10:39:18 2.8 C 36 %
3383 10-11-2019 10:49:17 3.1 C 35 %
3384 10-11-2019 10:59:17 2.8 C 32 %
3385 10-11-2019 11:09:17 3.2 C 33 %
3386 10-11-2019 11:19:17 3.4 C 33 %
3387 10-11-2019 11:29:17 3.5 C 33 %
3388 10-11-2019 11:39:17 3.7 C 33 %
3389 10-11-2019 11:49:17 3.6 C 30 %
3390 10-11-2019 11:59:17 3.5 C 30 %
3391 10-11-2019 12:09:17 3.4 C 30 %
3392 10-11-2019 12:19:17 3.6 C 30 %
3393 10-11-2019 12:29:17 3.6 C 28 %
3394 10-11-2019 12:39:17 3.5 C 27 %
3395 10-11-2019 12:49:17 3.6 C 26 %
3396 10-11-2019 12:59:17 3.6 C 26 %
3397 10-11-2019 13:09:17 3.6 C 26 %
3398 10-11-2019 13:19:17 3.8 C 26 %
3399 10-11-2019 13:29:17 4.1 C 26 %
3400 10-11-2019 13:39:17 4.1 C 25 %
Sensor: Nr:Datum:Temp:Feuchte:
Aussen-T/F 3401 10-11-2019 13:49:17 4.2 C 25 %
3402 10-11-2019 13:59:17 4.1 C 25 %
3403 10-11-2019 14:09:17 4.2 C 25 %
3404 10-11-2019 14:19:17 4.1 C 25 %
3405 10-11-2019 14:29:17 4.3 C 25 %
3406 10-11-2019 14:39:17 4.4 C 25 %
3407 10-11-2019 14:49:17 4.4 C 23 %
3408 10-11-2019 14:59:17 4.5 C 23 %
3409 10-11-2019 15:09:18 4.5 C 23 %
3410 10-11-2019 15:19:17 4.5 C 25 %
3411 10-11-2019 15:29:17 4.5 C 25 %
3412 10-11-2019 15:39:17 4.5 C 25 %
3413 10-11-2019 15:49:17 4.3 C 25 %
3414 10-11-2019 15:59:17 4.3 C 26 %
3415 10-11-2019 16:09:17 4.2 C 25 %
3416 10-11-2019 16:19:17 4.1 C 26 %
3417 10-11-2019 16:29:17 4.1 C 26 %
3418 10-11-2019 16:39:17 4 C 27 %
3419 10-11-2019 16:49:18 3.9 C 28 %
3420 10-11-2019 16:59:18 3.8 C 28 %
3421 10-11-2019 17:09:17 3.7 C 29 %
3422 10-11-2019 17:19:17 3.7 C 29 %
3423 10-11-2019 17:29:17 3.7 C 30 %
3424 10-11-2019 17:39:17 3.7 C 30 %
3425 10-11-2019 17:49:18 3.7 C 30 %
Sensor: Nr:Datum:Temp:Feuchte:
Aussen-T/F 3426 10-11-2019 17:59:18 3.6 C 30 %
3427 10-11-2019 18:09:17 3.7 C 30 %
3428 10-11-2019 18:19:17 3.7 C 30 %
3429 10-11-2019 18:29:17 3.6 C 30 %
3430 10-11-2019 18:39:17 3.6 C 30 %
3431 10-11-2019 18:49:18 3.6 C 30 %
3432 10-11-2019 18:59:18 3.5 C 31 %
3433 10-11-2019 19:09:17 3.5 C 31 %
3434 10-11-2019 19:19:17 3.4 C 31 %
3435 10-11-2019 19:29:17 3.4 C 32 %
3436 10-11-2019 19:39:17 3.4 C 32 %
3437 10-11-2019 19:49:17 3.4 C 32 %
3438 10-11-2019 19:59:17 3.4 C 33 %
3439 10-11-2019 20:09:17 3.5 C 34 %
3440 10-11-2019 20:19:17 3.6 C 34 %
3441 10-11-2019 20:29:17 3.6 C 33 %
3442 10-11-2019 20:39:17 3.6 C 33 %
3443 10-11-2019 20:49:17 3.7 C 34 %
3444 10-11-2019 20:59:17 3.7 C 34 %
3445 10-11-2019 21:09:18 3.7 C 34 %
3446 10-11-2019 21:19:17 3.7 C 32 %
3447 10-11-2019 21:29:17 3.7 C 32 %
3448 10-11-2019 21:39:17 3.6 C 32 %
3449 10-11-2019 21:49:17 3.6 C 33 %
3450 10-11-2019 21:59:17 3.6 C 33 %
Sensor: Nr:Datum:Temp:Feuchte:
Aussen-T/F 3451 10-11-2019 22:09:17 3.6 C 32 %
3452 10-11-2019 22:19:17 3.6 C 33 %
3453 10-11-2019 22:29:17 3.7 C 34 %
3454 10-11-2019 22:39:17 3.7 C 35 %
3455 10-11-2019 22:49:17 3.8 C 32 %
3456 10-11-2019 22:59:17 3.9 C 31 %
3457 10-11-2019 23:09:17 3.9 C 31 %
3458 10-11-2019 23:19:17 3.8 C 30 %
3459 10-11-2019 23:29:17 3.8 C 29 %
3460 10-11-2019 23:39:17 3.8 C 30 %
3461 10-11-2019 23:49:17 3.8 C 29 %
3462 10-11-2019 23:59:17 3.8 C 29 %
3463 11-11-2019 00:09:17 3.8 C 28 %
3464 11-11-2019 00:19:17 3.7 C 27 %
3465 11-11-2019 00:29:17 3.6 C 27 %
3466 11-11-2019 00:39:17 3.5 C 28 %
3467 11-11-2019 00:49:17 3.5 C 27 %
3468 11-11-2019 00:59:17 3.4 C 27 %
3469 11-11-2019 01:09:17 3.2 C 27 %
3470 11-11-2019 01:19:17 3.2 C 27 %
3471 11-11-2019 01:29:17 3.1 C 28 %
3472 11-11-2019 01:39:17 3.1 C 28 %
3473 11-11-2019 01:49:17 3 C 28 %
3474 11-11-2019 01:59:17 3 C 28 %
3475 11-11-2019 02:09:17 3.1 C 28 %
Sensor: Nr:Datum:Temp:Feuchte:
Aussen-T/F 3476 11-11-2019 02:19:17 3 C 29 %
3477 11-11-2019 02:29:17 3 C 28 %
3478 11-11-2019 02:39:17 3.1 C 28 %
3479 11-11-2019 02:49:17 2.8 C 28 %
3480 11-11-2019 02:59:17 2.8 C 29 %
3481 11-11-2019 03:09:17 2.7 C 30 %
3482 11-11-2019 03:19:17 2.7 C 29 %
3483 11-11-2019 03:29:17 2.7 C 29 %
3484 11-11-2019 03:39:17 2.6 C 29 %
3485 11-11-2019 03:49:17 2.5 C 28 %
3486 11-11-2019 03:59:17 2.5 C 28 %
3487 11-11-2019 04:09:17 2.4 C 29 %
3488 11-11-2019 04:19:17 2.4 C 30 %
3489 11-11-2019 04:29:17 2.4 C 30 %
3490 11-11-2019 04:39:17 2.4 C 30 %
3491 11-11-2019 04:49:17 2.5 C 30 %
3492 11-11-2019 04:59:17 2.5 C 30 %
3493 11-11-2019 05:09:17 2.6 C 30 %
3494 11-11-2019 05:19:17 2.6 C 30 %
3495 11-11-2019 05:29:17 2.6 C 30 %
3496 11-11-2019 05:39:17 2.6 C 30 %
3497 11-11-2019 05:49:17 2.7 C 30 %
3498 11-11-2019 05:59:17 2.6 C 30 %
3499 11-11-2019 06:09:17 2.7 C 29 %
3500 11-11-2019 06:19:17 2.7 C 29 %
Sensor: Nr:Datum:Temp:Feuchte:
Aussen-T/F 3501 11-11-2019 06:29:17 2.6 C 30 %
3502 11-11-2019 06:39:17 2.7 C 30 %
3503 11-11-2019 06:49:17 2.7 C 30 %
3504 11-11-2019 06:59:17 2.7 C 31 %
3505 11-11-2019 07:09:17 2.7 C 31 %
3506 11-11-2019 07:19:18 2.7 C 31 %
3507 11-11-2019 07:29:18 2.8 C 31 %
3508 11-11-2019 07:39:17 2.9 C 32 %
3509 11-11-2019 07:49:17 3 C 31 %
3510 11-11-2019 07:59:17 3.2 C 30 %
3511 11-11-2019 08:09:17 3.5 C 26 %
3512 11-11-2019 08:19:17 3.7 C 25 %
3513 11-11-2019 08:29:17 3.9 C 25 %
3514 11-11-2019 08:39:17 4.2 C 21 %
3515 11-11-2019 08:49:17 4.4 C 20 %
3516 11-11-2019 08:59:17 4.7 C 20 %
3517 11-11-2019 09:09:17 4.7 C 20 %
3518 11-11-2019 09:19:17 4.5 C 20 %
3519 11-11-2019 09:29:17 4.9 C 20 %
3520 11-11-2019 09:39:17 5.2 C 20 %
3521 11-11-2019 09:49:17 5.4 C 20 %
3522 11-11-2019 09:59:17 5.2 C 20 %
3523 11-11-2019 10:09:17 5.2 C 20 %
3524 11-11-2019 10:19:17 5.2 C 20 %
3525 11-11-2019 10:29:17 5 C 20 %
Sensor: Nr:Datum:Temp:Feuchte:
Aussen-T/F 3526 11-11-2019 10:39:17 5.1 C 20 %
3527 11-11-2019 10:49:17 4.8 C 20 %
3528 11-11-2019 10:59:17 5.3 C 20 %
3529 11-11-2019 11:09:17 5.2 C 20 %
3530 11-11-2019 11:19:17 5.6 C 20 %
3531 11-11-2019 11:29:17 5.9 C 20 %
3532 11-11-2019 11:39:17 5.9 C 20 %
3533 11-11-2019 11:49:17 6 C 20 %
3534 11-11-2019 11:59:17 5.8 C 20 %
3535 11-11-2019 12:09:17 6.4 C 20 %
3536 11-11-2019 12:19:17 6.2 C 20 %
3537 11-11-2019 12:29:17 6.4 C 20 %
3538 11-11-2019 12:39:17 6.5 C 20 %
3539 11-11-2019 12:49:17 6.5 C 20 %
3540 11-11-2019 12:59:17 7.1 C 20 %
3541 11-11-2019 13:09:17 7.2 C 20 %
3542 11-11-2019 13:19:17 7.2 C 20 %
3543 11-11-2019 13:29:17 6.5 C 20 %
3544 11-11-2019 13:39:17 6.7 C 20 %
3545 11-11-2019 13:49:17 6.5 C 20 %
3546 11-11-2019 13:59:17 6.4 C 20 %
3547 11-11-2019 14:09:17 6.2 C 20 %
3548 11-11-2019 14:19:17 6.2 C 20 %
3549 11-11-2019 14:29:17 6.3 C 20 %
3550 11-11-2019 14:39:17 5.8 C 20 %
Sensor: Nr:Datum:Temp:Feuchte:
Aussen-T/F 3551 11-11-2019 14:49:17 5.4 C 20 %
3552 11-11-2019 14:59:17 5.3 C 20 %
3553 11-11-2019 15:09:17 5.5 C 20 %
3554 11-11-2019 15:19:17 5.5 C 20 %
3555 11-11-2019 15:29:17 5.3 C 20 %
3556 11-11-2019 15:39:17 5.1 C 20 %
3557 11-11-2019 15:49:17 4.9 C 20 %
3558 11-11-2019 15:59:17 4.8 C 20 %
3559 11-11-2019 16:09:17 4.7 C 21 %
3560 11-11-2019 16:19:17 4.7 C 20 %
3561 11-11-2019 16:29:17 4.6 C 23 %
3562 11-11-2019 16:39:17 4.6 C 23 %
3563 11-11-2019 16:49:17 4.6 C 23 %
3564 11-11-2019 16:59:17 4.5 C 23 %
3565 11-11-2019 17:09:17 4.5 C 21 %
3566 11-11-2019 17:19:17 4.5 C 23 %
3567 11-11-2019 17:29:17 4.4 C 23 %
3568 11-11-2019 17:39:17 4.3 C 23 %
3569 11-11-2019 17:49:17 4.1 C 25 %
3570 11-11-2019 17:59:17 4.1 C 25 %
3571 11-11-2019 18:09:17 3.9 C 26 %
3572 11-11-2019 18:19:17 4 C 25 %
3573 11-11-2019 18:29:17 4.1 C 25 %
3574 11-11-2019 18:39:17 4 C 26 %
3575 11-11-2019 18:49:17 3.9 C 30 %
Sensor: Nr:Datum:Temp:Feuchte:
Aussen-T/F 3576 11-11-2019 18:59:17 3.9 C 31 %
3577 11-11-2019 19:09:17 3.9 C 35 %
3578 11-11-2019 19:19:17 3.8 C 36 %
3579 11-11-2019 19:29:17 3.9 C 39 %
3580 11-11-2019 19:39:17 3.9 C 40 %
3581 11-11-2019 19:49:17 3.8 C 40 %
3582 11-11-2019 19:59:17 3.8 C 41 %
3583 11-11-2019 20:09:17 3.8 C 41 %
3584 11-11-2019 20:19:17 3.8 C 41 %
3585 11-11-2019 20:29:17 3.8 C 40 %
3586 11-11-2019 20:39:18 3.9 C 40 %
3587 11-11-2019 20:49:17 3.9 C 40 %
3588 11-11-2019 20:59:17 4 C 39 %
3589 11-11-2019 21:09:17 4.1 C 39 %
3590 11-11-2019 21:19:17 4.2 C 37 %
3591 11-11-2019 21:29:17 4.2 C 37 %
3592 11-11-2019 21:39:17 4.3 C 37 %
3593 11-11-2019 21:49:17 4.4 C 36 %
3594 11-11-2019 21:59:17 4.4 C 36 %
3595 11-11-2019 22:09:17 4.4 C 36 %
3596 11-11-2019 22:19:17 4.4 C 36 %
3597 11-11-2019 22:29:17 4.3 C 35 %
3598 11-11-2019 22:39:17 4.4 C 37 %
3599 11-11-2019 22:49:17 4.4 C 38 %
3600 11-11-2019 22:59:17 4.4 C 39 %
Sensor: Nr:Datum:Temp:Feuchte:
Aussen-T/F 3601 11-11-2019 23:09:17 4.5 C 39 %
3602 11-11-2019 23:19:17 4.5 C 39 %
3603 11-11-2019 23:29:17 4.5 C 39 %
3604 11-11-2019 23:39:17 4.5 C 39 %
3605 11-11-2019 23:49:17 4.5 C 38 %
3606 11-11-2019 23:59:17 4.2 C 38 %
3607 12-11-2019 00:09:17 4.3 C 40 %
3608 12-11-2019 00:19:17 4.4 C 40 %
3609 12-11-2019 00:29:17 4.3 C 40 %
3610 12-11-2019 00:39:17 4.5 C 39 %
3611 12-11-2019 00:49:17 3.8 C 38 %
3612 12-11-2019 00:59:17 4 C 40 %
3613 12-11-2019 01:09:17 4.5 C 37 %
3614 12-11-2019 01:19:17 4.8 C 35 %
3615 12-11-2019 01:29:17 4.7 C 32 %
3616 12-11-2019 01:39:17 5 C 28 %
3617 12-11-2019 01:49:17 4.9 C 28 %
3618 12-11-2019 01:59:17 5 C 27 %
3619 12-11-2019 02:09:17 5.2 C 25 %
3620 12-11-2019 02:19:17 4.9 C 30 %
3621 12-11-2019 02:29:17 4.7 C 31 %
3622 12-11-2019 02:39:17 4.7 C 32 %
3623 12-11-2019 02:49:17 5.1 C 26 %
3624 12-11-2019 02:59:17 5 C 28 %
3625 12-11-2019 03:09:17 5.1 C 26 %
Sensor: Nr:Datum:Temp:Feuchte:
Aussen-T/F 3626 12-11-2019 03:19:17 5 C 26 %
3627 12-11-2019 03:29:17 4.8 C 28 %
3628 12-11-2019 03:39:17 4.9 C 27 %
3629 12-11-2019 03:49:17 4.8 C 27 %
3630 12-11-2019 03:59:17 4.8 C 28 %
3631 12-11-2019 04:09:17 4.8 C 29 %
3632 12-11-2019 04:19:17 5.1 C 25 %
3633 12-11-2019 04:29:17 5 C 25 %
3634 12-11-2019 04:39:17 5.2 C 23 %
3635 12-11-2019 04:49:17 5 C 25 %
3636 12-11-2019 04:59:17 4.9 C 26 %
3637 12-11-2019 05:09:17 4.7 C 26 %
3638 12-11-2019 05:19:17 4.5 C 30 %
3639 12-11-2019 05:29:17 4.5 C 31 %
3640 12-11-2019 05:39:17 4.4 C 31 %
3641 12-11-2019 05:49:17 4.4 C 30 %
3642 12-11-2019 05:59:17 4.5 C 30 %
3643 12-11-2019 06:09:17 4.6 C 30 %
3644 12-11-2019 06:19:18 4.8 C 29 %
3645 12-11-2019 06:29:18 4.9 C 26 %
3646 12-11-2019 06:39:17 4.7 C 26 %
3647 12-11-2019 06:49:17 4.8 C 26 %
3648 12-11-2019 06:59:17 4.9 C 26 %
3649 12-11-2019 07:09:17 4.9 C 25 %
3650 12-11-2019 07:19:17 5 C 25 %
Sensor: Nr:Datum:Temp:Feuchte:
Aussen-T/F 3651 12-11-2019 07:29:17 5 C 23 %
3652 12-11-2019 07:39:17 5.2 C 21 %
3653 12-11-2019 07:49:17 5.5 C 23 %
3654 12-11-2019 07:59:17 5 C 23 %
3655 12-11-2019 08:09:17 5.1 C 25 %
3656 12-11-2019 08:19:17 5.1 C 25 %
3657 12-11-2019 08:29:17 5.2 C 25 %
3658 12-11-2019 08:39:17 5.4 C 20 %
3659 12-11-2019 08:49:17 5.3 C 21 %
3660 12-11-2019 08:59:17 5.6 C 20 %
3661 12-11-2019 09:09:17 6 C 20 %
3662 12-11-2019 09:19:17 6.3 C 20 %
3663 12-11-2019 09:29:17 6.4 C 20 %
3664 12-11-2019 09:39:17 7.2 C 20 %
3665 12-11-2019 09:49:17 7.1 C 20 %
3666 12-11-2019 09:59:17 7.2 C 20 %
3667 12-11-2019 10:09:17 7.5 C 20 %
3668 12-11-2019 10:19:17 7.8 C 20 %
3669 12-11-2019 10:29:17 7.8 C 20 %
3670 12-11-2019 10:39:17 7.9 C 20 %
3671 12-11-2019 10:49:17 8.3 C 20 %
3672 12-11-2019 10:59:17 8.2 C 20 %
3673 12-11-2019 11:09:17 8.1 C 20 %
3674 12-11-2019 11:19:17 8 C 20 %
3675 12-11-2019 11:29:17 7.5 C 20 %
Sensor: Nr:Datum:Temp:Feuchte:
Aussen-T/F 3676 12-11-2019 11:39:17 7.1 C 20 %
3677 12-11-2019 11:49:17 7 C 20 %
3678 12-11-2019 11:59:17 7.1 C 20 %
3679 12-11-2019 12:09:17 7.6 C 20 %
3680 12-11-2019 12:19:17 7.8 C 20 %
3681 12-11-2019 12:29:17 8.4 C 20 %
3682 12-11-2019 12:39:17 7.9 C 20 %
3683 12-11-2019 12:49:17 7.6 C 20 %
3684 12-11-2019 12:59:17 7.7 C 20 %
3685 12-11-2019 13:09:17 7.8 C 20 %
3686 12-11-2019 13:19:17 7.5 C 20 %
3687 12-11-2019 13:29:17 7.5 C 20 %
3688 12-11-2019 13:39:17 7.3 C 20 %
3689 12-11-2019 13:49:17 7.3 C 20 %
3690 12-11-2019 13:59:17 7.5 C 20 %
3691 12-11-2019 14:09:17 7.5 C 20 %
3692 12-11-2019 14:19:17 7.9 C 20 %
3693 12-11-2019 14:29:17 7.8 C 20 %
3694 12-11-2019 14:39:17 7.6 C 20 %
3695 12-11-2019 14:49:17 7.6 C 20 %
3696 12-11-2019 14:59:17 7.7 C 20 %
3697 12-11-2019 15:09:17 7.8 C 20 %
3698 12-11-2019 15:19:17 7.8 C 20 %
3699 12-11-2019 15:29:17 7.8 C 20 %
3700 12-11-2019 15:39:17 7.4 C 20 %
Sensor: Nr:Datum:Temp:Feuchte:
Aussen-T/F 3701 12-11-2019 15:49:17 7.2 C 20 %
3702 12-11-2019 15:59:17 7.2 C 20 %
3703 12-11-2019 16:09:17 7.1 C 20 %
3704 12-11-2019 16:19:17 7 C 20 %
3705 12-11-2019 16:29:17 6.9 C 20 %
3706 12-11-2019 16:39:17 6.8 C 20 %
3707 12-11-2019 16:49:17 6.4 C 20 %
3708 12-11-2019 16:59:17 6.4 C 20 %
3709 12-11-2019 17:09:17 6.3 C 20 %
3710 12-11-2019 17:19:17 6 C 20 %
3711 12-11-2019 17:29:17 6 C 20 %
3712 12-11-2019 17:39:17 6.1 C 20 %
3713 12-11-2019 17:49:17 5.7 C 20 %
3714 12-11-2019 17:59:17 5.5 C 20 %
3715 12-11-2019 18:09:17 4.8 C 26 %
3716 12-11-2019 18:19:17 4.7 C 26 %
3717 12-11-2019 18:29:17 5.1 C 21 %
3718 12-11-2019 18:39:17 4.9 C 26 %
3719 12-11-2019 18:49:17 4.6 C 25 %
3720 12-11-2019 18:59:17 4.8 C 23 %
3721 12-11-2019 19:09:18 4.4 C 25 %
3722 12-11-2019 19:19:17 3.7 C 28 %
3723 12-11-2019 19:29:17 3.2 C 30 %
3724 12-11-2019 19:39:17 3 C 31 %
3725 12-11-2019 19:49:18 2.8 C 32 %
Sensor: Nr:Datum:Temp:Feuchte:
Aussen-T/F 3726 12-11-2019 19:59:18 2.5 C 34 %
3727 12-11-2019 20:09:17 2.5 C 34 %
3728 12-11-2019 20:19:17 2.2 C 33 %
3729 12-11-2019 20:29:17 1.8 C 36 %
3730 12-11-2019 20:39:17 1.5 C 37 %
3731 12-11-2019 20:49:17 1.7 C 41 %
3732 12-11-2019 20:59:17 2.6 C 42 %
3733 12-11-2019 21:09:17 3.2 C 35 %
3734 12-11-2019 21:19:17 2.7 C 32 %
3735 12-11-2019 21:29:17 2.1 C 33 %
3736 12-11-2019 21:39:17 2.4 C 36 %
3737 12-11-2019 21:49:17 2.6 C 35 %
3738 12-11-2019 21:59:17 3.3 C 32 %
3739 12-11-2019 22:09:17 3.4 C 32 %
3740 12-11-2019 22:19:17 3.6 C 31 %
3741 12-11-2019 22:29:17 4 C 27 %
3742 12-11-2019 22:39:17 4.2 C 26 %
3743 12-11-2019 22:49:17 4.2 C 26 %
3744 12-11-2019 22:59:17 4.3 C 26 %
3745 12-11-2019 23:09:17 4.4 C 23 %
3746 12-11-2019 23:19:17 4.3 C 23 %
3747 12-11-2019 23:29:17 4.3 C 23 %
3748 12-11-2019 23:39:17 4.3 C 25 %
3749 12-11-2019 23:49:17 4.4 C 25 %
3750 12-11-2019 23:59:17 4.4 C 21 %
Sensor: Nr:Datum:Temp:Feuchte:
Aussen-T/F 3751 13-11-2019 00:09:17 4.4 C 21 %
3752 13-11-2019 00:19:17 4.4 C 21 %
3753 13-11-2019 00:29:17 4.3 C 23 %
3754 13-11-2019 00:39:17 4.3 C 21 %
3755 13-11-2019 00:49:17 4.3 C 21 %
3756 13-11-2019 00:59:17 4.2 C 25 %
3757 13-11-2019 01:09:17 4.1 C 25 %
3758 13-11-2019 01:19:17 4 C 25 %
3759 13-11-2019 01:29:17 3.7 C 25 %
3760 13-11-2019 01:39:17 3.6 C 26 %
3761 13-11-2019 01:49:17 2.8 C 29 %
3762 13-11-2019 01:59:17 2.4 C 31 %
3763 13-11-2019 02:09:17 2.3 C 32 %
3764 13-11-2019 02:19:17 2.2 C 32 %
3765 13-11-2019 02:29:17 2.1 C 31 %
3766 13-11-2019 02:39:17 2.8 C 29 %
3767 13-11-2019 02:49:17 3.1 C 28 %
3768 13-11-2019 02:59:17 3.9 C 21 %
3769 13-11-2019 03:09:17 3.9 C 20 %
3770 13-11-2019 03:19:17 4 C 20 %
3771 13-11-2019 03:29:17 3.8 C 21 %
3772 13-11-2019 03:39:17 4 C 20 %
3773 13-11-2019 03:49:17 3.9 C 23 %
3774 13-11-2019 03:59:17 4 C 20 %
3775 13-11-2019 04:09:17 4.1 C 20 %
Sensor: Nr:Datum:Temp:Feuchte:
Aussen-T/F 3776 13-11-2019 04:19:17 3.9 C 21 %
3777 13-11-2019 04:29:17 3.8 C 23 %
3778 13-11-2019 04:39:17 4.2 C 20 %
3779 13-11-2019 04:49:17 4 C 20 %
3780 13-11-2019 04:59:17 3.9 C 21 %
3781 13-11-2019 05:09:17 3.6 C 25 %
3782 13-11-2019 05:19:17 3.8 C 25 %
3783 13-11-2019 05:29:17 3.7 C 26 %
3784 13-11-2019 05:39:17 3.8 C 26 %
3785 13-11-2019 05:49:17 3.8 C 26 %
3786 13-11-2019 05:59:17 3.8 C 26 %
3787 13-11-2019 06:09:17 3.8 C 26 %
3788 13-11-2019 06:19:17 3.9 C 25 %
3789 13-11-2019 06:29:17 3.9 C 25 %
3790 13-11-2019 06:39:17 3.9 C 25 %
3791 13-11-2019 06:49:17 3.2 C 25 %
3792 13-11-2019 06:59:17 3.1 C 30 %
3793 13-11-2019 07:09:17 3.3 C 30 %
3794 13-11-2019 07:19:17 3.3 C 30 %
3795 13-11-2019 07:29:17 3.7 C 27 %
3796 13-11-2019 07:39:17 3.7 C 27 %
3797 13-11-2019 07:49:17 3.8 C 26 %
3798 13-11-2019 07:59:17 3.9 C 26 %
3799 13-11-2019 08:09:17 4 C 25 %
3800 13-11-2019 08:19:17 4.2 C 25 %
Sensor: Nr:Datum:Temp:Feuchte:
Aussen-T/F 3801 13-11-2019 08:29:17 4.3 C 21 %
3802 13-11-2019 08:39:17 4.5 C 20 %
3803 13-11-2019 08:49:17 4.5 C 21 %
3804 13-11-2019 08:59:17 4.5 C 21 %
3805 13-11-2019 09:09:17 4.7 C 21 %
3806 13-11-2019 09:19:17 5.1 C 20 %
3807 13-11-2019 09:29:17 5.5 C 20 %
3808 13-11-2019 09:39:17 5.6 C 20 %
3809 13-11-2019 09:49:17 5.6 C 20 %
3810 13-11-2019 09:59:17 5.5 C 20 %
3811 13-11-2019 10:09:17 5.6 C 20 %
3812 13-11-2019 10:19:17 5.7 C 20 %
3813 13-11-2019 10:29:17 5.8 C 20 %
3814 13-11-2019 10:39:17 5.9 C 20 %
3815 13-11-2019 10:49:17 5.7 C 20 %
3816 13-11-2019 10:59:17 5.7 C 20 %
3817 13-11-2019 11:09:17 5.6 C 20 %
3818 13-11-2019 11:19:17 5.8 C 20 %
3819 13-11-2019 11:29:17 6 C 20 %
3820 13-11-2019 11:39:17 6.1 C 20 %
3821 13-11-2019 11:49:17 6.1 C 20 %
3822 13-11-2019 11:59:17 6.6 C 20 %
3823 13-11-2019 12:09:17 6.5 C 20 %
3824 13-11-2019 12:19:17 6.6 C 20 %
3825 13-11-2019 12:29:17 6.8 C 20 %
Sensor: Nr:Datum:Temp:Feuchte:
Aussen-T/F 3826 13-11-2019 12:39:17 6.7 C 20 %
3827 13-11-2019 12:49:17 6.4 C 20 %
3828 13-11-2019 12:59:17 6.7 C 20 %
3829 13-11-2019 13:09:17 6.8 C 20 %
3830 13-11-2019 13:19:17 6.7 C 20 %
3831 13-11-2019 13:29:17 6.4 C 20 %
3832 13-11-2019 13:39:17 6.5 C 20 %
3833 13-11-2019 13:49:17 6.4 C 20 %
3834 13-11-2019 13:59:17 6.3 C 20 %
3835 13-11-2019 14:09:17 6.3 C 20 %
3836 13-11-2019 14:19:17 6.3 C 20 %
3837 13-11-2019 14:29:17 6.2 C 20 %
3838 13-11-2019 14:39:17 6.2 C 20 %
3839 13-11-2019 14:49:17 6.2 C 20 %
3840 13-11-2019 14:59:17 6.3 C 20 %
3841 13-11-2019 15:09:17 6.3 C 20 %
3842 13-11-2019 15:19:17 6.3 C 20 %
3843 13-11-2019 15:29:17 6.2 C 20 %
3844 13-11-2019 15:39:17 6.2 C 20 %
3845 13-11-2019 15:49:17 6.2 C 20 %
3846 13-11-2019 15:59:17 6.2 C 20 %
3847 13-11-2019 16:09:17 6.2 C 20 %
3848 13-11-2019 16:19:17 6.2 C 20 %
3849 13-11-2019 16:29:17 6.1 C 20 %
3850 13-11-2019 16:39:17 6 C 20 %
Sensor: Nr:Datum:Temp:Feuchte:
Aussen-T/F 3851 13-11-2019 16:49:17 6 C 20 %
3852 13-11-2019 16:59:17 6 C 20 %
3853 13-11-2019 17:09:17 6 C 20 %
3854 13-11-2019 17:19:17 6 C 20 %
3855 13-11-2019 17:29:17 5.9 C 20 %
3856 13-11-2019 17:39:17 6 C 20 %
3857 13-11-2019 17:49:17 5.9 C 20 %
3858 13-11-2019 17:59:17 5.9 C 20 %
3859 13-11-2019 18:09:17 5.8 C 20 %
3860 13-11-2019 18:19:17 5.8 C 20 %
3861 13-11-2019 18:29:17 5.9 C 20 %
3862 13-11-2019 18:39:17 5.8 C 20 %
3863 13-11-2019 18:49:17 5.7 C 20 %
3864 13-11-2019 18:59:17 5.6 C 21 %
3865 13-11-2019 19:09:18 5.6 C 21 %
3866 13-11-2019 19:19:17 5.6 C 23 %
3867 13-11-2019 19:29:17 5.6 C 20 %
3868 13-11-2019 19:39:17 5.6 C 21 %
3869 13-11-2019 19:49:17 5.8 C 20 %
3870 13-11-2019 19:59:17 5.8 C 20 %
3871 13-11-2019 20:09:17 5.8 C 20 %
3872 13-11-2019 20:19:17 5.9 C 20 %
3873 13-11-2019 20:29:17 5.8 C 20 %
3874 13-11-2019 20:39:17 5.8 C 20 %
3875 13-11-2019 20:49:17 5.8 C 20 %
Sensor: Nr:Datum:Temp:Feuchte:
Aussen-T/F 3876 13-11-2019 20:59:17 5.6 C 20 %
3877 13-11-2019 21:09:17 5.5 C 23 %
3878 13-11-2019 21:19:17 5.4 C 25 %
3879 13-11-2019 21:29:17 4.8 C 27 %
3880 13-11-2019 21:39:17 4.8 C 27 %
3881 13-11-2019 21:49:17 4.7 C 28 %
3882 13-11-2019 21:59:17 4.7 C 29 %
3883 13-11-2019 22:09:17 4.2 C 28 %
3884 13-11-2019 22:19:17 3.8 C 32 %
3885 13-11-2019 22:29:17 3.8 C 33 %
3886 13-11-2019 22:39:17 3.8 C 33 %
3887 13-11-2019 22:49:17 4.1 C 32 %
3888 13-11-2019 22:59:17 4 C 31 %
3889 13-11-2019 23:09:17 4.1 C 29 %
3890 13-11-2019 23:19:17 3.4 C 33 %
3891 13-11-2019 23:29:17 3.6 C 33 %
3892 13-11-2019 23:39:17 3.6 C 33 %
3893 13-11-2019 23:49:17 3.9 C 33 %
3894 13-11-2019 23:59:17 4.2 C 30 %
3895 14-11-2019 00:09:17 4.4 C 30 %
3896 14-11-2019 00:19:17 4.5 C 31 %
3897 14-11-2019 00:29:17 4.7 C 30 %
3898 14-11-2019 00:39:17 4.6 C 30 %
3899 14-11-2019 00:49:17 4.7 C 31 %
3900 14-11-2019 00:59:17 4.4 C 30 %
Sensor: Nr:Datum:Temp:Feuchte:
Aussen-T/F 3901 14-11-2019 01:09:17 3.7 C 31 %
3902 14-11-2019 01:19:17 3.8 C 37 %
3903 14-11-2019 01:29:17 3.7 C 37 %
3904 14-11-2019 01:39:17 3.8 C 39 %
3905 14-11-2019 01:49:17 3.8 C 38 %
3906 14-11-2019 01:59:17 3.9 C 39 %
3907 14-11-2019 02:09:17 4 C 37 %
3908 14-11-2019 02:19:17 4 C 35 %
3909 14-11-2019 02:29:17 4.1 C 36 %
3910 14-11-2019 02:39:17 4.4 C 35 %
3911 14-11-2019 02:49:17 4.5 C 33 %
3912 14-11-2019 02:59:17 4.8 C 31 %
3913 14-11-2019 03:09:17 5 C 29 %
3914 14-11-2019 03:19:17 4.8 C 30 %
3915 14-11-2019 03:29:17 5 C 30 %
3916 14-11-2019 03:39:17 5.1 C 29 %
3917 14-11-2019 03:49:17 5.2 C 28 %
3918 14-11-2019 03:59:17 5.1 C 28 %
3919 14-11-2019 04:09:17 5.2 C 29 %
3920 14-11-2019 04:19:17 5.1 C 29 %
3921 14-11-2019 04:29:17 4.6 C 31 %
3922 14-11-2019 04:39:17 4.5 C 32 %
3923 14-11-2019 04:49:17 4.6 C 33 %
3924 14-11-2019 04:59:17 4.2 C 31 %
3925 14-11-2019 05:09:17 3.4 C 33 %
Sensor: Nr:Datum:Temp:Feuchte:
Aussen-T/F 3926 14-11-2019 05:19:17 3.3 C 40 %
3927 14-11-2019 05:29:17 3.7 C 41 %
3928 14-11-2019 05:39:18 4.1 C 40 %
3929 14-11-2019 05:49:17 4.4 C 38 %
3930 14-11-2019 05:59:17 4.4 C 36 %
3931 14-11-2019 06:09:17 3.6 C 34 %
3932 14-11-2019 06:19:17 3.5 C 36 %
3933 14-11-2019 06:29:17 3.5 C 36 %
3934 14-11-2019 06:39:17 3.9 C 38 %
3935 14-11-2019 06:49:17 4.2 C 36 %
3936 14-11-2019 06:59:17 4.6 C 30 %
3937 14-11-2019 07:09:17 4.6 C 30 %
3938 14-11-2019 07:19:17 4.8 C 26 %
3939 14-11-2019 07:29:17 4.8 C 25 %
3940 14-11-2019 07:39:17 4.5 C 26 %
3941 14-11-2019 07:49:17 4.5 C 26 %
3942 14-11-2019 07:59:17 4.5 C 26 %
3943 14-11-2019 08:09:17 4.2 C 26 %
3944 14-11-2019 08:19:17 4.2 C 26 %
3945 14-11-2019 08:29:17 4.6 C 26 %
3946 14-11-2019 08:39:17 4.7 C 25 %
3947 14-11-2019 08:49:17 4.6 C 25 %
3948 14-11-2019 08:59:17 4.5 C 26 %
3949 14-11-2019 09:09:17 5 C 21 %
3950 14-11-2019 09:19:17 5 C 21 %
Sensor: Nr:Datum:Temp:Feuchte:
Aussen-T/F 3951 14-11-2019 09:29:17 5.4 C 20 %
3952 14-11-2019 09:39:17 5.6 C 20 %
3953 14-11-2019 09:49:17 5.6 C 20 %
3954 14-11-2019 09:59:17 5.9 C 20 %
3955 14-11-2019 10:09:17 6.1 C 20 %
3956 14-11-2019 10:19:17 6.3 C 20 %
3957 14-11-2019 10:29:17 6.5 C 20 %
3958 14-11-2019 10:39:17 6.7 C 20 %
3959 14-11-2019 10:49:17 7.1 C 20 %
3960 14-11-2019 10:59:17 7.2 C 20 %
3961 14-11-2019 11:09:17 7.4 C 20 %
3962 14-11-2019 11:19:17 7.9 C 20 %
3963 14-11-2019 11:29:17 8.2 C 20 %
3964 14-11-2019 11:39:17 8.2 C 20 %
3965 14-11-2019 11:49:17 8.2 C 20 %
3966 14-11-2019 11:59:17 8.9 C 20 %
3967 14-11-2019 12:09:17 9.3 C 20 %
3968 14-11-2019 12:19:17 9.1 C 20 %
3969 14-11-2019 12:29:17 9 C 20 %
3970 14-11-2019 12:39:17 8.6 C 20 %
3971 14-11-2019 12:49:17 8.3 C 20 %
3972 14-11-2019 12:59:17 8.3 C 20 %
3973 14-11-2019 13:09:17 8.6 C 20 %
3974 14-11-2019 13:19:17 8.8 C 20 %
3975 14-11-2019 13:29:17 8.6 C 20 %
Sensor: Nr:Datum:Temp:Feuchte:
Aussen-T/F 3976 14-11-2019 13:39:17 8.7 C 20 %
3977 14-11-2019 13:49:17 9.1 C 20 %
3978 14-11-2019 13:59:17 9.6 C 20 %
3979 14-11-2019 14:09:17 9.4 C 20 %
3980 14-11-2019 14:19:17 9.2 C 20 %
3981 14-11-2019 14:29:17 9 C 20 %
3982 14-11-2019 14:39:17 8.9 C 20 %
3983 14-11-2019 14:49:17 8.5 C 20 %
3984 14-11-2019 14:59:17 8.1 C 20 %
3985 14-11-2019 15:09:17 7.9 C 20 %
3986 14-11-2019 15:19:17 7.8 C 20 %
3987 14-11-2019 15:29:17 7.3 C 20 %
3988 14-11-2019 15:39:17 6.9 C 20 %
3989 14-11-2019 15:49:17 6.7 C 20 %
3990 14-11-2019 15:59:17 6.5 C 20 %
3991 14-11-2019 16:09:17 6.5 C 20 %
3992 14-11-2019 16:19:17 6 C 20 %
3993 14-11-2019 16:29:17 5.6 C 20 %
3994 14-11-2019 16:39:17 5.2 C 20 %
3995 14-11-2019 16:49:17 4.8 C 20 %
3996 14-11-2019 16:59:17 4.6 C 20 %
3997 14-11-2019 17:09:17 4.4 C 20 %
3998 14-11-2019 17:19:17 4.3 C 20 %
3999 14-11-2019 17:29:17 3.9 C 20 %
4000 14-11-2019 17:39:17 3.8 C 20 %
Sensor: Nr:Datum:Temp:Feuchte:
Aussen-T/F 4001 14-11-2019 17:49:17 3.8 C 20 %
4002 14-11-2019 17:59:17 3.8 C 20 %
4003 14-11-2019 18:09:17 4.1 C 20 %
4004 14-11-2019 18:19:17 3.9 C 20 %
4005 14-11-2019 18:29:17 3.8 C 20 %
4006 14-11-2019 18:39:17 3.9 C 20 %
4007 14-11-2019 18:49:17 3.3 C 20 %
4008 14-11-2019 18:59:17 3.4 C 20 %
4009 14-11-2019 19:09:17 3.2 C 20 %
4010 14-11-2019 19:19:17 2.6 C 25 %
4011 14-11-2019 19:29:17 2.7 C 25 %
4012 14-11-2019 19:39:17 2.7 C 25 %
4013 14-11-2019 19:49:17 2.6 C 25 %
4014 14-11-2019 19:59:18 2.7 C 26 %
4015 14-11-2019 20:09:17 2.4 C 26 %
4016 14-11-2019 20:19:17 2.3 C 30 %
4017 14-11-2019 20:29:17 2.4 C 27 %
4018 14-11-2019 20:39:17 2.6 C 26 %
4019 14-11-2019 20:49:17 2.5 C 26 %
4020 14-11-2019 20:59:17 2 C 27 %
4021 14-11-2019 21:09:17 1.6 C 32 %
4022 14-11-2019 21:19:17 1.6 C 36 %
4023 14-11-2019 21:29:17 1.7 C 35 %
4024 14-11-2019 21:39:17 1.6 C 35 %
4025 14-11-2019 21:49:17 1.4 C 35 %
Sensor: Nr:Datum:Temp:Feuchte:
Aussen-T/F 4026 14-11-2019 21:59:17 1.4 C 36 %
4027 14-11-2019 22:09:17 1.6 C 37 %
4028 14-11-2019 22:19:17 1.5 C 36 %
4029 14-11-2019 22:29:17 1.5 C 37 %
4030 14-11-2019 22:39:17 1.6 C 39 %
4031 14-11-2019 22:49:17 1.6 C 39 %
4032 14-11-2019 22:59:17 1.9 C 40 %
4033 14-11-2019 23:09:17 2 C 38 %
4034 14-11-2019 23:19:17 2 C 37 %
4035 14-11-2019 23:29:17 2 C 36 %
4036 14-11-2019 23:39:17 2.2 C 36 %
4037 14-11-2019 23:49:17 2.1 C 36 %
4038 14-11-2019 23:59:17 2.1 C 36 %
4039 15-11-2019 00:09:17 2.1 C 36 %
4040 15-11-2019 00:19:17 2.2 C 35 %
4041 15-11-2019 00:29:17 2.3 C 36 %
4042 15-11-2019 00:39:17 2.5 C 36 %
4043 15-11-2019 00:49:17 2.8 C 33 %
4044 15-11-2019 00:59:17 3 C 31 %
4045 15-11-2019 01:09:17 3.2 C 30 %
4046 15-11-2019 01:19:17 2.9 C 31 %
4047 15-11-2019 01:29:17 2.8 C 32 %
4048 15-11-2019 01:39:17 3.1 C 30 %
4049 15-11-2019 01:49:17 3.2 C 30 %
4050 15-11-2019 01:59:17 3.1 C 30 %
Sensor: Nr:Datum:Temp:Feuchte:
Aussen-T/F 4051 15-11-2019 02:09:17 2.7 C 30 %
4052 15-11-2019 02:19:17 2.6 C 31 %
4053 15-11-2019 02:29:17 2.6 C 31 %
4054 15-11-2019 02:39:17 2.7 C 30 %
4055 15-11-2019 02:49:17 2.8 C 31 %
4056 15-11-2019 02:59:17 3.2 C 30 %
4057 15-11-2019 03:09:17 2.9 C 30 %
4058 15-11-2019 03:19:17 2.7 C 30 %
4059 15-11-2019 03:29:17 2.5 C 30 %
4060 15-11-2019 03:39:17 2.3 C 30 %
4061 15-11-2019 03:49:17 2.2 C 30 %
4062 15-11-2019 03:59:17 2.2 C 31 %
4063 15-11-2019 04:09:17 2.2 C 31 %
4064 15-11-2019 04:19:17 2.6 C 30 %
4065 15-11-2019 04:29:17 3.1 C 26 %
4066 15-11-2019 04:39:17 3.2 C 25 %
4067 15-11-2019 04:49:17 3 C 25 %
4068 15-11-2019 04:59:17 3.1 C 25 %
4069 15-11-2019 05:09:17 2.8 C 27 %
4070 15-11-2019 05:19:17 2.6 C 26 %
4071 15-11-2019 05:29:17 2.7 C 25 %
4072 15-11-2019 05:39:17 2.5 C 27 %
4073 15-11-2019 05:49:17 2.6 C 25 %
4074 15-11-2019 05:59:17 3.2 C 23 %
4075 15-11-2019 06:09:17 3.3 C 20 %
Sensor: Nr:Datum:Temp:Feuchte:
Aussen-T/F 4076 15-11-2019 06:19:17 3.4 C 20 %
4077 15-11-2019 06:29:17 3.3 C 20 %
4078 15-11-2019 06:39:17 3.4 C 20 %
4079 15-11-2019 06:49:17 3.4 C 20 %
4080 15-11-2019 06:59:17 3.1 C 20 %
4081 15-11-2019 07:09:17 3 C 20 %
4082 15-11-2019 07:19:17 2.9 C 21 %
4083 15-11-2019 07:29:17 3 C 21 %
4084 15-11-2019 07:39:17 2.9 C 23 %
4085 15-11-2019 07:49:17 2.8 C 25 %
4086 15-11-2019 07:59:17 3.2 C 20 %
4087 15-11-2019 08:09:17 3.3 C 20 %
4088 15-11-2019 08:19:17 3.3 C 20 %
4089 15-11-2019 08:29:17 3.3 C 20 %
4090 15-11-2019 08:39:17 3.3 C 20 %
4091 15-11-2019 08:49:17 3.1 C 23 %
4092 15-11-2019 08:59:17 3.3 C 21 %
4093 15-11-2019 09:09:17 3.3 C 21 %
4094 15-11-2019 09:19:17 3.6 C 20 %
4095 15-11-2019 09:29:17 4.1 C 20 %
4096 15-11-2019 09:39:17 4.5 C 20 %
4097 15-11-2019 09:49:17 4.4 C 20 %
4098 15-11-2019 09:59:17 4.6 C 20 %
4099 15-11-2019 10:09:17 4.9 C 20 %
4100 15-11-2019 10:19:17 5.2 C 20 %
Sensor: Nr:Datum:Temp:Feuchte:
Aussen-T/F 4101 15-11-2019 10:29:17 5.5 C 20 %
4102 15-11-2019 10:39:17 5.4 C 20 %
4103 15-11-2019 10:49:17 5.5 C 20 %
4104 15-11-2019 10:59:17 5.8 C 20 %
4105 15-11-2019 11:09:17 5.9 C 20 %
4106 15-11-2019 11:19:17 5.3 C 20 %
4107 15-11-2019 11:29:17 5.2 C 20 %
4108 15-11-2019 11:39:17 5.8 C 20 %
4109 15-11-2019 11:49:17 6.1 C 20 %
4110 15-11-2019 11:59:17 6.4 C 20 %
4111 15-11-2019 12:09:17 6.5 C 20 %
4112 15-11-2019 12:19:17 6.5 C 20 %
4113 15-11-2019 12:29:17 6.3 C 20 %
4114 15-11-2019 12:39:17 6.3 C 20 %
4115 15-11-2019 12:49:17 6.4 C 20 %
4116 15-11-2019 12:59:17 6.5 C 20 %
4117 15-11-2019 13:09:17 6.8 C 20 %
4118 15-11-2019 13:19:17 6.9 C 20 %
4119 15-11-2019 13:29:17 7 C 20 %
4120 15-11-2019 13:39:17 7.4 C 20 %
4121 15-11-2019 13:49:17 7.4 C 20 %
4122 15-11-2019 13:59:17 7.3 C 20 %
4123 15-11-2019 14:09:17 7.5 C 20 %
4124 15-11-2019 14:19:17 7.6 C 20 %
4125 15-11-2019 14:29:17 7.7 C 20 %
Sensor: Nr:Datum:Temp:Feuchte:
Aussen-T/F 4126 15-11-2019 14:39:17 7.5 C 20 %
4127 15-11-2019 14:49:17 7.8 C 20 %
4128 15-11-2019 14:59:17 8 C 20 %
4129 15-11-2019 15:09:17 7.8 C 20 %
4130 15-11-2019 15:19:17 7.7 C 20 %
4131 15-11-2019 15:29:17 7.6 C 20 %
4132 15-11-2019 15:39:17 7.3 C 20 %
4133 15-11-2019 15:49:17 7.1 C 20 %
4134 15-11-2019 15:59:17 6.8 C 20 %
4135 15-11-2019 16:09:17 6.7 C 20 %
4136 15-11-2019 16:19:17 5.5 C 20 %
4137 15-11-2019 16:29:17 5 C 20 %
4138 15-11-2019 16:39:17 4.4 C 20 %
4139 15-11-2019 16:49:17 4 C 23 %
4140 15-11-2019 16:59:17 3.9 C 26 %
4141 15-11-2019 17:09:17 3.8 C 27 %
4142 15-11-2019 17:19:17 3.9 C 27 %
4143 15-11-2019 17:29:17 3.8 C 28 %
4144 15-11-2019 17:39:17 4 C 27 %
4145 15-11-2019 17:49:17 3.8 C 28 %
4146 15-11-2019 17:59:17 3.8 C 29 %
4147 15-11-2019 18:09:17 3.8 C 29 %
4148 15-11-2019 18:19:17 4.3 C 27 %
4149 15-11-2019 18:29:17 4.2 C 26 %
4150 15-11-2019 18:39:17 4.1 C 27 %
Sensor: Nr:Datum:Temp:Feuchte:
Aussen-T/F 4151 15-11-2019 18:49:17 4 C 28 %
4152 15-11-2019 18:59:17 4 C 28 %
4153 15-11-2019 19:09:17 3.9 C 31 %
4154 15-11-2019 19:19:17 3.6 C 31 %
4155 15-11-2019 19:29:17 3.7 C 32 %
4156 15-11-2019 19:39:17 3.6 C 31 %
4157 15-11-2019 19:49:17 3.7 C 32 %
4158 15-11-2019 19:59:17 3.7 C 32 %
4159 15-11-2019 20:09:17 3.4 C 33 %
4160 15-11-2019 20:19:17 3.3 C 34 %
4161 15-11-2019 20:29:17 3.2 C 35 %
4162 15-11-2019 20:39:17 3.5 C 32 %
4163 15-11-2019 20:49:17 3.2 C 32 %
4164 15-11-2019 20:59:17 3.5 C 32 %
4165 15-11-2019 21:09:17 3.5 C 31 %
4166 15-11-2019 21:19:17 3.5 C 31 %
4167 15-11-2019 21:29:17 3.2 C 31 %
4168 15-11-2019 21:39:17 3 C 34 %
4169 15-11-2019 21:49:17 2.9 C 36 %
4170 15-11-2019 21:59:17 3 C 36 %
4171 15-11-2019 22:09:17 2.8 C 36 %
4172 15-11-2019 22:19:17 2.6 C 37 %
4173 15-11-2019 22:29:17 2.6 C 39 %
4174 15-11-2019 22:39:17 2.7 C 39 %
4175 15-11-2019 22:49:17 2.7 C 39 %
Sensor: Nr:Datum:Temp:Feuchte:
Aussen-T/F 4176 15-11-2019 22:59:17 2.5 C 38 %
4177 15-11-2019 23:09:17 2.6 C 39 %
4178 15-11-2019 23:19:17 2.7 C 39 %
4179 15-11-2019 23:29:17 2.6 C 38 %
4180 15-11-2019 23:39:17 2.5 C 38 %
4181 15-11-2019 23:49:17 2.5 C 40 %
4182 15-11-2019 23:59:17 2.3 C 40 %
4183 16-11-2019 00:09:17 2.3 C 40 %
4184 16-11-2019 00:19:17 2.3 C 40 %
4185 16-11-2019 00:29:17 2.3 C 40 %
4186 16-11-2019 00:39:17 2.3 C 40 %
4187 16-11-2019 00:49:17 2.4 C 40 %
4188 16-11-2019 00:59:17 2.3 C 40 %
4189 16-11-2019 01:09:17 2.3 C 40 %
4190 16-11-2019 01:19:17 2.2 C 40 %
4191 16-11-2019 01:29:17 2.2 C 40 %
4192 16-11-2019 01:39:17 2.2 C 40 %
4193 16-11-2019 01:49:17 2.3 C 40 %
4194 16-11-2019 01:59:17 2.3 C 40 %
4195 16-11-2019 02:09:17 2.3 C 40 %
4196 16-11-2019 02:19:17 2.3 C 40 %
4197 16-11-2019 02:29:17 2.2 C 40 %
4198 16-11-2019 02:39:17 2.1 C 39 %
4199 16-11-2019 02:49:17 2.1 C 40 %
4200 16-11-2019 02:59:17 2 C 40 %
Sensor: Nr:Datum:Temp:Feuchte:
Aussen-T/F 4201 16-11-2019 03:09:17 2 C 40 %
4202 16-11-2019 03:19:17 1.9 C 41 %
4203 16-11-2019 03:29:17 1.5 C 40 %
4204 16-11-2019 03:39:18 1.3 C 40 %
4205 16-11-2019 03:49:17 1.3 C 41 %
4206 16-11-2019 03:59:17 1.3 C 41 %
4207 16-11-2019 04:09:17 1.1 C 41 %
4208 16-11-2019 04:19:17 0.8 C 41 %
4209 16-11-2019 04:29:17 0.3 C 40 %
4210 16-11-2019 04:39:17 0 C 41 %
4211 16-11-2019 04:49:17 -0.2 C 41 %
4212 16-11-2019 04:59:17 -0.1 C 42 %
4213 16-11-2019 05:09:17 -0.4 C 42 %
4214 16-11-2019 05:19:17 -0.5 C 42 %
4215 16-11-2019 05:29:17 -0.7 C 42 %
4216 16-11-2019 05:39:17 -0.6 C 42 %
4217 16-11-2019 05:49:17 -0.8 C 42 %
4218 16-11-2019 05:59:17 -1 C 42 %
4219 16-11-2019 06:09:17 -1 C 42 %
4220 16-11-2019 06:19:17 -1.1 C 42 %
4221 16-11-2019 06:29:17 -1 C 43 %
4222 16-11-2019 06:39:17 -1 C 43 %
4223 16-11-2019 06:49:17 -1.4 C 42 %
4224 16-11-2019 06:59:17 -1.5 C 42 %
4225 16-11-2019 07:09:17 -1.5 C 42 %
Sensor: Nr:Datum:Temp:Feuchte:
Aussen-T/F 4226 16-11-2019 07:19:17 -1.6 C 42 %
4227 16-11-2019 07:29:17 -1.4 C 43 %
4228 16-11-2019 07:39:17 -1 C 43 %
4229 16-11-2019 07:49:17 -0.9 C 43 %
4230 16-11-2019 07:59:17 -0.7 C 43 %
4231 16-11-2019 08:09:17 -0.7 C 43 %
4232 16-11-2019 08:19:17 -0.7 C 43 %
4233 16-11-2019 08:29:17 -0.6 C 43 %
4234 16-11-2019 08:39:17 -0.5 C 43 %
4235 16-11-2019 08:49:17 -0.4 C 43 %
4236 16-11-2019 08:59:17 -0.3 C 43 %
4237 16-11-2019 09:09:17 -0.4 C 43 %
4238 16-11-2019 09:19:17 -0.5 C 43 %
4239 16-11-2019 09:29:17 -0.5 C 43 %
4240 16-11-2019 09:39:17 -0.4 C 43 %
4241 16-11-2019 09:49:17 -0.4 C 43 %
4242 16-11-2019 09:59:17 -0.2 C 43 %
4243 16-11-2019 10:09:17 0.2 C 43 %
4244 16-11-2019 10:19:17 0.6 C 43 %
4245 16-11-2019 10:29:17 0.6 C 41 %
4246 16-11-2019 10:39:17 0.3 C 40 %
4247 16-11-2019 10:49:17 0.5 C 40 %
4248 16-11-2019 10:59:17 0.6 C 39 %
4249 16-11-2019 11:09:17 0.7 C 38 %
4250 16-11-2019 11:19:17 1.1 C 36 %
Sensor: Nr:Datum:Temp:Feuchte:
Aussen-T/F 4251 16-11-2019 11:29:17 1.6 C 32 %
4252 16-11-2019 11:39:17 2.4 C 32 %
4253 16-11-2019 11:49:17 2.1 C 30 %
4254 16-11-2019 11:59:17 1.8 C 31 %
4255 16-11-2019 12:09:17 1.6 C 32 %
4256 16-11-2019 12:19:17 1.6 C 33 %
4257 16-11-2019 12:29:17 2.3 C 31 %
4258 16-11-2019 12:39:17 2.5 C 30 %
4259 16-11-2019 12:49:17 2.6 C 32 %
4260 16-11-2019 12:59:17 2.6 C 33 %
4261 16-11-2019 13:09:17 2.5 C 35 %
4262 16-11-2019 13:19:17 2.6 C 36 %
4263 16-11-2019 13:29:17 3.2 C 36 %
4264 16-11-2019 13:39:17 3.7 C 35 %
4265 16-11-2019 13:49:17 4 C 32 %
4266 16-11-2019 13:59:17 3.9 C 32 %
4267 16-11-2019 14:09:17 3.7 C 32 %
4268 16-11-2019 14:19:17 3.7 C 33 %
4269 16-11-2019 14:29:17 3.7 C 32 %
4270 16-11-2019 14:39:17 3.9 C 32 %
4271 16-11-2019 14:49:17 3.9 C 31 %
4272 16-11-2019 14:59:17 4 C 30 %
4273 16-11-2019 15:09:17 4.4 C 29 %
4274 16-11-2019 15:19:17 4.7 C 29 %
4275 16-11-2019 15:29:17 4.6 C 29 %
Sensor: Nr:Datum:Temp:Feuchte:
Aussen-T/F 4276 16-11-2019 15:39:17 4.4 C 28 %
4277 16-11-2019 15:49:17 4.5 C 28 %
4278 16-11-2019 15:59:17 4.2 C 28 %
4279 16-11-2019 16:09:17 4 C 29 %
4280 16-11-2019 16:19:17 4.3 C 26 %
4281 16-11-2019 16:29:17 3.8 C 27 %
4282 16-11-2019 16:39:17 3.5 C 30 %
4283 16-11-2019 16:49:17 3.6 C 31 %
4284 16-11-2019 16:59:17 3.4 C 32 %
4285 16-11-2019 17:09:17 3.5 C 32 %
4286 16-11-2019 17:19:17 3.3 C 32 %
4287 16-11-2019 17:29:17 2.6 C 36 %
4288 16-11-2019 17:39:17 2.2 C 36 %
4289 16-11-2019 17:49:17 2.3 C 39 %
4290 16-11-2019 17:59:17 2.2 C 40 %
4291 16-11-2019 18:09:17 2 C 39 %
4292 16-11-2019 18:19:17 2.2 C 40 %
4293 16-11-2019 18:29:17 2 C 40 %
4294 16-11-2019 18:39:17 1.9 C 40 %
4295 16-11-2019 18:49:17 1.7 C 40 %
4296 16-11-2019 18:59:17 1.6 C 40 %
4297 16-11-2019 19:09:17 1.4 C 40 %
4298 16-11-2019 19:19:17 1.3 C 41 %
4299 16-11-2019 19:29:17 1 C 41 %
4300 16-11-2019 19:39:17 1.1 C 42 %
Sensor: Nr:Datum:Temp:Feuchte:
Aussen-T/F 4301 16-11-2019 19:49:17 0.7 C 42 %
4302 16-11-2019 19:59:17 0.5 C 42 %
4303 16-11-2019 20:09:17 0.5 C 43 %
4304 16-11-2019 20:19:17 0.6 C 43 %
4305 16-11-2019 20:29:17 0.7 C 44 %
4306 16-11-2019 20:39:17 0.7 C 44 %
4307 16-11-2019 20:49:17 0.6 C 43 %
4308 16-11-2019 20:59:17 0.6 C 43 %
4309 16-11-2019 21:09:17 1.1 C 43 %
4310 16-11-2019 21:19:17 0.3 C 43 %
4311 16-11-2019 21:29:17 0.1 C 43 %
4312 16-11-2019 21:39:17 0 C 43 %
4313 16-11-2019 21:49:17 -0.2 C 42 %
4314 16-11-2019 21:59:17 -0.3 C 43 %
4315 16-11-2019 22:09:17 0 C 43 %
4316 16-11-2019 22:19:17 -0.5 C 43 %
4317 16-11-2019 22:29:17 -0.7 C 42 %
4318 16-11-2019 22:39:17 -0.9 C 42 %
4319 16-11-2019 22:49:17 -0.9 C 42 %
4320 16-11-2019 22:59:17 -1 C 42 %
4321 16-11-2019 23:09:17 -1.2 C 42 %
4322 16-11-2019 23:19:17 -1 C 42 %
4323 16-11-2019 23:29:17 -1.3 C 42 %
4324 16-11-2019 23:39:17 -1.3 C 42 %
4325 16-11-2019 23:49:17 -1.6 C 42 %
Sensor: Nr:Datum:Temp:Feuchte:
Aussen-T/F 4326 16-11-2019 23:59:17 -1.6 C 42 %
4327 17-11-2019 00:09:17 -1.6 C 42 %
4328 17-11-2019 00:19:17 -1.3 C 43 %
4329 17-11-2019 00:29:17 -1.6 C 42 %
4330 17-11-2019 00:39:17 -1.9 C 42 %
4331 17-11-2019 00:49:17 -1.9 C 42 %
4332 17-11-2019 00:59:17 -2 C 41 %
4333 17-11-2019 01:09:17 -2.2 C 41 %
4334 17-11-2019 01:19:17 -1.4 C 42 %
4335 17-11-2019 01:29:17 -2 C 41 %
4336 17-11-2019 01:39:17 -1.7 C 42 %
4337 17-11-2019 01:49:17 -1.3 C 42 %
4338 17-11-2019 01:59:17 -1.2 C 42 %
4339 17-11-2019 02:09:17 -1 C 43 %
4340 17-11-2019 02:19:17 -1 C 43 %
4341 17-11-2019 02:29:17 -0.5 C 43 %
4342 17-11-2019 02:39:17 -0.3 C 43 %
4343 17-11-2019 02:49:17 -0.2 C 43 %
4344 17-11-2019 02:59:17 -0.2 C 43 %
4345 17-11-2019 03:09:17 0 C 43 %
4346 17-11-2019 03:19:17 0.1 C 43 %
4347 17-11-2019 03:29:17 0.2 C 43 %
4348 17-11-2019 03:39:17 0.3 C 43 %
4349 17-11-2019 03:49:17 0.5 C 43 %
4350 17-11-2019 03:59:17 0.5 C 43 %
Sensor: Nr:Datum:Temp:Feuchte:
Aussen-T/F 4351 17-11-2019 04:09:17 0.7 C 43 %
4352 17-11-2019 04:19:17 0.8 C 43 %
4353 17-11-2019 04:29:17 0.9 C 43 %
4354 17-11-2019 04:39:17 0.9 C 43 %
4355 17-11-2019 04:49:17 0.8 C 43 %
4356 17-11-2019 04:59:17 0.8 C 43 %
4357 17-11-2019 05:09:17 0.8 C 43 %
4358 17-11-2019 05:19:17 0.8 C 43 %
4359 17-11-2019 05:29:17 1 C 42 %
4360 17-11-2019 05:39:17 0.8 C 43 %
4361 17-11-2019 05:49:17 0.8 C 43 %
4362 17-11-2019 05:59:17 0.8 C 43 %
4363 17-11-2019 06:09:17 0.8 C 43 %
4364 17-11-2019 06:19:17 0.8 C 43 %
4365 17-11-2019 06:29:17 0.8 C 43 %
4366 17-11-2019 06:39:17 0.9 C 43 %
4367 17-11-2019 06:49:17 1 C 41 %
4368 17-11-2019 06:59:17 0.9 C 43 %
4369 17-11-2019 07:09:17 1 C 41 %
4370 17-11-2019 07:19:17 1 C 41 %
4371 17-11-2019 07:29:17 1 C 41 %
4372 17-11-2019 07:39:17 1.1 C 41 %
4373 17-11-2019 07:49:17 1.1 C 41 %
4374 17-11-2019 07:59:17 1.1 C 41 %
4375 17-11-2019 08:09:17 1.2 C 41 %
Sensor: Nr:Datum:Temp:Feuchte:
Aussen-T/F 4376 17-11-2019 08:19:17 1.2 C 41 %
4377 17-11-2019 08:29:17 1.2 C 41 %
4378 17-11-2019 08:39:17 1.3 C 41 %
4379 17-11-2019 08:49:17 1.4 C 41 %
4380 17-11-2019 08:59:17 1.5 C 42 %
4381 17-11-2019 09:09:17 1.5 C 42 %
4382 17-11-2019 09:19:17 1.8 C 42 %
4383 17-11-2019 09:29:17 2 C 41 %
4384 17-11-2019 09:39:17 2.1 C 41 %
4385 17-11-2019 09:49:17 2.1 C 41 %
4386 17-11-2019 09:59:17 2.3 C 41 %
4387 17-11-2019 10:09:17 2.5 C 42 %
4388 17-11-2019 10:19:17 2.6 C 42 %
4389 17-11-2019 10:29:17 2.6 C 42 %
4390 17-11-2019 10:39:17 2.7 C 41 %
4391 17-11-2019 10:49:17 2.8 C 41 %
4392 17-11-2019 10:59:17 3 C 41 %
4393 17-11-2019 11:09:17 3.2 C 40 %
4394 17-11-2019 11:19:17 3.3 C 40 %
4395 17-11-2019 11:29:17 3.5 C 39 %
4396 17-11-2019 11:39:17 3.5 C 39 %
4397 17-11-2019 11:49:17 3.5 C 39 %
4398 17-11-2019 11:59:17 3.7 C 38 %
4399 17-11-2019 12:09:17 3.9 C 38 %
4400 17-11-2019 12:19:17 3.8 C 38 %
Sensor: Nr:Datum:Temp:Feuchte:
Aussen-T/F 4401 17-11-2019 12:29:17 3.9 C 38 %
4402 17-11-2019 12:39:17 4 C 37 %
4403 17-11-2019 12:49:17 4.1 C 37 %
4404 17-11-2019 12:59:17 4.4 C 37 %
4405 17-11-2019 13:09:17 4.5 C 36 %
4406 17-11-2019 13:19:17 4.6 C 33 %
4407 17-11-2019 13:29:17 4.7 C 32 %
4408 17-11-2019 13:39:17 4.7 C 32 %
4409 17-11-2019 13:49:17 4.8 C 32 %
4410 17-11-2019 13:59:17 4.8 C 32 %
4411 17-11-2019 14:09:17 4.9 C 33 %
4412 17-11-2019 14:19:17 4.9 C 31 %
4413 17-11-2019 14:29:17 5.1 C 31 %
4414 17-11-2019 14:39:17 4.6 C 29 %
4415 17-11-2019 14:49:17 4.4 C 31 %
4416 17-11-2019 14:59:17 4.3 C 35 %
4417 17-11-2019 15:09:17 4.3 C 35 %
4418 17-11-2019 15:19:17 4.2 C 37 %
4419 17-11-2019 15:29:17 4.1 C 37 %
4420 17-11-2019 15:39:18 4.2 C 38 %
4421 17-11-2019 15:49:17 4 C 38 %
4422 17-11-2019 15:59:17 4 C 37 %
4423 17-11-2019 16:09:17 4 C 38 %
4424 17-11-2019 16:19:17 4 C 38 %
4425 17-11-2019 16:29:17 3.8 C 40 %
Sensor: Nr:Datum:Temp:Feuchte:
Aussen-T/F 4426 17-11-2019 16:39:17 3.8 C 40 %
4427 17-11-2019 16:49:17 3.8 C 39 %
4428 17-11-2019 16:59:17 3.7 C 40 %
4429 17-11-2019 17:09:17 3.7 C 40 %
4430 17-11-2019 17:19:17 3.6 C 40 %
4431 17-11-2019 17:29:17 3.6 C 40 %
4432 17-11-2019 17:39:17 3.6 C 40 %
4433 17-11-2019 17:49:17 3.6 C 41 %
4434 17-11-2019 17:59:17 3.7 C 41 %
4435 17-11-2019 18:09:17 3.8 C 41 %
4436 17-11-2019 18:19:17 3.9 C 42 %
4437 17-11-2019 18:29:17 3.9 C 42 %
4438 17-11-2019 18:39:17 3.9 C 41 %
4439 17-11-2019 18:49:17 3.9 C 41 %
4440 17-11-2019 18:59:17 3.8 C 41 %
4441 17-11-2019 19:09:17 3.8 C 40 %
4442 17-11-2019 19:19:17 3.8 C 41 %
4443 17-11-2019 19:29:17 3.8 C 41 %
4444 17-11-2019 19:39:17 3.8 C 41 %
4445 17-11-2019 19:49:17 3.9 C 41 %
4446 17-11-2019 19:59:17 3.9 C 41 %
4447 17-11-2019 20:09:17 3.9 C 41 %
4448 17-11-2019 20:19:17 3.9 C 41 %
4449 17-11-2019 20:29:17 3.9 C 41 %
4450 17-11-2019 20:39:17 3.9 C 41 %
Sensor: Nr:Datum:Temp:Feuchte:
Aussen-T/F 4451 17-11-2019 20:49:17 4 C 40 %
4452 17-11-2019 20:59:17 4 C 40 %
4453 17-11-2019 21:09:17 3.9 C 41 %
4454 17-11-2019 21:19:17 4 C 40 %
4455 17-11-2019 21:29:17 3.9 C 41 %
4456 17-11-2019 21:39:17 3.9 C 41 %
4457 17-11-2019 21:49:17 3.9 C 41 %
4458 17-11-2019 21:59:17 3.9 C 41 %
4459 17-11-2019 22:09:17 3.9 C 41 %
4460 17-11-2019 22:19:17 3.9 C 41 %
4461 17-11-2019 22:29:17 3.9 C 41 %
4462 17-11-2019 22:39:17 3.9 C 41 %
4463 17-11-2019 22:49:17 3.9 C 41 %
4464 17-11-2019 22:59:17 3.8 C 41 %
4465 17-11-2019 23:09:17 3.8 C 41 %
4466 17-11-2019 23:19:17 3.8 C 41 %
4467 17-11-2019 23:29:17 3.8 C 41 %
4468 17-11-2019 23:39:17 3.8 C 41 %
4469 17-11-2019 23:49:17 3.7 C 41 %
4470 17-11-2019 23:59:17 3.6 C 41 %
4471 18-11-2019 00:09:17 3.6 C 40 %
4472 18-11-2019 00:19:17 3.6 C 40 %
4473 18-11-2019 00:29:17 3.5 C 40 %
4474 18-11-2019 00:39:17 3.5 C 40 %
4475 18-11-2019 00:49:17 3.4 C 40 %
Sensor: Nr:Datum:Temp:Feuchte:
Aussen-T/F 4476 18-11-2019 00:59:17 3.4 C 39 %
4477 18-11-2019 01:09:17 3.4 C 39 %
4478 18-11-2019 01:19:17 3.4 C 38 %
4479 18-11-2019 01:29:17 3.4 C 38 %
4480 18-11-2019 01:39:17 3.3 C 38 %
4481 18-11-2019 01:49:17 3.4 C 39 %
4482 18-11-2019 01:59:17 3.4 C 39 %
4483 18-11-2019 02:09:17 3.4 C 40 %
4484 18-11-2019 02:19:17 3.3 C 40 %
4485 18-11-2019 02:29:17 3.4 C 40 %
4486 18-11-2019 02:39:17 3.4 C 40 %
4487 18-11-2019 02:49:17 3.4 C 40 %
4488 18-11-2019 02:59:17 3.3 C 40 %
4489 18-11-2019 03:09:17 3.3 C 40 %
4490 18-11-2019 03:19:17 3.4 C 41 %
4491 18-11-2019 03:29:17 3.4 C 41 %
4492 18-11-2019 03:39:17 3.3 C 40 %
4493 18-11-2019 03:49:17 3.4 C 40 %
4494 18-11-2019 03:59:17 3.4 C 40 %
4495 18-11-2019 04:09:17 3.4 C 40 %
4496 18-11-2019 04:19:17 3.3 C 40 %
4497 18-11-2019 04:29:17 3.4 C 40 %
4498 18-11-2019 04:39:18 3.3 C 40 %
4499 18-11-2019 04:49:17 3.3 C 40 %
4500 18-11-2019 04:59:17 3.3 C 40 %
Sensor: Nr:Datum:Temp:Feuchte:
Aussen-T/F 4501 18-11-2019 05:09:17 3.4 C 40 %
4502 18-11-2019 05:19:18 3.3 C 40 %
4503 18-11-2019 05:29:18 3.3 C 40 %
4504 18-11-2019 05:39:17 3.3 C 41 %
4505 18-11-2019 05:49:17 3.3 C 40 %
4506 18-11-2019 05:59:17 3.3 C 41 %
4507 18-11-2019 06:09:17 3.3 C 41 %
4508 18-11-2019 06:19:17 3.3 C 41 %
4509 18-11-2019 06:29:17 3.2 C 41 %
4510 18-11-2019 06:39:17 3.2 C 41 %
4511 18-11-2019 06:49:17 3.2 C 41 %
4512 18-11-2019 06:59:17 3.2 C 41 %
4513 18-11-2019 07:09:17 3.2 C 41 %
4514 18-11-2019 07:19:18 3.2 C 41 %
4515 18-11-2019 07:29:18 3.2 C 41 %
4516 18-11-2019 07:39:18 3.3 C 41 %
4517 18-11-2019 07:49:17 3.3 C 41 %
4518 18-11-2019 07:59:17 3.3 C 41 %
4519 18-11-2019 08:09:17 3.3 C 41 %
4520 18-11-2019 08:19:17 3.3 C 41 %
4521 18-11-2019 08:29:17 3.4 C 41 %
4522 18-11-2019 08:39:18 3.4 C 41 %
4523 18-11-2019 08:49:18 3.4 C 41 %
4524 18-11-2019 08:59:18 3.4 C 41 %
4525 18-11-2019 09:09:17 3.5 C 41 %
Sensor: Nr:Datum:Temp:Feuchte:
Aussen-T/F 4526 18-11-2019 09:19:17 3.6 C 41 %
4527 18-11-2019 09:29:17 3.6 C 40 %
4528 18-11-2019 09:39:17 3.7 C 40 %
4529 18-11-2019 09:49:17 3.9 C 38 %
4530 18-11-2019 09:59:17 4.1 C 37 %
4531 18-11-2019 10:09:17 4.1 C 35 %
4532 18-11-2019 10:19:31 4.2 C 35 %
4533 18-11-2019 10:29:31 4.1 C 35 %
4534 18-11-2019 10:39:17 4.1 C 35 %
4535 18-11-2019 10:49:17 4.2 C 36 %
4536 18-11-2019 10:59:17 4.1 C 35 %
4537 18-11-2019 11:09:17 4.1 C 35 %
4538 18-11-2019 11:19:17 4.2 C 35 %
4539 18-11-2019 11:29:17 4.3 C 34 %
4540 18-11-2019 11:39:17 4.4 C 34 %
4541 18-11-2019 11:49:17 4.7 C 33 %
4542 18-11-2019 11:59:17 5 C 29 %
4543 18-11-2019 12:09:17 4.9 C 30 %
4544 18-11-2019 12:19:17 5 C 28 %
4545 18-11-2019 12:29:17 4.8 C 30 %
4546 18-11-2019 12:39:17 4.8 C 30 %
4547 18-11-2019 12:49:17 4.8 C 30 %
4548 18-11-2019 12:59:17 4.8 C 30 %
4549 18-11-2019 13:09:17 4.7 C 30 %
4550 18-11-2019 13:19:17 4.7 C 31 %
Sensor: Nr:Datum:Temp:Feuchte:
Aussen-T/F 4551 18-11-2019 13:29:17 4.8 C 30 %
4552 18-11-2019 13:39:17 4.8 C 30 %
4553 18-11-2019 13:49:17 4.8 C 29 %
4554 18-11-2019 13:59:17 4.8 C 30 %
4555 18-11-2019 14:09:17 4.8 C 28 %
4556 18-11-2019 14:19:17 4.8 C 30 %
4557 18-11-2019 14:29:17 4.8 C 30 %
4558 18-11-2019 14:39:17 4.8 C 30 %
4559 18-11-2019 14:49:17 4.6 C 30 %
4560 18-11-2019 14:59:17 4.5 C 30 %
4561 18-11-2019 15:09:17 4.5 C 31 %
4562 18-11-2019 15:19:18 4.5 C 31 %
4563 18-11-2019 15:29:18 4.5 C 30 %
4564 18-11-2019 15:39:17 4.5 C 30 %
4565 18-11-2019 15:49:17 4.4 C 30 %
4566 18-11-2019 15:59:17 4.3 C 30 %
4567 18-11-2019 16:09:17 4.2 C 31 %
4568 18-11-2019 16:19:17 4.1 C 31 %
4569 18-11-2019 16:29:17 4.1 C 30 %
4570 18-11-2019 16:39:17 4.1 C 31 %
4571 18-11-2019 16:49:17 4.1 C 32 %
4572 18-11-2019 16:59:17 4.1 C 30 %
4573 18-11-2019 17:09:17 4.1 C 30 %
4574 18-11-2019 17:19:17 4.1 C 30 %
4575 18-11-2019 17:29:17 4 C 31 %
Sensor: Nr:Datum:Temp:Feuchte:
Aussen-T/F 4576 18-11-2019 17:39:17 4 C 31 %
4577 18-11-2019 17:49:17 4 C 31 %
4578 18-11-2019 17:59:17 3.9 C 33 %
4579 18-11-2019 18:09:17 3.9 C 34 %
4580 18-11-2019 18:19:17 3.8 C 34 %
4581 18-11-2019 18:29:17 3.8 C 35 %
4582 18-11-2019 18:39:17 3.7 C 34 %
4583 18-11-2019 18:49:17 3.5 C 36 %
4584 18-11-2019 18:59:17 3.5 C 35 %
4585 18-11-2019 19:09:17 3.3 C 34 %
4586 18-11-2019 19:19:17 3.2 C 34 %
4587 18-11-2019 19:29:17 3 C 36 %
4588 18-11-2019 19:39:17 2.9 C 36 %
4589 18-11-2019 19:49:17 2.7 C 36 %
4590 18-11-2019 19:59:17 2.7 C 36 %
4591 18-11-2019 20:09:17 2.4 C 36 %
4592 18-11-2019 20:19:17 2.3 C 37 %
4593 18-11-2019 20:29:17 2.2 C 36 %
4594 18-11-2019 20:39:17 2 C 37 %
4595 18-11-2019 20:49:17 1.9 C 39 %
4596 18-11-2019 20:59:17 1.8 C 38 %
4597 18-11-2019 21:09:17 1.6 C 40 %
4598 18-11-2019 21:19:17 1.5 C 39 %
4599 18-11-2019 21:29:17 1.5 C 40 %
4600 18-11-2019 21:39:17 1.5 C 40 %
Sensor: Nr:Datum:Temp:Feuchte:
Aussen-T/F 4601 18-11-2019 21:49:17 1.6 C 40 %
4602 18-11-2019 21:59:17 1.8 C 40 %
4603 18-11-2019 22:09:17 2 C 38 %
4604 18-11-2019 22:19:17 2 C 38 %
4605 18-11-2019 22:29:17 2.2 C 36 %
4606 18-11-2019 22:39:17 2.2 C 36 %
4607 18-11-2019 22:49:17 2.2 C 36 %
4608 18-11-2019 22:59:17 2.2 C 36 %
4609 18-11-2019 23:09:17 2.2 C 36 %
4610 18-11-2019 23:19:17 2.4 C 36 %
4611 18-11-2019 23:29:17 2.6 C 36 %
4612 18-11-2019 23:39:17 2.7 C 35 %
4613 18-11-2019 23:49:17 2.7 C 35 %
4614 18-11-2019 23:59:17 2.8 C 36 %
4615 19-11-2019 00:09:17 2.9 C 36 %
4616 19-11-2019 00:19:17 2.9 C 36 %
4617 19-11-2019 00:29:17 3 C 36 %
4618 19-11-2019 00:39:17 3 C 35 %
4619 19-11-2019 00:49:18 3 C 35 %
4620 19-11-2019 00:59:18 3 C 36 %
4621 19-11-2019 01:09:17 3.2 C 36 %
4622 19-11-2019 01:19:17 3.2 C 36 %
4623 19-11-2019 01:29:17 3.2 C 36 %
4624 19-11-2019 01:39:18 3.3 C 37 %
4625 19-11-2019 01:49:18 3.4 C 36 %
Sensor: Nr:Datum:Temp:Feuchte:
Aussen-T/F 4626 19-11-2019 01:59:18 3.3 C 36 %
4627 19-11-2019 02:09:18 3.3 C 36 %
4628 19-11-2019 02:19:17 3.4 C 36 %
4629 19-11-2019 02:29:17 3.3 C 36 %
4630 19-11-2019 02:39:17 3.4 C 37 %
4631 19-11-2019 02:49:17 3.3 C 37 %
4632 19-11-2019 02:59:17 3.3 C 38 %
4633 19-11-2019 03:09:17 3.3 C 40 %
4634 19-11-2019 03:19:17 3.4 C 39 %
4635 19-11-2019 03:29:17 3.4 C 39 %
4636 19-11-2019 03:39:17 3.5 C 37 %
4637 19-11-2019 03:49:17 3.5 C 37 %
4638 19-11-2019 03:59:17 3.5 C 38 %
4639 19-11-2019 04:09:17 3.6 C 37 %
4640 19-11-2019 04:19:18 3.6 C 36 %
4641 19-11-2019 04:29:18 3.5 C 36 %
4642 19-11-2019 04:39:17 3.5 C 37 %
4643 19-11-2019 04:49:17 3.4 C 37 %
4644 19-11-2019 04:59:17 3.1 C 39 %
4645 19-11-2019 05:09:17 2.5 C 40 %
4646 19-11-2019 05:19:18 2.3 C 41 %
4647 19-11-2019 05:29:18 2 C 42 %
4648 19-11-2019 05:39:17 1.6 C 43 %
4649 19-11-2019 05:49:17 1.5 C 43 %
4650 19-11-2019 05:59:17 1.8 C 44 %
Sensor: Nr:Datum:Temp:Feuchte:
Aussen-T/F 4651 19-11-2019 06:09:17 1.8 C 44 %
4652 19-11-2019 06:19:17 1.7 C 43 %
4653 19-11-2019 06:29:17 1.7 C 43 %
4654 19-11-2019 06:39:17 1.8 C 43 %
4655 19-11-2019 06:49:17 2 C 42 %
4656 19-11-2019 06:59:17 2.1 C 42 %
4657 19-11-2019 07:09:17 2.4 C 42 %
4658 19-11-2019 07:19:17 2.2 C 42 %
4659 19-11-2019 07:29:17 1.5 C 42 %
4660 19-11-2019 07:39:17 1.3 C 42 %
4661 19-11-2019 07:49:17 1.2 C 42 %
4662 19-11-2019 07:59:17 1.8 C 43 %
4663 19-11-2019 08:09:17 2.1 C 42 %
4664 19-11-2019 08:19:17 2.5 C 42 %
4665 19-11-2019 08:29:17 2.8 C 42 %
4666 19-11-2019 08:39:17 2.5 C 41 %
4667 19-11-2019 08:49:17 2.6 C 41 %
4668 19-11-2019 08:59:17 3.2 C 41 %
4669 19-11-2019 09:09:17